[[{"header":{"parameterUnit":"m.s-1","parameterCategory":1,"la1":30.6,"la2":29.2853,"lo1":-89.7004,"lo2":-87.6739,"dy":0.0162,"dx":0.0183,"nx":112,"ny":82,"refTime":"2023-06-25T12:00:00:Z","depth":0,"parameterNumber":2,"parameterNumberName":"U-component_of_WINDS"},"data":[0.0,0.0,0.0,0.0,0.0,0.0,0.0,0.0,0.0,0.0,0.0,0.0,0.0,0.0,0.0,0.0,0.0,0.0,0.0,0.0,0.0,0.0,0.0,0.0,0.0,0.0,0.0,0.0,0.0,0.0,0.0,0.0,0.0,0.0,0.0,0.0,0.0,0.0,0.0,0.0,0.0,0.0,0.0,0.0,0.0,0.0,0.0,0.0,0.0,0.0,0.0,0.0,0.0,0.0,0.0,0.0,0.0,0.0,0.0,0.0,0.0,0.0,0.0,0.0,0.0,0.0,0.0,0.0,0.0,0.0,0.0,0.0,0.0,0.0,0.0,0.0,0.0,0.0,0.0,0.0,0.0,0.0,0.0,0.0,0.0,0.0,0.0,0.0,0.0,0.0,-0.5959,-0.6514,-0.6412,-0.618,-0.5941,-0.5712,-0.5786,-0.6163,0.0,0.0,0.0,0.0,0.0,0.0,0.0,0.0,0.0,0.0,0.0,0.0,0.0,0.0,0.0,0.0,0.0,0.0,0.0,0.0,0.0,0.0,0.0,0.0,0.0,0.0,0.0,0.0,0.0,0.0,0.0,0.0,0.0,0.0,0.0,0.0,0.0,0.0,0.0,0.0,0.0,0.0,0.0,0.0,0.0,0.0,0.0,0.0,0.0,0.0,0.0,0.0,0.0,0.0,0.0,0.0,0.0,0.0,0.0,0.0,0.0,0.0,0.0,0.0,0.0,0.0,0.0,0.0,0.0,0.0,0.0,0.0,0.0,0.0,0.0,0.0,0.0,0.0,0.0,0.0,0.0,0.0,0.0,0.0,0.0,0.0,0.0,0.0,0.0,0.0,0.0,0.0,0.0,0.0,0.0,0.0,0.0,0.0,0.0,0.0,0.0,0.0,0.0,0.0,-0.5924,-0.6287,-0.6325,-0.618,-0.5941,-0.5712,-0.5786,-0.6163,0.0,0.0,0.0,0.0,0.0,0.0,0.0,0.0,0.0,0.0,0.0,0.0,0.0,0.0,0.0,0.0,0.0,0.0,0.0,0.0,0.0,0.0,0.0,0.0,0.0,0.0,0.0,0.0,0.0,0.0,0.0,0.0,0.0,0.0,0.0,0.0,0.0,0.0,0.0,0.0,0.0,0.0,0.0,0.0,0.0,0.0,0.0,0.0,0.0,0.0,0.0,0.0,0.0,0.0,0.0,0.0,0.0,0.0,0.0,0.0,0.0,0.0,0.0,0.0,0.0,0.0,0.0,0.0,0.0,0.0,0.0,0.0,0.0,0.0,0.0,0.0,0.0,0.0,0.0,0.0,0.0,0.0,0.0,0.0,0.0,0.0,0.0,0.0,0.0,0.0,0.0,0.0,0.0,0.0,0.0,0.0,0.0,0.0,0.0,0.0,0.0,0.0,0.0,-0.6036,-0.6103,-0.6254,-0.6338,-0.6261,-0.6099,-0.5867,-0.5789,-0.5864,-0.5709,0.0,0.0,0.0,0.0,0.0,0.0,0.0,0.0,0.0,0.0,0.0,0.0,0.0,0.0,0.0,0.0,0.0,0.0,0.0,0.0,0.0,0.0,0.0,0.0,0.0,0.0,0.0,0.0,0.0,0.0,0.0,0.0,0.0,0.0,0.0,0.0,0.0,0.0,0.0,0.0,0.0,0.0,0.0,0.0,0.0,0.0,0.0,0.0,0.0,0.0,0.0,0.0,0.0,0.0,0.0,0.0,0.0,0.0,0.0,0.0,0.0,0.0,0.0,0.0,0.0,0.0,0.0,0.0,0.0,0.0,0.0,0.0,0.0,0.0,0.0,0.0,0.0,0.0,0.0,0.0,0.0,0.0,0.0,0.0,0.0,0.0,0.0,0.0,0.0,0.0,0.0,0.0,0.0,0.0,0.0,0.0,0.0,0.0,0.0,0.0,0.0,0.0,-0.6338,-0.6338,-0.6338,-0.6338,-0.6338,-0.6338,-0.6022,-0.5786,-0.5637,-0.5401,0.0,0.0,0.0,0.0,0.0,0.0,0.0,0.0,0.0,0.0,0.0,0.0,0.0,0.0,0.0,0.0,0.0,0.0,0.0,0.0,0.0,0.0,0.0,0.0,0.0,0.0,0.0,0.0,0.0,0.0,0.0,0.0,0.0,0.0,0.0,0.0,0.0,0.0,0.0,0.0,0.0,0.0,0.0,0.0,0.0,0.0,0.0,0.0,0.0,0.0,0.0,0.0,0.0,0.0,0.0,0.0,0.0,0.0,0.0,0.0,0.0,0.0,0.0,0.0,0.0,0.0,0.0,0.0,0.0,0.0,0.0,0.0,0.0,0.0,0.0,0.0,0.0,0.0,0.0,0.0,0.0,0.0,0.0,0.0,0.0,0.0,0.0,0.0,0.0,0.0,0.0,0.0,0.0,0.0,0.0,0.0,0.0,0.0,0.0,0.0,0.0,0.0,-0.6338,-0.6338,-0.6338,-0.6338,-0.6338,-0.6338,-0.6022,-0.5786,-0.5637,-0.5401,0.0,0.0,0.0,0.0,0.0,0.0,0.0,0.0,0.0,0.0,0.0,0.0,0.0,0.0,0.0,0.0,0.0,0.0,0.0,0.0,0.0,0.0,0.0,0.0,0.0,0.0,0.0,0.0,0.0,0.0,0.0,0.0,0.0,0.0,0.0,0.0,0.0,0.0,0.0,0.0,0.0,0.0,0.0,0.0,0.0,0.0,0.0,0.0,0.0,0.0,0.0,0.0,0.0,0.0,0.0,0.0,0.0,0.0,0.0,0.0,0.0,0.0,0.0,0.0,0.0,0.0,0.0,0.0,0.0,0.0,0.0,0.0,0.0,0.0,0.0,0.0,0.0,0.0,0.0,0.0,0.0,0.0,0.0,0.0,0.0,0.0,0.0,0.0,0.0,0.0,0.0,0.0,0.0,0.0,0.0,0.0,0.0,0.0,0.0,0.0,0.0,0.0,-0.6338,-0.6338,-0.6338,-0.6338,-0.6338,-0.6338,-0.6022,-0.5786,-0.5637,0.0,0.0,0.0,0.0,0.0,0.0,0.0,0.0,0.0,0.0,0.0,0.0,0.0,0.0,0.0,0.0,0.0,0.0,0.0,0.0,0.0,0.0,0.0,0.0,0.0,0.0,0.0,0.0,0.0,0.0,0.0,0.0,0.0,0.0,0.0,0.0,0.0,0.0,0.0,0.0,0.0,0.0,0.0,0.0,0.0,0.0,0.0,0.0,0.0,0.0,0.0,0.0,0.0,0.0,0.0,0.0,0.0,0.0,0.0,0.0,0.0,0.0,0.0,0.0,0.0,0.0,0.0,0.0,0.0,0.0,0.0,0.0,0.0,0.0,0.0,0.0,0.0,0.0,0.0,0.0,0.0,0.0,0.0,0.0,0.0,0.0,0.0,0.0,0.0,0.0,0.0,0.0,0.0,0.0,0.0,0.0,0.0,0.0,0.0,0.0,0.0,0.0,-0.6261,-0.6338,-0.6338,-0.6338,-0.6338,-0.6261,-0.618,-0.6018,-0.5786,-0.5559,0.0,0.0,0.0,0.0,0.0,0.0,0.0,0.0,0.0,0.0,0.0,0.0,0.0,0.0,0.0,0.0,0.0,0.0,0.0,0.0,0.0,0.0,0.0,0.0,0.0,0.0,0.0,0.0,0.0,0.0,0.0,0.0,0.0,0.0,0.0,0.0,0.0,0.0,0.0,0.0,0.0,0.0,0.0,0.0,0.0,0.0,0.0,0.0,0.0,0.0,0.0,0.0,0.0,0.0,0.0,0.0,0.0,0.0,0.0,0.0,0.0,0.0,0.0,0.0,0.0,0.0,0.0,0.0,0.0,0.0,0.0,0.0,0.0,0.0,0.0,0.0,0.0,0.0,0.0,0.0,0.0,0.0,0.0,0.0,0.0,0.0,0.0,0.0,0.0,0.0,0.0,0.0,0.0,0.0,0.0,0.0,0.0,0.0,0.0,0.0,0.0,0.0,-0.6338,-0.6338,-0.6338,-0.6338,-0.6261,-0.618,-0.5941,-0.586,-0.5709,0.0,0.0,0.0,0.0,0.0,0.0,0.0,0.0,0.0,0.0,0.0,0.0,0.0,0.0,0.0,0.0,0.0,0.0,0.0,0.0,0.0,0.0,0.0,0.0,0.0,0.0,0.0,0.0,0.0,0.0,0.0,0.0,0.0,0.0,0.0,0.0,0.0,0.0,0.0,0.0,0.0,0.0,0.0,0.0,0.0,0.0,0.0,0.0,0.0,0.0,0.0,0.0,0.0,0.0,0.0,0.0,0.0,0.0,0.0,0.0,0.0,0.0,0.0,0.0,0.0,0.0,0.0,0.0,0.0,0.0,0.0,0.0,0.0,0.0,0.0,0.0,0.0,0.0,0.0,0.0,0.0,0.0,0.0,0.0,0.0,0.0,0.0,0.0,0.0,0.0,0.0,0.0,0.0,0.0,0.0,0.0,0.0,0.0,0.0,0.0,0.0,0.0,0.0,-0.6338,-0.6338,-0.6338,-0.6338,-0.6103,-0.6018,-0.5941,-0.5628,-0.5398,-0.5321,0.0,0.0,0.0,0.0,0.0,0.0,0.0,0.0,0.0,0.0,0.0,0.0,0.0,0.0,0.0,0.0,0.0,0.0,0.0,0.0,0.0,0.0,0.0,0.0,0.0,0.0,0.0,0.0,0.0,0.0,0.0,0.0,0.0,0.0,0.0,0.0,0.0,0.0,0.0,0.0,0.0,0.0,0.0,0.0,0.0,0.0,0.0,0.0,0.0,0.0,0.0,0.0,0.0,0.0,0.0,0.0,0.0,0.0,0.0,0.0,0.0,0.0,0.0,0.0,0.0,0.0,0.0,0.0,0.0,0.0,0.0,0.0,0.0,0.0,0.0,0.0,0.0,0.0,0.0,0.0,0.0,0.0,0.0,0.0,0.0,0.0,0.0,0.0,0.0,0.0,0.0,0.0,0.0,0.0,0.0,0.0,0.0,0.0,0.0,0.0,0.0,0.0,-0.6338,-0.6338,-0.6261,-0.618,-0.6018,-0.586,-0.5709,-0.5476,-0.5243,-0.5168,0.0,0.0,0.0,0.0,0.0,0.0,0.0,0.0,0.0,0.0,0.0,0.0,0.0,0.0,0.0,0.0,0.0,0.0,0.0,0.0,0.0,0.0,0.0,0.0,0.0,0.0,0.0,0.0,0.0,0.0,0.0,0.0,0.0,0.0,0.0,0.0,0.0,0.0,0.0,0.0,0.0,0.0,0.0,0.0,0.0,0.0,0.0,0.0,0.0,0.0,0.0,0.0,0.0,0.0,0.0,0.0,0.0,0.0,0.0,0.0,0.0,0.0,0.0,0.0,0.0,0.0,0.0,0.0,0.0,0.0,0.0,0.0,0.0,0.0,0.0,0.0,0.0,0.0,0.0,0.0,0.0,0.0,0.0,0.0,0.0,0.0,0.0,0.0,0.0,0.0,0.0,0.0,0.0,0.0,0.0,0.0,0.0,0.0,0.0,0.0,0.0,0.0,-0.6261,-0.6261,-0.618,-0.5864,-0.5864,-0.5705,-0.5321,-0.5321,-0.5168,-0.5018,0.0,0.0,0.0,0.0,0.0,0.0,0.0,0.0,0.0,0.0,0.0,0.0,0.0,0.0,0.0,0.0,0.0,0.0,0.0,0.0,0.0,0.0,0.0,0.0,0.0,0.0,0.0,0.0,0.0,0.0,0.0,0.0,0.0,0.0,0.0,0.0,0.0,0.0,0.0,0.0,0.0,0.0,0.0,0.0,0.0,0.0,0.0,0.0,0.0,0.0,0.0,0.0,0.0,0.0,0.0,0.0,0.0,0.0,0.0,0.0,-0.8508,-0.8765,0.0,0.0,0.0,0.0,0.0,0.0,0.0,0.0,0.0,0.0,0.0,0.0,0.0,0.0,0.0,0.0,0.0,0.0,0.0,0.0,0.0,0.0,0.0,0.0,0.0,0.0,0.0,0.0,0.0,0.0,0.0,0.0,0.0,0.0,0.0,0.0,0.0,0.0,0.0,0.0,-0.6018,-0.6018,-0.5867,-0.5712,-0.5556,-0.5398,-0.5321,-0.5168,-0.5015,-0.5018,-0.4701,0.0,0.0,0.0,0.0,0.0,0.0,0.0,0.0,0.0,0.0,0.0,0.0,0.0,0.0,0.0,0.0,0.0,0.0,0.0,0.0,0.0,0.0,0.0,0.0,0.0,0.0,0.0,0.0,0.0,0.0,0.0,0.0,0.0,0.0,0.0,0.0,0.0,0.0,0.0,0.0,0.0,0.0,0.0,0.0,0.0,0.0,0.0,0.0,0.0,0.0,0.0,0.0,0.0,0.0,0.0,0.0,0.0,0.0,0.0,-0.8572,-0.8738,0.0,0.0,0.0,0.0,0.0,0.0,0.0,0.0,0.0,0.0,0.0,0.0,0.0,0.0,0.0,0.0,0.0,0.0,0.0,0.0,0.0,0.0,0.0,0.0,0.0,0.0,0.0,0.0,0.0,0.0,0.0,0.0,0.0,0.0,0.0,0.0,0.0,0.0,0.0,0.0,-0.5941,-0.5786,-0.5712,-0.5479,-0.5398,-0.5243,-0.5168,-0.5093,-0.5018,-0.5018,-0.4621,0.0,0.0,0.0,0.0,0.0,0.0,0.0,0.0,0.0,0.0,0.0,0.0,0.0,0.0,0.0,0.0,0.0,0.0,0.0,0.0,0.0,0.0,0.0,0.0,0.0,0.0,0.0,0.0,0.0,0.0,0.0,0.0,0.0,0.0,0.0,0.0,0.0,0.0,0.0,0.0,0.0,0.0,0.0,0.0,0.0,0.0,0.0,0.0,0.0,0.0,0.0,0.0,0.0,-0.6712,-0.6702,-0.6702,-0.6702,-0.663,-0.6599,-0.8264,-0.8365,-0.7342,-0.826,0.0,0.0,0.0,0.0,0.0,0.0,0.0,0.0,0.0,0.0,0.0,0.0,0.0,0.0,0.0,0.0,0.0,0.0,0.0,0.0,0.0,0.0,-0.5078,-0.5078,-0.5078,-0.5078,-0.5078,0.0,0.0,0.0,0.0,0.0,0.0,0.0,0.0,0.0,0.0,0.0,-0.5786,-0.5634,-0.5479,-0.5246,-0.5243,-0.5168,-0.5018,-0.5018,-0.4937,-0.4937,-0.4543,-0.4307,0.0,0.0,0.0,0.0,0.0,0.0,0.0,0.0,0.0,0.0,0.0,0.0,0.0,0.0,0.0,0.0,0.0,0.0,0.0,0.0,0.0,0.0,0.0,0.0,0.0,0.0,0.0,0.0,0.0,0.0,0.0,0.0,-0.5184,-0.5883,0.0,0.0,0.0,0.0,0.0,0.0,0.0,0.0,0.0,0.0,0.0,0.0,0.0,-0.7082,-0.7082,-0.6959,-0.6898,-0.6898,-0.6763,-0.6702,-0.6702,-0.6702,-0.6688,-0.6671,-0.6936,0.0,-0.6493,-0.6588,0.0,0.0,0.0,0.0,0.0,0.0,0.0,0.0,0.0,0.0,0.0,0.0,0.0,0.0,0.0,0.0,0.0,0.0,0.0,0.0,0.0,0.0,-0.5322,-0.5322,-0.5322,-0.5322,-0.5322,-0.5162,-0.5018,-0.5018,-0.5168,-0.5321,0.0,0.0,0.0,0.0,0.0,0.0,-0.5398,-0.5321,-0.5246,-0.5093,-0.5015,-0.5015,-0.5018,-0.5018,-0.4859,-0.4462,-0.4073,-0.3841,-0.3841,-0.3059,0.0,0.0,0.0,0.0,0.0,0.0,0.0,0.0,0.0,0.0,0.0,0.0,0.0,0.0,0.0,0.0,0.0,0.0,0.0,0.0,0.0,0.0,0.0,0.0,0.0,0.0,0.0,0.0,0.0,-0.5282,-0.5549,-0.6083,-0.6034,-0.6144,0.0,0.0,0.0,0.0,0.0,0.0,0.0,0.0,0.0,-0.68,-0.6861,-0.6892,-0.6892,-0.6831,-0.68,-0.68,-0.6732,-0.6702,-0.6702,-0.6702,-0.6702,-0.6702,-0.6702,-0.6627,-0.6508,-0.6508,-0.6508,-0.6508,0.0,0.0,0.0,0.0,-0.6267,-0.586,-0.586,-0.5537,-0.5216,-0.5216,0.0,0.0,0.0,0.0,0.0,0.0,0.0,-0.529,-0.529,-0.5328,-0.5368,-0.5368,-0.5368,-0.5368,-0.5368,-0.5287,-0.5216,-0.5216,-0.5294,-0.5373,-0.5373,-0.5537,0.0,0.0,0.0,-0.551,-0.543,-0.5213,-0.5093,-0.5018,-0.5018,-0.5018,-0.5018,-0.4779,-0.4621,-0.4384,-0.3763,-0.3374,-0.3374,-0.2824,-0.2589,0.0,0.0,0.0,0.0,0.0,0.0,0.0,0.0,0.0,0.0,0.0,0.0,0.0,0.0,0.0,0.0,0.0,0.0,0.0,0.0,0.0,0.0,0.0,0.0,0.0,0.0,0.0,0.0,-0.5733,-0.5822,-0.6169,-0.6169,-0.6307,0.0,0.0,0.0,0.0,0.0,0.0,-0.6756,-0.6759,-0.6776,-0.681,-0.6814,-0.6814,-0.6814,-0.6814,-0.6814,-0.6814,-0.6814,-0.6814,-0.6814,-0.6814,-0.6814,-0.6814,-0.6814,-0.6814,-0.6807,-0.6732,-0.6702,-0.6702,-0.6702,-0.6702,-0.6702,-0.6619,-0.637,-0.6034,-0.5951,-0.5702,-0.5363,-0.5333,-0.5322,-0.5322,-0.5322,0.0,0.0,0.0,0.0,-0.5368,-0.5368,-0.5368,-0.5368,-0.5368,-0.5368,-0.5368,-0.5368,-0.5368,-0.5368,-0.5368,-0.5368,-0.5368,-0.5368,-0.5538,0.0,-0.5624,-0.5542,-0.547,-0.5436,-0.5195,-0.505,-0.5021,-0.5018,-0.4937,-0.4859,-0.4543,-0.4316,-0.4106,-0.348,-0.3097,-0.3037,-0.2718,-0.2557,-0.2557,0.0,0.0,0.0,0.0,0.0,0.0,0.0,0.0,0.0,0.0,0.0,0.0,0.0,0.0,0.0,0.0,0.0,0.0,0.0,0.0,0.0,0.0,0.0,0.0,0.0,0.0,0.0,0.0,0.0,-0.6343,-0.6343,0.0,0.0,0.0,0.0,-0.6919,-0.6783,-0.6763,-0.6909,-0.6915,-0.6976,-0.7112,-0.7115,-0.7115,-0.7115,-0.7115,-0.7115,-0.7115,-0.7115,-0.7115,-0.7115,-0.7115,-0.7115,-0.7115,-0.7115,-0.7115,-0.7095,-0.6817,-0.6702,-0.6702,-0.6702,-0.6702,-0.6702,-0.6456,-0.6204,-0.5951,-0.5791,-0.5541,-0.5349,-0.5233,-0.5197,-0.5197,-0.5197,-0.5276,0.0,0.0,-0.5368,-0.5368,-0.5368,-0.5368,-0.5368,-0.5368,-0.5368,-0.5368,-0.5368,-0.5368,-0.5368,-0.5368,-0.5368,-0.5368,-0.5368,0.0,-0.5452,-0.5452,-0.5446,-0.532,-0.5203,-0.5181,-0.5137,-0.5029,-0.5018,-0.4859,-0.4462,-0.4384,-0.411,-0.3315,-0.3241,-0.3028,-0.2763,-0.2683,-0.2683,-0.2683,-0.2683,0.0,0.0,0.0,0.0,0.0,0.0,0.0,0.0,0.0,0.0,0.0,0.0,0.0,0.0,0.0,0.0,0.0,0.0,0.0,0.0,0.0,0.0,0.0,0.0,0.0,0.0,0.0,0.0,-0.6343,-0.6428,0.0,-0.7051,-0.7095,-0.7065,-0.7065,-0.7014,-0.7007,-0.7061,-0.7065,-0.7088,-0.7139,-0.7139,-0.7139,-0.7139,-0.7139,-0.7139,-0.7139,-0.7139,-0.7139,-0.7139,-0.7139,-0.7139,-0.7139,-0.7139,-0.7139,-0.7044,-0.6857,-0.6814,-0.6983,-0.6814,-0.6727,-0.673,-0.6464,-0.6207,-0.6034,-0.595,-0.5776,-0.5597,-0.5553,-0.554,-0.554,-0.554,-0.557,-0.5602,-0.5602,-0.5602,-0.5602,-0.5602,-0.5602,-0.5602,-0.5602,-0.5602,-0.5602,-0.5602,-0.5602,-0.5602,-0.5602,-0.554,-0.551,-0.5591,-0.5602,-0.5602,-0.5602,-0.5537,-0.5469,-0.5426,-0.5352,-0.5257,-0.5137,-0.4955,-0.4725,-0.4492,-0.398,-0.3537,-0.3318,-0.299,-0.2836,-0.2692,-0.2692,-0.2692,-0.2692,-0.2692,-0.2692,0.0,0.0,0.0,0.0,0.0,0.0,0.0,0.0,0.0,0.0,0.0,0.0,0.0,0.0,0.0,0.0,0.0,0.0,0.0,0.0,0.0,0.0,0.0,0.0,0.0,-0.5733,-0.5908,-0.6343,-0.6428,-0.6605,-0.7051,-0.7139,-0.7139,-0.7139,-0.7139,-0.7139,-0.7139,-0.7139,-0.7139,-0.7139,-0.7139,-0.7166,-0.7217,-0.7217,-0.7244,-0.7295,-0.7295,-0.7295,-0.7295,-0.7295,-0.7295,-0.7295,-0.7295,-0.7205,-0.7111,-0.7024,-0.6934,-0.7015,-0.6739,-0.6704,-0.6612,-0.6346,-0.6257,-0.6083,-0.5997,-0.5791,-0.567,-0.567,-0.567,-0.567,-0.567,-0.57,-0.5733,-0.5733,-0.5703,-0.567,-0.567,-0.564,-0.561,-0.561,-0.561,-0.561,-0.561,-0.561,-0.5624,-0.5662,-0.564,-0.5638,-0.5719,-0.5733,-0.5733,-0.5733,-0.5665,-0.551,-0.547,-0.531,-0.5118,-0.5044,-0.4637,-0.4327,-0.4063,-0.3564,-0.3286,-0.3143,-0.2892,-0.2732,-0.2753,-0.2753,-0.2753,-0.2753,-0.2753,-0.2753,-0.2753,0.0,0.0,0.0,0.0,0.0,0.0,0.0,0.0,0.0,0.0,0.0,0.0,0.0,0.0,0.0,0.0,0.0,0.0,0.0,0.0,0.0,0.0,0.0,-0.5644,-0.5733,-0.5908,-0.6343,-0.6435,-0.6615,-0.7058,-0.7064,-0.7064,-0.7153,-0.7149,-0.7149,-0.7153,-0.7149,-0.7149,-0.7153,-0.7153,-0.7227,-0.7377,-0.738,-0.7451,-0.76,-0.76,-0.76,-0.76,-0.76,-0.76,-0.76,-0.76,-0.7406,-0.7211,-0.7211,-0.7026,-0.672,-0.6457,-0.6441,-0.6355,-0.6183,-0.6094,-0.6094,-0.5833,-0.5667,-0.548,-0.548,-0.548,-0.548,-0.548,-0.5648,-0.5738,-0.5738,-0.5651,-0.547,-0.547,-0.5469,-0.5379,-0.5379,-0.5379,-0.5379,-0.5379,-0.5379,-0.5415,-0.5534,-0.5563,-0.5644,-0.5733,-0.5733,-0.5733,-0.5644,-0.5644,0.0,-0.5483,-0.5038,-0.4699,-0.4575,-0.4153,-0.3671,-0.3175,-0.3238,-0.3143,-0.2779,-0.2785,-0.2812,-0.2872,-0.2875,-0.2875,-0.2875,-0.2875,-0.2875,-0.2875,0.0,0.0,0.0,0.0,0.0,0.0,0.0,0.0,0.0,0.0,0.0,0.0,0.0,0.0,0.0,0.0,0.0,0.0,0.0,0.0,0.0,-0.4478,-0.5191,-0.5644,-0.5733,-0.5822,-0.6169,-0.6253,-0.6494,-0.695,-0.7129,-0.7283,-0.7475,-0.737,-0.7356,-0.7468,-0.737,-0.736,-0.7472,-0.7475,-0.7495,-0.7536,-0.7536,-0.7556,-0.76,-0.76,-0.76,-0.76,-0.76,-0.76,-0.76,-0.7406,-0.7308,-0.7211,-0.6738,-0.6549,-0.6543,-0.647,-0.6444,-0.6351,-0.6171,-0.6081,-0.6081,-0.5988,-0.5966,-0.5939,-0.5939,-0.5939,-0.5939,-0.5939,-0.5899,-0.5855,-0.5855,-0.5773,-0.5684,-0.5684,-0.5657,-0.5635,-0.5635,-0.5635,-0.5635,-0.5635,-0.5635,-0.5643,-0.5678,-0.544,-0.5282,-0.5644,-0.5733,-0.5552,-0.528,-0.5191,-0.509,-0.4707,-0.4528,-0.4218,-0.3503,-0.3128,-0.2775,-0.2501,-0.2327,-0.2371,-0.2785,-0.2824,-0.2857,-0.2873,-0.2875,-0.2875,-0.2875,-0.2875,-0.2875,0.0,0.0,0.0,0.0,0.0,0.0,0.0,0.0,0.0,0.0,0.0,0.0,0.0,0.0,0.0,0.0,0.0,0.0,0.0,0.0,0.0,0.0,-0.4266,-0.5003,-0.5507,-0.5655,-0.5913,-0.6233,-0.6305,-0.654,-0.7003,-0.7166,-0.7308,-0.76,-0.7458,-0.7438,-0.759,-0.7455,-0.7441,-0.7594,-0.76,-0.7628,-0.7689,-0.7689,-0.7723,-0.7784,-0.7784,-0.7784,-0.7784,-0.7691,-0.7594,-0.7594,-0.7295,-0.7102,-0.7006,-0.6713,-0.652,-0.6412,0.0,0.0,0.0,0.0,-0.6086,-0.6086,-0.6086,-0.6086,-0.6086,-0.6086,-0.6086,-0.6086,-0.5803,-0.5847,-0.5887,-0.542,-0.5378,-0.5517,-0.524,-0.5206,-0.5175,-0.5175,-0.5138,-0.5104,-0.5104,-0.5104,-0.5104,-0.5104,-0.4924,0.0,-0.5075,-0.5136,-0.5015,-0.4743,-0.4743,-0.4476,-0.3937,-0.3671,-0.3197,-0.2347,-0.1946,-0.1679,-0.1536,-0.1671,0.0,0.0,0.0,-0.2875,-0.2875,-0.2875,0.0,0.0,0.0,-0.2694,-0.2694,-0.2718,0.0,0.0,-0.2869,-0.2856,0.0,0.0,0.0,0.0,0.0,0.0,0.0,0.0,0.0,0.0,0.0,0.0,0.0,0.0,0.0,0.0,-0.4081,-0.4574,-0.5045,-0.5543,-0.5977,-0.6349,-0.6375,-0.6573,-0.7143,-0.7155,-0.7357,-0.7553,-0.7492,-0.7461,-0.7614,-0.7482,0.0,0.0,0.0,-0.7709,-0.7834,-0.7838,-0.7906,-0.8038,-0.7942,-0.7939,-0.7939,-0.7643,-0.7547,-0.7543,-0.7241,-0.7042,-0.6845,-0.6742,-0.6639,-0.6415,-0.6206,-0.6124,-0.6124,-0.6124,-0.6124,-0.6124,-0.6124,0.0,0.0,-0.6029,-0.6029,-0.5839,-0.5363,-0.5543,-0.5726,-0.4776,-0.4864,-0.5138,-0.4666,-0.4418,-0.4451,-0.4451,-0.4389,-0.433,-0.433,-0.433,-0.433,-0.433,-0.4238,-0.4264,-0.4342,-0.4282,-0.4318,-0.4238,-0.4148,-0.3873,-0.3142,-0.2606,-0.196,-0.122,0.0,0.0,-0.0522,-0.1152,-0.1613,-0.1699,-0.2331,-0.2784,-0.2784,-0.2784,-0.2873,-0.2873,-0.2611,-0.2433,-0.2433,-0.2484,-0.2602,-0.2601,-0.2827,-0.2894,0.0,0.0,0.0,0.0,0.0,0.0,0.0,0.0,0.0,0.0,0.0,0.0,0.0,0.0,0.0,-0.3219,-0.3597,-0.4001,-0.4179,-0.4953,-0.5689,-0.6092,-0.6266,-0.6424,-0.6807,-0.7,-0.7359,-0.7566,-0.7614,-0.7617,-0.7763,-0.7634,-0.7621,-0.7767,-0.7889,-0.7967,-0.7994,-0.7994,-0.8011,-0.8038,-0.7743,0.0,-0.7646,-0.7441,-0.7238,-0.7238,-0.7042,-0.6845,-0.6745,-0.6539,-0.6437,-0.6431,-0.6385,-0.6369,-0.6369,-0.6369,-0.6369,-0.6369,-0.6369,-0.6072,-0.5676,-0.5676,-0.5376,-0.5081,-0.4883,-0.4929,0.0,-0.4673,-0.4624,-0.4666,-0.4571,-0.4462,-0.445,-0.445,-0.4438,-0.4424,-0.4424,-0.4424,-0.4424,-0.4424,-0.4141,-0.3861,-0.3877,-0.4189,-0.4248,-0.3941,-0.3387,-0.2714,-0.2211,-0.1471,-0.073,-0.0,0.0179,0.0178,0.0174,0.0089,-0.0267,-0.0788,-0.16,-0.1974,-0.1974,-0.2334,-0.2603,-0.2603,-0.2373,-0.2301,-0.2301,-0.2255,-0.237,-0.2652,-0.2926,-0.3015,0.0,0.0,0.0,0.0,0.0,0.0,0.0,0.0,0.0,0.0,0.0,-0.2538,-0.2722,0.0,-0.3059,-0.309,-0.3479,-0.3888,-0.3966,-0.467,-0.5344,-0.5781,-0.6118,-0.6451,-0.6747,-0.6904,-0.7141,-0.7341,-0.7349,-0.7356,-0.7617,-0.739,-0.725,-0.7508,-0.7488,-0.743,-0.743,-0.743,-0.743,-0.743,-0.7333,-0.724,-0.724,-0.7012,-0.6941,-0.6947,-0.6714,-0.6639,-0.6539,-0.6437,-0.6437,-0.6437,-0.6437,-0.6437,-0.6437,-0.6437,-0.6437,-0.6437,-0.6437,-0.6034,-0.5636,-0.5636,-0.5236,-0.4734,-0.4433,-0.4602,-0.4668,-0.4074,-0.4049,-0.4215,-0.3924,-0.3798,-0.3769,-0.3769,-0.3839,-0.381,-0.381,-0.381,-0.3715,-0.3236,-0.295,-0.2672,-0.2313,-0.2394,-0.2569,-0.2759,-0.2094,-0.1424,-0.0846,-0.0376,0.0094,0.0834,0.0916,0.0907,0.0987,0.0628,0.0178,-0.0265,-0.0712,-0.0985,-0.1254,-0.1433,-0.1793,-0.2334,-0.2107,-0.2036,-0.2036,-0.2099,-0.2129,-0.2322,-0.2734,-0.3009,0.0,0.0,0.0,0.0,0.0,0.0,0.0,-0.1489,-0.159,-0.1807,-0.2106,-0.2302,-0.249,-0.2787,-0.3004,-0.305,-0.3451,-0.3765,-0.3823,-0.4334,-0.4834,-0.5236,-0.5837,-0.6337,-0.6642,-0.6742,-0.6842,-0.7138,-0.7021,-0.7046,-0.7333,-0.7009,-0.6935,-0.712,-0.6935,-0.6938,-0.6938,-0.6938,-0.6938,-0.6938,-0.6841,-0.6841,-0.6844,-0.6664,-0.6617,-0.6623,-0.6451,-0.6404,-0.6404,-0.6429,-0.6337,-0.6237,-0.6237,-0.6137,-0.6137,-0.6337,-0.6337,-0.6237,-0.6237,-0.5834,-0.5336,-0.5336,-0.4935,-0.4435,-0.3932,-0.4133,-0.4334,-0.343,-0.3531,-0.3732,-0.3331,-0.3194,-0.3157,-0.3157,-0.3023,-0.2891,-0.2891,-0.2795,-0.2408,-0.1733,-0.1637,-0.1451,-0.0786,-0.0591,-0.0784,-0.1447,-0.0963,-0.0193,0.0288,0.0575,0.0862,0.1431,0.1504,0.1582,0.1675,0.1096,0.0721,0.063,0.0448,0.0179,-0.0179,-0.0447,-0.0985,-0.1794,-0.174,-0.1762,-0.1769,-0.1835,-0.1969,-0.1976,-0.2406,-0.2781,-0.009,-0.0091,-0.0092,-0.0184,-0.0561,-0.1042,0.0,-0.1331,-0.1617,-0.1811,-0.1935,-0.2056,-0.2248,-0.2578,-0.281,-0.2816,-0.3119,-0.3323,-0.333,-0.3732,-0.4133,-0.4133,-0.5035,-0.5937,-0.6437,-0.6642,-0.6845,-0.6842,-0.6926,-0.7049,-0.7046,-0.6917,-0.6841,-0.6841,-0.6844,-0.6938,-0.6938,-0.6938,-0.6938,-0.6938,-0.6649,-0.6552,-0.6555,-0.6286,-0.62,-0.6208,-0.6236,-0.6287,-0.6295,-0.6396,-0.6137,-0.5737,-0.5737,-0.5436,-0.5135,-0.6034,-0.6137,-0.5737,-0.5737,-0.5035,-0.4133,-0.4133,-0.3831,-0.3331,-0.3331,-0.3331,-0.3331,-0.323,-0.323,-0.323,-0.323,-0.3226,-0.3219,-0.3219,-0.2611,-0.2105,-0.2105,-0.1603,-0.1002,-0.0902,-0.0902,-0.0902,-0.0804,-0.0201,-0.0,-0.0802,-0.0201,0.0299,0.0392,0.0979,0.1459,0.1529,0.1523,0.171,0.2183,0.2052,0.2213,0.2671,0.199,0.1611,0.1522,0.0269,-0.0448,-0.0628,-0.119,-0.1494,-0.1521,-0.1652,-0.1784,-0.2016,-0.2019,-0.2318,0.0454,-0.0,-0.0,-0.0,-0.019,-0.0574,-0.1161,-0.1456,-0.1558,-0.1674,-0.1887,-0.1998,-0.2096,-0.2409,-0.2623,-0.2725,-0.2927,-0.3027,-0.313,-0.3432,-0.3632,-0.3932,-0.4433,-0.5035,-0.5837,-0.6337,-0.6539,-0.6539,-0.6592,-0.6729,-0.6754,-0.6533,-0.6432,-0.6542,-0.6285,-0.6247,-0.6247,-0.6247,-0.6247,-0.6156,-0.6062,-0.6059,-0.6062,-0.604,-0.6018,-0.6089,-0.614,-0.6067,-0.5784,-0.5828,-0.5555,-0.507,-0.507,-0.4908,-0.4761,-0.5313,-0.5334,-0.5135,-0.5135,-0.4634,-0.4033,-0.4033,-0.3632,-0.323,-0.323,-0.323,-0.323,-0.323,-0.2826,-0.2522,-0.2522,-0.2118,-0.1815,-0.1815,-0.1513,-0.131,-0.131,-0.1008,-0.0706,-0.0202,-0.0101,-0.0,0.0505,0.0909,0.101,0.0606,0.0909,0.1108,0.11,0.1398,0.1685,0.204,0.2326,0.2605,0.2765,0.2743,0.2917,0.3479,0.317,0.2875,0.2596,0.1947,0.1392,0.0836,-0.0095,-0.0673,-0.0581,-0.1286,-0.1705,-0.1819,-0.1921,-0.2122,0.2571,0.1581,0.1129,0.1147,0.1156,0.0971,-0.0099,-0.0593,-0.0993,-0.1511,-0.1718,-0.1921,-0.1921,-0.2121,-0.2322,-0.2524,-0.2725,-0.2826,-0.3029,-0.313,-0.3331,-0.3732,-0.3932,-0.4334,-0.5033,-0.5634,-0.6037,-0.6137,-0.6137,-0.6299,-0.651,-0.6263,-0.6139,-0.6239,-0.5902,-0.5733,-0.5733,-0.5733,-0.5733,-0.5733,-0.5733,-0.5733,-0.5735,-0.5817,-0.5812,-0.58,-0.5834,-0.5568,-0.5195,-0.5223,-0.495,-0.4478,-0.4502,-0.4357,-0.4221,-0.4303,-0.4433,-0.4533,-0.4533,-0.4234,-0.3732,-0.3732,-0.3531,-0.323,-0.323,-0.323,-0.313,-0.2927,-0.2422,-0.1917,-0.1714,-0.121,-0.0806,-0.0806,-0.0605,-0.0504,-0.0504,-0.0303,0.0101,0.0808,0.0909,0.1212,0.1919,0.202,0.202,0.202,0.202,0.202,0.1818,0.1919,0.221,0.2574,0.2966,0.3245,0.3296,0.3372,0.3553,0.4126,0.4106,0.3901,0.352,0.3232,0.2757,0.2092,0.0772,-0.0,-0.0,-0.1094,-0.1609,-0.1617,-0.1819,-0.1921,0.704,0.5705,0.3905,0.3907,0.4063,0.4019,0.3221,0.2014,0.0504,-0.1212,-0.1617,-0.1617,-0.1617,-0.1819,-0.2022,-0.2022,-0.2424,-0.2826,-0.2826,-0.3029,-0.323,-0.323,-0.3732,-0.4033,-0.4033,-0.4533,-0.5035,-0.5534,-0.5636,-0.5834,-0.6331,-0.6211,-0.6083,-0.6081,-0.5855,-0.5733,-0.5733,-0.5733,-0.5733,-0.5733,-0.5733,-0.5733,-0.5733,-0.5738,-0.5468,-0.5025,-0.5129,-0.4991,-0.4539,-0.4631,-0.4381,-0.3908,-0.3888,-0.3625,-0.3147,-0.3207,-0.3531,-0.4033,-0.4033,-0.3632,-0.323,-0.323,-0.323,-0.323,-0.323,-0.323,-0.3029,-0.2219,-0.2017,-0.1815,-0.1008,-0.0806,-0.0806,-0.0806,-0.0202,0.0404,0.0404,0.101,0.1717,0.222,0.232,0.2522,0.3029,0.313,0.313,0.313,0.313,0.2927,0.2422,0.2826,0.3128,0.3127,0.3228,0.3428,0.3925,0.3958,0.4112,0.4606,0.4622,0.4571,0.4571,0.3615,0.3042,0.3042,0.1142,0.0096,-0.0,-0.108,-0.1588,-0.1617,-0.1617,-0.1617,0.7612,0.7108,0.6477,0.6575,0.6731,0.6458,0.5548,0.4232,0.3021,0.2116,0.1008,0.0101,-0.0202,-0.1111,-0.1819,-0.2022,-0.2122,-0.2424,-0.2725,-0.2927,-0.3027,-0.313,-0.3331,-0.3432,-0.3432,-0.4234,-0.4834,-0.5035,-0.5436,-0.5634,-0.5837,-0.6095,-0.6075,-0.5616,-0.547,-0.5177,-0.4748,-0.4748,-0.4748,-0.4748,-0.4748,-0.4748,-0.4748,-0.4748,-0.4656,-0.4567,-0.46,-0.4344,-0.3899,-0.3926,-0.369,-0.3269,-0.3293,-0.326,-0.3142,-0.3162,-0.3295,-0.3432,-0.3432,-0.3331,-0.323,-0.323,-0.323,-0.323,-0.323,-0.323,-0.313,-0.2826,-0.2017,-0.1109,-0.0403,0.0504,0.1412,0.1815,0.2018,0.2221,0.2221,0.2423,0.2726,0.2927,0.2927,0.3027,0.313,0.323,0.3331,0.3632,0.343,0.313,0.2927,0.343,0.3732,0.3732,0.4033,0.4334,0.4535,0.4506,0.4591,0.4792,0.4763,0.4747,0.4747,0.4447,0.4248,0.4248,0.2865,0.2181,0.2095,0.0999,0.0501,0.0504,-0.0202,-0.0504,0.8121,0.8079,0.8122,0.8141,0.8072,0.7772,0.7169,0.6047,0.5133,0.4841,0.3426,0.2116,0.1713,0.0605,-0.0504,-0.1009,-0.1312,-0.1615,-0.212,-0.2523,-0.2826,-0.2725,-0.3029,-0.323,-0.323,-0.3831,-0.4334,-0.4533,-0.4834,-0.5135,-0.5336,-0.5539,-0.555,-0.5193,-0.4964,-0.4771,-0.4349,-0.4316,-0.43,-0.43,-0.43,-0.43,-0.43,-0.4332,-0.4258,-0.4078,-0.4078,-0.3807,-0.3353,-0.3329,-0.3178,-0.2961,-0.2982,-0.3052,-0.3142,-0.3164,-0.3196,-0.323,-0.323,-0.323,-0.323,-0.323,-0.323,-0.323,-0.323,-0.323,-0.313,-0.2826,-0.1815,-0.0605,-0.0,0.1311,0.2522,0.2826,0.3029,0.323,0.323,0.323,0.323,0.343,0.3531,0.3531,0.3732,0.3732,0.3932,0.4234,0.4033,0.3732,0.3732,0.4033,0.4332,0.4332,0.4634,0.4834,0.4834,0.4834,0.4834,0.4834,0.4834,0.4834,0.4834,0.4834,0.4834,0.4834,0.3728,0.3224,0.3224,0.2116,0.1613,0.1613,0.0907,0.0605,0.8641,0.8706,0.8726,0.8531,0.8233,0.8045,0.7965,0.7459,0.6951,0.6561,0.5343,0.4329,0.393,0.282,0.1711,0.0605,-0.0,-0.0504,-0.101,-0.2019,-0.2422,-0.1917,-0.2623,-0.3029,-0.3029,-0.3029,-0.333,-0.3831,-0.3932,-0.4234,-0.4734,-0.4753,-0.4704,-0.47,-0.4442,-0.4354,-0.435,-0.4264,-0.4222,-0.4222,-0.4222,-0.4222,-0.4226,-0.431,-0.4073,-0.3613,-0.3613,-0.3335,-0.2866,-0.2814,-0.2826,-0.2973,-0.2935,-0.2994,-0.3151,-0.3108,-0.313,-0.313,-0.3029,-0.313,-0.323,-0.323,-0.323,-0.323,-0.313,-0.313,-0.2927,-0.2118,-0.131,-0.0504,0.0303,0.1514,0.2521,0.2521,0.2927,0.3331,0.3331,0.3331,0.343,0.3932,0.4033,0.4234,0.4734,0.4834,0.4834,0.4834,0.4834,0.4834,0.4834,0.4834,0.4834,0.4834,0.4834,0.4834,0.4834,0.4834,0.4834,0.4834,0.4834,0.4834,0.4834,0.4834,0.4834,0.4834,0.3827,0.3324,0.3324,0.2217,0.1714,0.1714,0.1714,0.1713,0.8929,0.9002,0.9031,0.8726,0.8627,0.8531,0.8045,0.7846,0.764,0.7144,0.6345,0.5639,0.4728,0.3623,0.2619,0.1711,0.131,0.1008,0.0604,-0.0,-0.0403,-0.0504,-0.1008,-0.1412,-0.1412,-0.1412,-0.1512,-0.1613,-0.3124,-0.4033,-0.4234,-0.4614,-0.4571,-0.4116,-0.4076,-0.3837,-0.3403,-0.3387,-0.3377,-0.3377,-0.3377,-0.3377,-0.3377,-0.3396,-0.3025,-0.2268,-0.2268,-0.189,-0.1229,-0.1223,-0.1614,-0.2126,-0.1553,-0.2068,-0.3008,-0.1812,-0.1815,-0.2118,-0.121,-0.1815,-0.323,-0.323,-0.323,-0.3027,-0.2017,-0.1714,-0.1411,-0.0302,0.0704,0.1409,0.2015,0.2923,0.3729,0.4131,0.4332,0.4433,0.4433,0.4433,0.4435,0.4533,0.4634,0.4634,0.4734,0.4834,0.4834,0.4834,0.4834,0.4834,0.4834,0.4834,0.4834,0.4834,0.4834,0.4834,0.4834,0.4834,0.4834,0.4834,0.4834,0.4834,0.4834,0.4834,0.4834,0.4834,0.4533,0.4431,0.4431,0.413,0.4029,0.3927,0.3123,0.2821,0.9235,0.9355,0.9331,0.9031,0.8928,0.8726,0.8233,0.8038,0.7839,0.7441,0.7045,0.6542,0.5832,0.5031,0.4128,0.3019,0.2619,0.2318,0.1813,0.1209,0.0705,0.0504,-0.0101,-0.0504,-0.0806,-0.0806,-0.0806,-0.0806,-0.1915,-0.262,-0.262,-0.292,-0.2907,-0.258,-0.2558,-0.233,-0.2001,-0.2001,-0.2191,-0.2571,-0.2191,-0.2191,-0.2477,-0.221,-0.1735,-0.135,-0.135,-0.1061,-0.0675,-0.0574,-0.0867,-0.1372,-0.0882,-0.1289,-0.2017,-0.1109,-0.1109,-0.131,-0.0302,-0.0806,-0.1714,-0.1511,-0.1411,-0.1309,-0.0504,-0.0302,-0.0201,0.0604,0.1408,0.2114,0.2415,0.3224,0.4033,0.4332,0.4634,0.4834,0.4834,0.4834,0.4834,0.4834,0.4834,0.4834,0.4834,0.4834,0.4834,0.4834,0.4834,0.4834,0.4834,0.4834,0.4834,0.4834,0.4834,0.4834,0.4834,0.4834,0.4834,0.4834,0.4834,0.4834,0.4834,0.4834,0.4834,0.4834,0.4834,0.4834,0.4834,0.4834,0.4834,0.4834,0.423,0.3929,0.9575,0.9628,0.9529,0.9331,0.9031,0.8829,0.8531,0.8237,0.7942,0.7743,0.7441,0.7138,0.6942,0.6342,0.5639,0.4427,0.4028,0.3528,0.2823,0.2014,0.151,0.1512,0.0806,0.0101,-0.0403,-0.0504,-0.0504,-0.0504,-0.0504,-0.0605,-0.0806,-0.0806,-0.0806,-0.0806,-0.0694,-0.0683,-0.0673,-0.0673,-0.096,-0.1631,-0.096,-0.096,-0.1632,-0.0976,-0.0688,-0.059,-0.059,-0.0492,-0.0393,-0.029,-0.0388,-0.059,-0.0394,-0.0497,-0.0706,-0.0504,-0.0403,-0.0302,0.0302,0.0504,0.0605,0.0704,0.0805,0.0805,0.1006,0.1107,0.1107,0.1308,0.1811,0.2415,0.2415,0.3224,0.4133,0.4133,0.4433,0.4834,0.4834,0.4834,0.4834,0.4834,0.4834,0.4834,0.4834,0.4834,0.4834,0.4834,0.4834,0.4834,0.4834,0.4834,0.4834,0.4834,0.4834,0.4834,0.4834,0.4834,0.4834,0.4834,0.4834,0.4834,0.4834,0.4834,0.4834,0.4834,0.4834,0.4834,0.4834,0.4834,0.4834,0.4834,0.4834,0.4834,0.9575,0.9628,0.9628,0.9529,0.9331,0.9031,0.8825,0.8531,0.8237,0.7939,0.7537,0.7138,0.7138,0.6542,0.5839,0.5434,0.5135,0.4836,0.4433,0.3929,0.3327,0.2927,0.232,0.1816,0.1212,0.1212,0.1212,0.1212,0.1212,0.0606,-0.0706,-0.0806,-0.0806,-0.0806,-0.0804,-0.0801,-0.0799,-0.0799,-0.0799,-0.0998,-0.0799,-0.0799,-0.0998,-0.0801,-0.0401,0.0201,0.0201,0.0603,0.1206,0.1202,0.0802,0.0301,0.0905,0.0604,-0.0,0.131,0.1713,0.1711,0.2922,0.3325,0.3022,0.1308,0.0805,0.1006,0.2114,0.2416,0.2718,0.3825,0.4228,0.4331,0.4331,0.4531,0.4634,0.4634,0.4734,0.4834,0.4834,0.4834,0.4834,0.4834,0.4834,0.4834,0.4834,0.4834,0.4834,0.4834,0.4834,0.4834,0.4834,0.4834,0.4834,0.4834,0.4834,0.4834,0.4834,0.4834,0.4834,0.4834,0.4834,0.4834,0.4834,0.4834,0.4937,0.514,0.514,0.514,0.514,0.514,0.5037,0.4834,0.4834,0.4834,0.9406,0.9529,0.9529,0.943,0.9232,0.8928,0.8627,0.8432,0.8137,0.7842,0.7483,0.7153,0.7027,0.6391,0.5872,0.5627,0.5338,0.514,0.4834,0.4334,0.3831,0.323,0.2725,0.2221,0.1617,0.1617,0.1617,0.1617,0.1617,0.1313,0.0504,0.0404,0.0404,0.0404,0.0404,0.0404,0.0404,0.0404,0.0202,-0.0202,0.0202,0.0202,-0.0202,0.0303,0.0707,0.101,0.101,0.1212,0.1617,0.1919,0.1817,0.1514,0.2222,0.2119,0.1714,0.2522,0.2724,0.2722,0.3729,0.4033,0.383,0.312,0.2917,0.3019,0.3624,0.3827,0.3927,0.4634,0.4834,0.4834,0.4834,0.4834,0.4834,0.4834,0.4834,0.4834,0.4834,0.4834,0.4834,0.4834,0.4834,0.4834,0.4834,0.4834,0.4834,0.4834,0.4834,0.4834,0.4834,0.4834,0.4834,0.4834,0.4834,0.4834,0.4834,0.4834,0.4834,0.5037,0.5037,0.5035,0.5236,0.5236,0.5236,0.5438,0.5438,0.5438,0.5438,0.5438,0.5336,0.5236,0.5236,0.5236,0.9122,0.9229,0.9426,0.9133,0.8928,0.8627,0.8432,0.8209,0.7892,0.7601,0.7287,0.693,0.6744,0.6309,0.5804,0.5591,0.5325,0.5039,0.4634,0.4234,0.3731,0.3128,0.2623,0.2221,0.1617,0.1617,0.1617,0.1617,0.1617,0.1617,0.1617,0.1617,0.1617,0.1617,0.1617,0.1617,0.1617,0.1617,0.1313,0.0707,0.1313,0.1313,0.0707,0.1314,0.1617,0.1617,0.1617,0.1617,0.1617,0.2019,0.2321,0.2422,0.2826,0.3128,0.3331,0.3331,0.343,0.3632,0.4033,0.4133,0.4234,0.4634,0.4834,0.4834,0.4834,0.4834,0.4834,0.4834,0.4834,0.4834,0.4834,0.4834,0.4834,0.4834,0.4834,0.4834,0.4834,0.4834,0.4834,0.4834,0.4834,0.4834,0.4834,0.4834,0.4834,0.4834,0.4834,0.4834,0.4834,0.4834,0.4935,0.4935,0.4834,0.4834,0.4834,0.4935,0.5037,0.524,0.524,0.5338,0.5634,0.5636,0.5636,0.5636,0.5636,0.5636,0.5636,0.5636,0.5636,0.5636,0.5636,0.5636,0.8788,0.8825,0.8825,0.8825,0.863,0.8432,0.8432,0.8126,0.7738,0.7547,0.7145,0.6768,0.6584,0.6195,0.5779,0.5598,0.5383,0.4939,0.4133,0.4033,0.363,0.2623,0.2422,0.2221,0.1617,0.1617,0.1617,0.1617,0.1617,0.1617,0.1617,0.1617,0.1617,0.1617,0.1617,0.1617,0.1617,0.1617,0.1516,0.1516,0.1516,0.1516,0.1516,0.1516,0.1617,0.1617,0.1617,0.1617,0.1617,0.1617,0.1918,0.2422,0.2422,0.3026,0.3932,0.3932,0.4234,0.4634,0.4734,0.4734,0.4734,0.4734,0.4834,0.4834,0.4834,0.4834,0.4834,0.4834,0.4834,0.4834,0.4834,0.4834,0.4834,0.4834,0.4834,0.4834,0.4834,0.4834,0.4834,0.4834,0.4834,0.4834,0.4834,0.4834,0.4834,0.4834,0.4834,0.4834,0.4834,0.5037,0.514,0.514,0.4937,0.4937,0.514,0.514,0.5238,0.5536,0.5536,0.5536,0.5634,0.5636,0.5737,0.5942,0.5942,0.5942,0.5942,0.5942,0.5839,0.5636,0.5636,0.5636,0.8448,0.8589,0.8706,0.8605,0.8463,0.8199,0.8098,0.7883,0.759,0.7206,0.6907,0.6557,0.6067,0.5682,0.5431,0.5271,0.5031,0.4678,0.4126,0.3732,0.3229,0.2522,0.212,0.1818,0.1617,0.1617,0.1617,0.1617,0.1617,0.1617,0.1617,0.1617,0.1617,0.1617,0.1617,0.1617,0.1617,0.1617,0.1617,0.1617,0.1617,0.1617,0.1617,0.1617,0.1617,0.1617,0.1919,0.212,0.212,0.2826,0.3127,0.3429,0.3729,0.4131,0.4433,0.4433,0.4634,0.4834,0.4834,0.4834,0.4834,0.4834,0.4834,0.4834,0.4834,0.4834,0.4834,0.4834,0.4834,0.4834,0.4834,0.4834,0.4834,0.4834,0.4834,0.4834,0.4834,0.4834,0.4834,0.4834,0.4834,0.4834,0.4834,0.4937,0.5037,0.5037,0.5138,0.5236,0.5236,0.5336,0.5438,0.5438,0.5336,0.5336,0.5438,0.5438,0.5539,0.5839,0.5839,0.5937,0.6037,0.6037,0.6137,0.6239,0.6239,0.6239,0.6239,0.6239,0.6137,0.6037,0.6037,0.6037,0.7907,0.8137,0.8158,0.8174,0.8021,0.7849,0.765,0.7445,0.725,0.6783,0.6489,0.6147,0.5305,0.4822,0.4471,0.0,0.0,0.3841,0.3293,0.3016,0.2725,0.2221,0.1818,0.1516,0.1415,0.1516,0.1617,0.1617,0.1609,0.1604,0.1604,0.1595,0.1598,0.1616,0.1617,0.1617,0.1617,0.1617,0.1617,0.1617,0.1617,0.1617,0.1617,0.1617,0.1617,0.1617,0.212,0.2422,0.2422,0.3429,0.3833,0.4033,0.4435,0.4634,0.4834,0.4834,0.4834,0.4834,0.4834,0.4834,0.4834,0.4834,0.4834,0.4834,0.4834,0.4834,0.4834,0.4834,0.4834,0.4834,0.4834,0.4834,0.4834,0.4834,0.4834,0.4834,0.4937,0.4937,0.4935,0.5035,0.5035,0.5035,0.5035,0.5238,0.5338,0.5338,0.5436,0.5636,0.5636,0.5636,0.5737,0.5737,0.5837,0.5837,0.5737,0.5737,0.5837,0.6139,0.6139,0.6239,0.6437,0.6437,0.6437,0.6437,0.6437,0.6437,0.6437,0.6437,0.6437,0.6437,0.6437,0.6437,0.7276,0.7409,0.7308,0.7506,0.7409,0.7214,0.7214,0.6919,0.6642,0.6371,0.5992,0.5364,0.4109,0.3638,0.3043,0.1844,0.2101,0.2255,0.147,0.1994,0.222,0.1718,0.1617,0.1415,0.0909,0.1313,0.1617,0.1617,0.1589,0.1572,0.1572,0.1543,0.1555,0.1615,0.1617,0.1617,0.1617,0.1617,0.1617,0.1617,0.1617,0.1617,0.1617,0.1617,0.1617,0.1617,0.212,0.2422,0.2422,0.3027,0.3531,0.4033,0.4033,0.4334,0.4834,0.4834,0.4834,0.4834,0.4834,0.4834,0.4834,0.4834,0.4834,0.4834,0.4834,0.4834,0.4834,0.4834,0.4834,0.4834,0.4834,0.4834,0.4834,0.4834,0.4834,0.4834,0.514,0.524,0.524,0.5536,0.5634,0.5634,0.5634,0.5634,0.5634,0.5634,0.5634,0.5636,0.5636,0.5839,0.6042,0.6042,0.6239,0.6237,0.6042,0.6042,0.6139,0.6337,0.6437,0.6437,0.6437,0.6437,0.6437,0.6437,0.6437,0.6437,0.6437,0.6437,0.6437,0.6437,0.6437,0.6437,0.6578,0.6703,0.6907,0.7101,0.6957,0.6793,0.6611,0.6418,0.6143,0.5784,0.5576,0.5188,0.4115,0.3778,0.345,0.2671,0.274,0.2511,0.1369,0.1994,0.2119,0.0707,0.0808,0.0808,0.0303,0.0699,0.1189,0.1585,0.1558,0.154,0.154,0.1531,0.1535,0.1554,0.1555,0.1555,0.1555,0.1575,0.1585,0.1586,0.1607,0.1617,0.1617,0.1617,0.1818,0.2221,0.2725,0.3127,0.353,0.4031,0.4433,0.4533,0.4533,0.4634,0.4834,0.4834,0.4834,0.4834,0.4834,0.4834,0.4834,0.4834,0.4834,0.4834,0.4834,0.4834,0.4834,0.4834,0.4834,0.4834,0.4834,0.4834,0.4834,0.5037,0.5037,0.5138,0.5436,0.5436,0.5536,0.5534,0.5636,0.5636,0.5636,0.5737,0.5839,0.5839,0.6037,0.6137,0.6137,0.6237,0.6237,0.6237,0.6337,0.6337,0.6237,0.6237,0.6337,0.6437,0.6437,0.6437,0.6437,0.6437,0.6437,0.6437,0.6437,0.6437,0.6437,0.6437,0.6437,0.6437,0.6437,0.6437,0.4901,0.5008,0.5115,0.5363,0.5514,0.5463,0.5013,0.5053,0.5008,0.4291,0.4204,0.4028,0.3041,0.2864,0.2698,0.1823,0.1871,0.1722,0.0871,0.1092,0.1211,0.0707,0.0505,0.0403,-0.0,0.0297,0.0685,0.0971,0.1144,0.132,0.1509,0.1498,0.1492,0.1492,0.1514,0.1526,0.1526,0.1545,0.1554,0.1555,0.1585,0.16,0.16,0.1611,0.1918,0.2422,0.2927,0.3531,0.0,0.4533,0.4834,0.4834,0.4834,0.4834,0.4834,0.4834,0.4834,0.4834,0.4834,0.4834,0.4834,0.4834,0.4834,0.4834,0.4834,0.4834,0.4834,0.4834,0.4834,0.4937,0.4937,0.5035,0.5135,0.5338,0.5338,0.5438,0.5739,0.5737,0.5737,0.5837,0.5934,0.5934,0.5934,0.6037,0.6139,0.6139,0.6339,0.6437,0.6437,0.6437,0.6437,0.6437,0.6437,0.6437,0.6437,0.6437,0.6437,0.6437,0.6437,0.6437,0.6437,0.6437,0.6437,0.6437,0.6437,0.6437,0.6437,0.6437,0.6437,0.6437,0.6437,0.6437,0.0,0.2499,0.2502,0.2765,0.3301,0.3571,0.268,0.295,0.0,0.2234,0.2236,0.2149,0.1163,0.1165,0.0896,-0.0269,-0.0,0.0286,-0.0095,-0.069,-0.0505,0.101,0.0303,-0.02,-0.0197,-0.0098,-0.0,-0.0,0.0467,0.0923,0.1385,0.136,0.1436,0.1436,0.149,0.152,0.152,0.1522,0.1523,0.1523,0.1553,0.1568,0.1569,0.16,0.1915,0.2517,0.3026,0.3531,0.4133,0.4634,0.4834,0.4834,0.4834,0.4834,0.4834,0.4834,0.4834,0.4834,0.4834,0.4834,0.4834,0.4834,0.4834,0.4834,0.4834,0.4834,0.4834,0.4834,0.5037,0.524,0.524,0.5438,0.5636,0.5636,0.5636,0.5737,0.5939,0.6042,0.6139,0.6337,0.6437,0.6437,0.6437,0.6437,0.6437,0.6437,0.6437,0.6437,0.6437,0.6437,0.6437,0.6437,0.6437,0.6437,0.6437,0.6437,0.6437,0.6437,0.6437,0.6437,0.6437,0.6437,0.6437,0.6437,0.6437,0.6437,0.6437,0.6437,0.6437,0.6437,0.6437,0.6437,-0.1075,0.0,0.2233,0.2232,0.2411,0.2411,0.0,0.0,0.0,0.1431,0.1342,0.1163,0.0447,-0.0,-0.0447,-0.1074,-0.0834,-0.1142,-0.2755,-0.3044,-0.3015,-0.2712,-0.268,-0.2654,-0.2249,-0.0857,-0.0,-0.0,0.0091,0.0271,0.0361,0.0989,0.1436,0.1436,0.1449,0.1457,0.1457,0.148,0.1491,0.1492,0.1522,0.1537,0.1538,0.1959,0.2469,0.3065,0.3609,0.4133,0.4634,0.4734,0.4834,0.4834,0.4834,0.4834,0.4834,0.4834,0.4834,0.4834,0.4834,0.4834,0.4834,0.4834,0.4834,0.4834,0.5037,0.4937,0.4834,0.4834,0.5037,0.524,0.524,0.5438,0.5636,0.5839,0.5939,0.5939,0.6237,0.6337,0.6337,0.6437,0.6437,0.6437,0.6437,0.6437,0.6437,0.6437,0.6437,0.6437,0.6437,0.6437,0.6437,0.6437,0.6437,0.6437,0.6437,0.6437,0.6437,0.6437,0.6437,0.6437,0.6437,0.6437,0.6437,0.6437,0.6437,0.6437,0.6437,0.6437,0.6437,0.6437,0.6437,0.6437,-0.2243,-0.1075,0.0089,0.0089,0.0447,0.0625,0.009,0.0,0.0,-0.0269,-0.0358,-0.0447,-0.0895,-0.1163,-0.143,-0.1698,-0.1838,-0.2549,-0.4138,-0.4224,-0.4579,-0.5579,-0.5489,-0.5211,-0.4581,-0.3367,-0.193,-0.0091,-0.0,-0.0,-0.0,0.0897,0.1345,0.1256,0.1345,0.1436,0.1436,0.1452,0.1459,0.146,0.1491,0.1505,0.1506,0.2016,0.2615,0.3101,0.3751,0.4279,0.4779,0.4818,0.4834,0.4834,0.4834,0.4834,0.4834,0.4834,0.4834,0.4834,0.4834,0.4834,0.4834,0.4937,0.4937,0.5037,0.5338,0.5236,0.5133,0.5133,0.5338,0.5541,0.5541,0.5739,0.6037,0.6139,0.6139,0.6239,0.6337,0.6437,0.6437,0.6437,0.6437,0.6437,0.6437,0.6437,0.6437,0.6437,0.6437,0.6437,0.6437,0.6437,0.6437,0.6437,0.6437,0.6437,0.6437,0.6437,0.6437,0.6437,0.6437,0.6437,0.6437,0.6437,0.6437,0.6437,0.6437,0.6437,0.6437,0.6437,0.6437,0.6437,0.6437,0.6467,-0.2512,-0.2512,-0.2512,-0.2243,-0.1613,-0.1253,-0.2063,0.0,0.0,0.0,-0.233,-0.2417,-0.2417,-0.2504,-0.25,-0.25,-0.3273,-0.4115,-0.5061,-0.5092,-0.5784,-0.7368,-0.7538,-0.7295,-0.6593,-0.6096,-0.4385,-0.1076,-0.0358,-0.0,-0.0,0.0897,0.1256,0.0987,0.1256,0.1436,0.1436,0.1436,0.1436,0.1436,0.1461,0.1566,0.1659,0.207,0.2563,0.3133,0.3774,0.0,0.4714,0.4785,0.4822,0.4834,0.4834,0.4834,0.4834,0.4834,0.4834,0.4834,0.4834,0.4834,0.4937,0.514,0.524,0.5338,0.5536,0.5636,0.5636,0.5737,0.5839,0.6042,0.6042,0.6239,0.6437,0.6437,0.6437,0.6437,0.6437,0.6437,0.6437,0.6437,0.6437,0.6437,0.6437,0.6437,0.6437,0.6437,0.6437,0.6437,0.6437,0.6437,0.6437,0.6437,0.6437,0.6437,0.6437,0.6437,0.6437,0.6437,0.6437,0.6437,0.6437,0.6437,0.6437,0.6437,0.6437,0.6437,0.6437,0.6453,0.6464,0.6464,0.6483,0.6548,-0.3941,-0.3941,-0.3674,-0.2512,-0.242,-0.2509,-0.2242,-0.2688,-0.3132,0.0,-0.3314,-0.3671,-0.3941,-0.4295,-0.4561,-0.4561,-0.5458,-0.6325,-0.6582,-0.6979,-0.7263,-0.7553,-0.7512,-0.7319,-0.6926,-0.6454,-0.5749,-0.4924,-0.179,-0.0,-0.0,0.0897,0.1166,0.0718,0.1166,0.1436,0.1436,0.1436,0.1436,0.1436,0.144,0.1623,0.2076,0.267,0.3158,0.3628,0.0,0.454,0.471,0.4722,0.4771,0.4834,0.4834,0.4834,0.4834,0.4834,0.4834,0.4834,0.4834,0.4937,0.514,0.514,0.5338,0.5636,0.5839,0.5942,0.5939,0.6237,0.6139,0.6042,0.6042,0.6239,0.6437,0.6437,0.6437,0.6437,0.6437,0.6437,0.6437,0.6437,0.6437,0.6437,0.6437,0.6437,0.6437,0.6437,0.6437,0.6437,0.6437,0.6437,0.6437,0.6437,0.6437,0.6437,0.6437,0.6437,0.6437,0.6437,0.6437,0.6437,0.6437,0.6437,0.6437,0.6437,0.6437,0.6437,0.6437,0.654,0.6592,0.6594,0.6698,0.6755,-0.43,-0.43,-0.4119,-0.3496,-0.3494,-0.3583,-0.3405,-0.3673,-0.3939,-0.3851,-0.4206,-0.4563,-0.4654,-0.5102,-0.546,-0.5547,-0.5822,-0.6012,-0.6166,-0.5983,-0.598,-0.6542,-0.6518,-0.6526,-0.6619,-0.6471,-0.6171,-0.5738,-0.4036,-0.2152,-0.009,0.0897,0.1345,0.1076,0.1256,0.1436,0.1436,0.1436,0.1436,0.1436,0.1705,0.1974,0.2244,0.299,0.3456,0.3643,0.0,0.4522,0.4565,0.4614,0.4687,0.4767,0.4767,0.4794,0.4834,0.4834,0.4834,0.4834,0.4937,0.514,0.524,0.5541,0.5741,0.5839,0.6139,0.6239,0.6239,0.6337,0.6337,0.6239,0.6239,0.6337,0.6437,0.6437,0.6437,0.6437,0.6437,0.6437,0.6437,0.6437,0.6437,0.6437,0.6437,0.6437,0.6437,0.6437,0.6437,0.6461,0.6526,0.6535,0.6535,0.6535,0.6535,0.6507,0.6442,0.6437,0.6437,0.6437,0.6437,0.6437,0.6437,0.6437,0.6437,0.6437,0.6502,0.6535,0.6535,0.666,0.6717,0.6719,0.6777,0.6836,-0.4656,-0.4743,-0.4743,-0.4746,-0.4565,-0.4476,-0.4387,-0.4565,-0.4743,-0.4654,-0.501,-0.5364,-0.5364,-0.5636,-0.5908,-0.6169,-0.5888,-0.5764,-0.5764,-0.5304,-0.5213,-0.604,-0.6045,-0.6163,-0.6432,-0.6432,-0.626,-0.583,-0.5754,-0.422,-0.0896,0.0538,0.1256,0.1436,0.1436,0.1436,0.1436,0.1436,0.1436,0.1436,0.1974,0.2243,0.2422,0.3229,0.3676,0.3769,0.4191,0.4416,0.444,0.4512,0.4606,0.4708,0.4708,0.4761,0.4834,0.4834,0.4834,0.4937,0.514,0.524,0.5441,0.5842,0.6042,0.6139,0.6337,0.6437,0.6437,0.6437,0.6437,0.6437,0.6437,0.6437,0.6437,0.6437,0.6437,0.6437,0.6437,0.6437,0.6437,0.6437,0.6437,0.6445,0.6475,0.6478,0.6488,0.6518,0.6521,0.6556,0.6649,0.6662,0.6662,0.6662,0.6662,0.6624,0.6529,0.6521,0.6521,0.6521,0.6494,0.6491,0.6521,0.6521,0.6521,0.6521,0.6613,0.6763,0.6763,0.6992,0.7054,0.7054,0.7085,0.7149,-0.5644,-0.5905,-0.6166,-0.5991,-0.5458,-0.4919,-0.4739,-0.5366,-0.5902,-0.563,-0.5985,-0.634,-0.634,-0.634,-0.6343,-0.6343,-0.6532,-0.6719,-0.6719,-0.6802,-0.6887,-0.6979,-0.6969,-0.6966,-0.6792,-0.6523,-0.6343,-0.6086,-0.5838,-0.4853,-0.2778,-0.0538,0.0987,0.1346,0.1436,0.1436,0.1436,0.1436,0.1436,0.1436,0.1974,0.2422,0.2868,0.3406,0.3855,0.421,0.4306,0.4357,0.4434,0.4442,0.4549,0.4708,0.4708,0.4761,0.4834,0.4834,0.4937,0.514,0.524,0.5541,0.5942,0.5942,0.6139,0.6337,0.6437,0.6437,0.6437,0.6437,0.6437,0.6437,0.6437,0.6437,0.6437,0.6437,0.6437,0.6437,0.6437,0.6437,0.6437,0.6437,0.6437,0.6472,0.6586,0.6605,0.6643,0.6757,0.6777,0.6779,0.6787,0.679,0.679,0.679,0.679,0.6785,0.6777,0.6777,0.6777,0.6777,0.6668,0.6657,0.6771,0.6777,0.6777,0.6777,0.699,0.7203,0.7206,0.7654,0.7828,0.7831,0.7847,0.791,-0.5997,-0.6169,-0.6343,-0.6343,-0.6077,0.0,0.0,-0.6077,-0.6254,-0.6166,-0.6251,-0.6428,-0.6428,-0.652,-0.6612,-0.6612,-0.6877,-0.6966,-0.6966,-0.7054,-0.7054,-0.6969,-0.6881,-0.6792,-0.6438,-0.6257,-0.6083,-0.5908,-0.5749,-0.4578,-0.2146,-0.0269,0.0897,0.1346,0.1436,0.1436,0.1436,0.1436,0.1525,0.1885,0.2422,0.2689,0.2957,0.3674,0.4121,0.43,0.43,0.4318,0.4351,0.4351,0.4424,0.4551,0.4665,0.4761,0.4834,0.4834,0.4937,0.524,0.5438,0.5739,0.6042,0.6239,0.6337,0.6437,0.6437,0.6437,0.6437,0.6437,0.6437,0.6437,0.6437,0.6437,0.6437,0.6437,0.6437,0.6437,0.6437,0.6437,0.6437,0.6437,0.6499,0.6564,0.6611,0.6681,0.6749,0.6796,0.6801,0.6831,0.6907,0.6915,0.6915,0.6915,0.6847,0.6907,0.7009,0.7009,0.7149,0.744,0.7115,0.6959,0.7006,0.7226,0.7334,0.7334,0.7511,0.766,0.766,0.7901,0.7968,0.7968,0.802,0.8045,-0.626,-0.6432,-0.6609,-0.652,0.0,0.0,-0.6609,-0.6609,-0.652,-0.6609,-0.6609,-0.6596,-0.6555,-0.676,-0.6881,-0.6881,-0.7054,-0.7139,-0.7139,-0.7054,-0.6966,-0.6792,-0.6704,-0.6526,-0.6171,-0.6083,-0.5997,-0.5733,-0.5203,-0.3942,-0.1518,0.009,0.1076,0.1346,0.1436,0.1436,0.1436,0.1436,0.1705,0.2243,0.2689,0.2957,0.3136,0.3941,0.43,0.43,0.43,0.43,0.43,0.43,0.4353,0.4453,0.4636,0.4745,0.4798,0.4926,0.5138,0.5338,0.5639,0.5939,0.6139,0.6337,0.6437,0.6437,0.6437,0.6437,0.6437,0.6437,0.6437,0.6437,0.6437,0.6437,0.6437,0.6437,0.6437,0.6437,0.6437,0.6437,0.6448,0.6486,0.6562,0.6643,0.6722,0.6804,0.6872,0.6907,0.6912,0.6942,0.7027,0.7037,0.7037,0.7037,0.7075,0.713,0.7341,0.7446,0.7591,0.7901,0.7711,0.7553,0.7446,0.7666,0.7776,0.7776,0.797,0.8122,0.8122,0.8222,0.8269,0.8269,0.8269,0.8269,-0.6432,-0.6786,-0.7054,-0.6881,0.0,0.0,-0.7139,-0.6966,-0.6881,-0.7051,-0.7139,-0.7095,-0.6956,-0.7044,-0.7139,-0.7139,-0.7139,-0.7139,-0.7139,-0.6969,-0.6795,-0.6795,-0.6523,-0.6343,-0.6083,-0.6083,-0.5997,-0.5733,-0.4204,-0.2771,-0.1428,0.0358,0.1436,0.1436,0.1436,0.1436,0.1436,0.1436,0.1705,0.2243,0.2689,0.3136,0.3587,0.4121,0.43,0.43,0.43,0.43,0.43,0.43,0.4353,0.4453,0.4636,0.4708,0.472,0.5105,0.5338,0.5636,0.5939,0.6139,0.6437,0.6437,0.6437,0.6437,0.6437,0.6437,0.6437,0.6437,0.6437,0.6437,0.6437,0.6437,0.6437,0.6437,0.6437,0.6437,0.6437,0.6437,0.6475,0.6597,0.6622,0.67,0.6942,0.6986,0.7024,0.7138,0.7154,0.7154,0.7154,0.7154,0.7154,0.7154,0.7493,0.7607,0.7607,0.7826,0.8045,0.8045,0.8266,0.8374,0.8045,0.8045,0.8045,0.8045,0.8374,0.8484,0.8484,0.8823,0.894,0.894,0.894,0.894,-0.6612,-0.6877,-0.7051,-0.7054,-0.7051,-0.7139,-0.7139,-0.7054,0.0,-0.6927,-0.6993,-0.6976,-0.6936,-0.7044,-0.7139,-0.7139,-0.7139,-0.7139,-0.7139,-0.6969,-0.6704,-0.6523,-0.6346,-0.6083,-0.5819,-0.5822,-0.5458,-0.4469,-0.3755,-0.2503,-0.0805,0.0627,0.1436,0.1436,0.1436,0.1615,0.1974,0.1974,0.2333,0.3229,0.3318,0.3497,0.3587,0.4121,0.43,0.43,0.43,0.43,0.43,0.43,0.4353,0.4447,0.4565,0.4747,0.501,0.5105,0.5441,0.5939,0.5942,0.6139,0.6437,0.6437,0.6437,0.6437,0.6437,0.6437,0.6437,0.6437,0.6437,0.6437,0.6437,0.6437,0.6437,0.6437,0.6437,0.6461,0.6545,0.6564,0.66,0.6725,0.6817,0.6899,0.6972,0.7051,0.7116,0.7149,0.7154,0.7154,0.7154,0.7379,0.7493,0.7493,0.7715,0.7934,0.8266,0.8263,0.8377,0.8605,0.8716,0.8602,0.8374,0.8491,0.8605,0.8605,0.8716,0.8823,0.8823,0.8826,0.894,0.894,0.894,0.894,-0.6877,-0.6966,-0.7139,-0.7139,-0.7099,-0.7041,-0.698,-0.701,-0.7014,-0.6868,-0.6888,-0.6909,-0.6851,-0.7004,-0.7139,-0.7139,-0.7139,-0.7051,-0.6966,-0.6884,-0.6618,-0.6346,-0.6086,-0.5916,-0.5738,-0.5282,-0.465,-0.3753,-0.2681,-0.1609,-0.0447,0.0717,0.1525,0.1705,0.1705,0.1973,0.2511,0.2511,0.2869,0.3587,0.3587,0.3676,0.3855,0.421,0.43,0.43,0.43,0.43,0.43,0.43,0.4422,0.4574,0.4669,0.4858,0.5241,0.544,0.5705,0.6042,0.6139,0.6237,0.6437,0.6437,0.6437,0.6437,0.6437,0.6437,0.6437,0.6437,0.6437,0.6437,0.6437,0.6437,0.6437,0.6437,0.6472,0.6529,0.6603,0.6657,0.6728,0.6853,0.6934,0.6999,0.7046,0.7108,0.7154,0.7154,0.7268,0.7379,0.7379,0.7604,0.7715,0.7715,0.8045,0.8263,0.8484,0.8598,0.8712,0.8937,0.894,0.8826,0.8709,0.8826,0.894,0.894,0.894,0.894,0.894,0.894,0.894,0.894,0.894,0.894,-0.7139,-0.7139,-0.7136,-0.7126,-0.7014,-0.6871,-0.6732,-0.6797,-0.6848,-0.6709,-0.679,-0.6851,-0.6722,-0.6932,-0.7037,-0.6959,-0.7054,-0.6966,-0.6704,-0.6627,-0.645,-0.5905,-0.5738,-0.5657,-0.5476,-0.4563,-0.3662,-0.304,-0.1431,-0.0358,-0.0268,0.0806,0.1615,0.2154,0.2243,0.2423,0.2957,0.2957,0.3227,0.3676,0.3676,0.3855,0.43,0.43,0.43,0.43,0.43,0.43,0.43,0.43,0.448,0.4759,0.4769,0.505,0.5341,0.5734,0.5945,0.6042,0.6337,0.6437,0.6437,0.6437,0.6437,0.6437,0.6437,0.6437,0.6437,0.6437,0.6437,0.6439,0.645,0.6453,0.6456,0.6467,0.6545,0.6624,0.6646,0.6741,0.6855,0.6978,0.6999,0.7032,0.7135,0.7154,0.7154,0.7265,0.7493,0.7607,0.7607,0.7826,0.8045,0.8045,0.8377,0.8484,0.8484,0.8712,0.894,0.894,0.894,0.894,0.894,0.894,0.894,0.894,0.894,0.894,0.894,0.894,0.894,0.894,0.894,0.894,-0.7139,-0.7139,-0.7112,-0.7004,-0.6861,-0.6742,-0.6709,-0.6634,-0.6563,-0.6529,-0.6549,-0.6597,-0.6685,-0.6851,-0.675,-0.6148,-0.6621,-0.6716,-0.5727,-0.6097,-0.5925,-0.4295,-0.502,-0.5203,-0.3939,-0.3842,-0.3126,-0.1163,-0.0626,-0.0,0.0986,0.1256,0.1615,0.2154,0.2243,0.2602,0.3408,0.3408,0.3674,0.4121,0.4121,0.421,0.43,0.43,0.43,0.43,0.43,0.4389,0.4569,0.4569,0.4748,0.4933,0.5036,0.5232,0.5621,0.583,0.6041,0.6337,0.6337,0.6437,0.6437,0.6437,0.6437,0.6437,0.6437,0.6437,0.6437,0.6437,0.6437,0.6458,0.6554,0.6581,0.6603,0.67,0.6671,0.6671,0.6866,0.6929,0.698,0.7095,0.7119,0.7127,0.7149,0.7154,0.7268,0.7493,0.7607,0.7718,0.7937,0.8156,0.8374,0.8374,0.8602,0.8826,0.8826,0.8826,0.894,0.894,0.894,0.894,0.894,0.894,0.894,0.894,0.894,0.894,0.894,0.894,0.894,0.894,0.894,0.894,-0.7496,-0.7231,-0.7088,-0.6871,-0.6759,-0.6664,-0.6522,-0.6427,-0.6373,-0.6373,-0.6424,-0.6498,-0.6576,-0.6434,-0.6257,-0.6246,-0.6225,-0.5819,-0.4563,-0.5749,-0.5847,-0.3582,-0.2864,-0.2684,-0.2684,-0.2413,-0.1519,0.0358,0.0448,0.0806,0.1705,0.1794,0.2154,0.2871,0.2871,0.3229,0.3942,0.3942,0.4032,0.43,0.43,0.43,0.43,0.43,0.43,0.43,0.4478,0.4569,0.475,0.4837,0.5013,0.5196,0.5253,0.5465,0.59,0.5963,0.619,0.6437,0.6437,0.6437,0.6437,0.6437,0.6437,0.6437,0.6437,0.6437,0.6437,0.6437,0.6437,0.645,0.6516,0.6575,0.6649,0.6774,0.6798,0.6828,0.6956,0.7027,0.7084,0.7143,0.7154,0.7154,0.7154,0.7268,0.7493,0.7607,0.7826,0.8045,0.8266,0.8488,0.8712,0.8712,0.8826,0.894,0.894,0.894,0.894,0.894,0.894,0.894,0.894,0.894,0.894,0.894,0.894,0.894,0.894,0.894,0.894,0.894,0.894,0.894,-0.8113,-0.7474,-0.7037,-0.6766,-0.6681,-0.659,-0.6322,-0.6338,-0.6338,-0.6338,-0.6356,-0.6444,-0.6468,-0.5924,-0.5664,-0.6325,-0.5635,-0.4545,-0.3398,-0.4761,-0.4947,-0.2419,-0.0447,0.0089,-0.1343,-0.0716,0.0269,0.1435,0.1614,0.1883,0.2333,0.2333,0.2691,0.3587,0.3587,0.3855,0.43,0.43,0.43,0.43,0.4389,0.4389,0.4389,0.4389,0.4389,0.4389,0.4659,0.4748,0.4839,0.5013,0.5191,0.5463,0.5463,0.5692,0.6086,0.6086,0.6236,0.6437,0.6437,0.6437,0.6437,0.6437,0.6437,0.6437,0.6437,0.6437,0.6437,0.6437,0.6437,0.6439,0.6464,0.6559,0.6681,0.6804,0.6926,0.7016,0.7016,0.7089,0.7154,0.7154,0.7265,0.7268,0.7376,0.749,0.7718,0.7718,0.8156,0.8484,0.8598,0.8712,0.894,0.894,0.894,0.894,0.894,0.894,0.894,0.894,0.894,0.894,0.894,0.894,0.894,0.894,0.894,0.894,0.894,0.894,0.894,0.894,0.894,0.894,-0.8715,-0.7657,-0.6915,-0.6742,-0.66,-0.6461,-0.6298,-0.6338,-0.6338,-0.6338,-0.6278,-0.6325,-0.6451,-0.5776,-0.5221,-0.5175,-0.4439,-0.3335,-0.1878,-0.1257,-0.0539,0.0717,0.0717,0.0806,0.0896,0.0537,0.0806,0.1973,0.2511,0.2688,0.2778,0.2778,0.3048,0.3587,0.3587,0.3855,0.43,0.43,0.43,0.43,0.4569,0.4661,0.4661,0.4835,0.4835,0.4661,0.4835,0.5102,0.5282,0.5371,0.5463,0.5644,0.5644,0.5877,0.6086,0.6086,0.6236,0.6437,0.6437,0.6437,0.6437,0.6437,0.6437,0.6437,0.6437,0.6437,0.6437,0.6437,0.6437,0.6461,0.6567,0.6684,0.6809,0.6931,0.7048,0.7133,0.7133,0.7143,0.7154,0.7154,0.7379,0.7604,0.7823,0.7934,0.8045,0.8377,0.8484,0.8598,0.8826,0.8826,0.894,0.894,0.894,0.894,0.894,0.894,0.894,0.894,0.894,0.894,0.894,0.894,0.894,0.894,0.894,0.894,0.894,0.894,0.894,0.894,0.894,0.894,-0.8452,-0.7442,-0.6734,-0.6425,-0.6483,-0.6539,-0.6149,-0.6099,-0.6099,-0.6099,-0.6025,-0.597,-0.6349,-0.5468,-0.4907,-0.561,-0.3854,-0.1919,-0.0793,0.0178,0.0897,0.1345,0.1255,0.1345,0.1885,0.1613,0.1703,0.251,0.2778,0.3047,0.3317,0.3317,0.3496,0.3944,0.4032,0.4121,0.43,0.43,0.4389,0.4569,0.4661,0.4748,0.4835,0.5102,0.5102,0.4924,0.5102,0.528,0.5371,0.5552,0.5644,0.5733,0.5733,0.5877,0.6086,0.6086,0.6236,0.6437,0.6437,0.6437,0.6437,0.6437,0.6437,0.6437,0.6437,0.6437,0.6437,0.6437,0.6437,0.6448,0.6502,0.666,0.6817,0.6869,0.7021,0.7154,0.7154,0.7268,0.749,0.7601,0.7712,0.7823,0.7934,0.8156,0.8374,0.8484,0.8598,0.8712,0.8937,0.894,0.894,0.894,0.894,0.894,0.894,0.894,0.894,0.894,0.894,0.894,0.894,0.894,0.8977,0.9055,0.8981,0.894,0.894,0.894,0.894,0.894,0.894,0.894,-0.8009,-0.7139,-0.6555,-0.6144,-0.6312,-0.6384,-0.5972,-0.5811,-0.5786,-0.5786,-0.5634,-0.564,-0.6045,-0.5097,-0.4688,-0.605,-0.3524,-0.0945,0.0174,0.097,0.1427,0.1435,0.1525,0.1794,0.2334,0.2512,0.269,0.3047,0.3226,0.3405,0.3764,0.3765,0.3942,0.43,0.43,0.43,0.4389,0.4476,0.4567,0.4748,0.4837,0.4926,0.5099,0.5371,0.5371,0.5191,0.5371,0.5463,0.5463,0.5644,0.5733,0.5733,0.5733,0.5858,0.6043,0.6075,0.6217,0.6396,0.6426,0.6437,0.6437,0.6437,0.6437,0.6437,0.6437,0.6437,0.6437,0.6437,0.6437,0.6437,0.6437,0.6619,0.6801,0.6801,0.6983,0.7265,0.7268,0.7493,0.7718,0.8045,0.8156,0.8156,0.8266,0.8488,0.8598,0.8598,0.8823,0.894,0.894,0.894,0.894,0.894,0.894,0.894,0.894,0.894,0.8954,0.8991,0.8991,0.9011,0.9049,0.9052,0.9103,0.9208,0.9106,0.9032,0.8991,0.8957,0.894,0.894,0.894,0.894,-0.7918,-0.7132,-0.6398,-0.626,-0.6132,-0.5998,-0.5851,-0.5723,-0.5637,-0.5637,-0.5479,-0.5404,-0.5587,-0.4875,-0.4681,-0.6034,-0.3513,-0.0663,0.1039,0.1395,0.1406,0.1432,0.1974,0.2334,0.2243,0.305,0.3497,0.3587,0.3942,0.421,0.43,0.43,0.4297,0.43,0.43,0.4389,0.4661,0.4835,0.501,0.501,0.5282,0.5371,0.5371,0.5552,0.5644,0.5644,0.5644,0.5644,0.5644,0.5733,0.5733,0.5733,0.5733,0.5806,0.5926,0.6043,0.6168,0.6293,0.6399,0.6437,0.6437,0.6437,0.6437,0.6437,0.6437,0.6437,0.6437,0.6437,0.6437,0.6437,0.6437,0.6619,0.6801,0.6801,0.6983,0.7268,0.7493,0.7607,0.7826,0.8374,0.8484,0.8598,0.8826,0.8826,0.8826,0.8826,0.8937,0.894,0.894,0.894,0.894,0.894,0.894,0.894,0.894,0.894,0.8998,0.9133,0.9144,0.9208,0.9354,0.9357,0.9361,0.9367,0.9361,0.9286,0.9144,0.9005,0.894,0.894,0.894,0.894,-0.7394,-0.6694,-0.6139,-0.584,-0.5946,-0.6024,-0.5722,-0.5559,-0.5504,-0.5419,-0.5246,-0.5096,-0.5188,-0.4051,-0.2959,-0.2309,-0.0816,0.0583,0.1251,0.1369,0.1571,0.1933,0.2136,0.2512,0.305,0.3408,0.3765,0.4032,0.421,0.43,0.43,0.43,0.43,0.43,0.43,0.4389,0.4661,0.4921,0.5099,0.528,0.5371,0.5463,0.5555,0.5644,0.5733,0.5733,0.5733,0.5733,0.5733,0.5733,0.5733,0.5733,0.5733,0.5803,0.5918,0.604,0.6162,0.6285,0.6396,0.6437,0.6437,0.6437,0.6437,0.6437,0.6437,0.6437,0.6437,0.6437,0.6437,0.6437,0.6437,0.6619,0.6842,0.7214,0.7428,0.7604,0.8045,0.8156,0.8266,0.8712,0.8712,0.8826,0.8937,0.894,0.894,0.894,0.894,0.894,0.894,0.894,0.894,0.894,0.9022,0.9076,0.9076,0.9164,0.9245,0.9296,0.93,0.9323,0.9381,0.9381,0.9425,0.9527,0.9432,0.9354,0.93,0.9147,0.9076,0.9076,0.8981,0.894,-0.7041,-0.6432,-0.5888,-0.5632,-0.5754,-0.5849,-0.5598,-0.5412,-0.5408,-0.5323,-0.5121,-0.5031,-0.508,-0.3637,-0.1873,0.016,0.0986,0.1341,0.1321,0.1531,0.1827,0.2173,0.248,0.2871,0.3497,0.3765,0.3942,0.4297,0.4389,0.4389,0.4389,0.4478,0.4565,0.4565,0.4656,0.4748,0.4928,0.5102,0.5282,0.5463,0.5463,0.5552,0.5733,0.5733,0.5733,0.5733,0.5733,0.5733,0.5733,0.5733,0.5733,0.5733,0.5733,0.5779,0.5866,0.6026,0.6138,0.623,0.6382,0.6437,0.6437,0.6437,0.6437,0.6437,0.6437,0.6437,0.6437,0.6437,0.6437,0.6539,0.6539,0.6827,0.7172,0.7491,0.7683,0.8048,0.8374,0.8484,0.8598,0.8826,0.894,0.894,0.894,0.894,0.894,0.894,0.894,0.894,0.894,0.894,0.894,0.894,0.9066,0.9154,0.9154,0.9293,0.9401,0.9456,0.9459,0.9479,0.9527,0.953,0.9578,0.968,0.9581,0.953,0.953,0.9327,0.9228,0.9225,0.9133,0.9086,0.0,0.0,0.0,-0.5733,-0.5643,-0.5467,-0.5464,-0.5363,-0.5192,-0.5192,-0.5102,-0.5059,-0.5264,-0.3808,-0.1668,0.09,0.133,0.1433,0.1432,0.1973,0.2347,0.2173,0.3011,0.3587,0.3587,0.4032,0.43,0.43,0.4569,0.4661,0.4661,0.4919,0.5003,0.5001,0.5272,0.5364,0.5364,0.563,0.5725,0.5727,0.5727,0.573,0.5733,0.5733,0.5733,0.5733,0.5733,0.5733,0.5733,0.5733,0.5733,0.5733,0.5733,0.5733,0.5763,0.5999,0.6086,0.6119,0.6355,0.6437,0.6437,0.6437,0.6437,0.6437,0.6437,0.6437,0.6437,0.6437,0.6639,0.6845,0.6848,0.7244,0.7575,0.749,0.7944,0.8484,0.8484,0.8484,0.8598,0.8826,0.894,0.894,0.894,0.894,0.894,0.894,0.894,0.894,0.894,0.894,0.894,0.8944,0.9076,0.9161,0.9164,0.9306,0.9456,0.9605,0.9615,0.968,0.9815,0.9822,0.9822,0.9822,0.9822,0.9822,0.9822,0.953,0.9388,0.9388,0.9384,0.9381,-0.6953,0.0,0.0,0.0,0.0,0.0,-0.5483,-0.5431,-0.532,-0.532,-0.5222,-0.5017,-0.4644,-0.4242,-0.3178,-0.1025,0.0515,0.1373,0.1435,0.1887,0.2259,0.2603,0.3186,0.3765,0.4032,0.421,0.43,0.43,0.4569,0.4661,0.4661,0.4768,0.4868,0.4789,0.4962,0.5132,0.5132,0.5387,0.5515,0.5515,0.5515,0.5648,0.5733,0.5733,0.5733,0.5733,0.5733,0.5733,0.5733,0.5733,0.5733,0.5733,0.5733,0.5733,0.5763,0.5999,0.6086,0.6119,0.6355,0.6437,0.6437,0.6437,0.6437,0.6437,0.6437,0.6437,0.6437,0.6639,0.6742,0.6865,0.716,0.7306,0.7467,0.7923,0.8275,0.8598,0.8712,0.8826,0.8826,0.8937,0.894,0.894,0.894,0.894,0.894,0.894,0.894,0.894,0.894,0.894,0.8977,0.9083,0.9228,0.9364,0.9473,0.9615,0.9717,0.9758,0.9764,0.9781,0.9819,0.9822,0.9822,0.9822,0.9822,0.9822,0.9822,0.9635,0.9547,0.9544,0.9432,0.9381,-0.7394,-0.6694,-0.608,-0.5822,0.0,0.0,-0.5643,-0.5532,-0.5445,-0.5445,-0.5347,-0.5136,-0.4582,-0.4308,-0.366,-0.2109,-0.0705,0.0437,0.0856,0.1824,0.2544,0.2779,0.3449,0.4032,0.4297,0.4389,0.4389,0.43,0.4707,0.4932,0.4973,0.4999,0.5019,0.4954,0.5121,0.5207,0.5207,0.5288,0.5404,0.5474,0.5526,0.5502,0.5659,0.5708,0.5733,0.5733,0.5733,0.5733,0.5733,0.5733,0.5733,0.5733,0.5733,0.5733,0.5763,0.5999,0.6086,0.6119,0.6355,0.6437,0.6437,0.6437,0.6437,0.6437,0.6437,0.6437,0.6639,0.6742,0.6842,0.7059,0.7443,0.7501,0.7663,0.8065,0.8455,0.8712,0.8826,0.894,0.894,0.894,0.894,0.894,0.894,0.894,0.894,0.894,0.894,0.894,0.894,0.894,0.8971,0.9055,0.9256,0.9418,0.9507,0.9703,0.9822,0.9822,0.9822,0.9822,0.9822,0.9822,0.9822,0.9822,0.9822,0.9822,0.9822,0.9737,0.9696,0.9696,0.9605,0.9564,-0.8097,-0.7394,-0.6602,-0.5994,-0.5733,0.0,-0.5733,-0.564,-0.5467,-0.548,-0.5389,-0.5173,-0.4858,-0.4096,-0.3332,-0.2679,-0.1883,-0.1069,0.0175,0.177,0.2757,0.2793,0.3719,0.43,0.43,0.4569,0.4569,0.4389,0.4915,0.5232,0.5358,0.5349,0.5341,0.533,0.533,0.533,0.533,0.533,0.5336,0.5352,0.5472,0.5451,0.5467,0.5678,0.5733,0.5733,0.5733,0.5733,0.5733,0.5733,0.5733,0.5733,0.5733,0.5733,0.5763,0.5999,0.6086,0.6119,0.6355,0.6437,0.6437,0.6437,0.6437,0.6437,0.6437,0.6539,0.6845,0.6845,0.7042,0.7238,0.7543,0.7843,0.8046,0.8167,0.8491,0.8916,0.8933,0.894,0.894,0.894,0.894,0.894,0.894,0.894,0.894,0.894,0.894,0.894,0.894,0.894,0.8944,0.896,0.9211,0.9388,0.9405,0.9659,0.9822,0.9822,0.9822,0.9822,0.9822,0.9822,0.9822,0.9822,0.9822,0.9822,0.9822,0.9822,0.9822,0.9822,0.9822,0.9822,-0.8715,-0.7746,-0.6779,-0.6605,-0.6169,0.0,-0.5733,-0.564,-0.5491,-0.5678,-0.5254,-0.4774,-0.4433,-0.392,-0.3392,-0.2871,-0.2243,-0.1254,0.0178,0.134,0.2235,0.285,0.3753,0.43,0.43,0.4569,0.4661,0.4659,0.5003,0.5196,0.5233,0.5222,0.5181,0.5089,0.5086,0.5086,0.5086,0.5086,0.5132,0.5222,0.5347,0.5455,0.5467,0.5678,0.5733,0.5733,0.5733,0.5733,0.5733,0.5733,0.5733,0.5733,0.5733,0.5733,0.5763,0.5999,0.6086,0.6119,0.6355,0.6437,0.6437,0.6437,0.6437,0.6437,0.6437,0.6539,0.6845,0.7344,0.7341,0.7338,0.7839,0.7769,0.7717,0.8246,0.8621,0.8791,0.8913,0.894,0.894,0.894,0.894,0.894,0.894,0.894,0.894,0.894,0.894,0.894,0.894,0.894,0.8984,0.91,0.9273,0.9432,0.9554,0.9724,0.9822,0.9822,0.9822,0.9822,0.9822,0.9822,0.9822,0.9822,0.9822,0.9822,0.9822,0.9822,0.9822,0.9822,0.9822,0.9822,-0.8978,-0.8364,-0.7658,-0.6956,-0.6517,0.0,0.0,-0.5687,-0.5659,-0.5722,-0.524,-0.4775,-0.4378,-0.3942,-0.3409,-0.2963,-0.2603,-0.1974,-0.0897,0.0717,0.197,0.2329,0.3492,0.43,0.43,0.4569,0.473,0.4941,0.5011,0.5129,0.5195,0.5132,0.5154,0.5171,0.5168,0.5168,0.5168,0.5249,0.5202,0.5102,0.5306,0.5427,0.5464,0.5586,0.5676,0.5733,0.5733,0.5733,0.5733,0.5733,0.5733,0.5733,0.5733,0.5733,0.5763,0.5999,0.6086,0.6119,0.6355,0.6437,0.6437,0.6437,0.6437,0.6437,0.6437,0.6639,0.7042,0.7447,0.7441,0.7338,0.7839,0.7749,0.7685,0.834,0.8601,0.8754,0.8906,0.894,0.894,0.894,0.894,0.894,0.894,0.894,0.894,0.894,0.894,0.894,0.894,0.894,0.8964,0.9039,0.9178,0.933,0.9483,0.9632,0.9744,0.9815,0.9822,0.9822,0.9822,0.9822,0.9822,0.9822,0.9822,0.9822,0.9822,0.9822,0.9822,0.9822,0.9822,0.9822,-0.9292,-0.9007,-0.8627,-0.7482,-0.7041,-0.6602,0.0,0.0,0.0,-0.5733,-0.5282,-0.4743,-0.4387,-0.3855,-0.332,-0.2963,-0.2875,-0.2694,-0.2064,-0.009,0.1431,0.179,0.3312,0.43,0.43,0.4569,0.4884,0.5208,0.5122,0.5105,0.5227,0.5113,0.5126,0.5358,0.5332,0.5321,0.5321,0.5479,0.5404,0.5096,0.561,0.5647,0.5421,0.565,0.5776,0.57,0.5725,0.5733,0.5733,0.5733,0.5733,0.5733,0.5733,0.5733,0.576,0.5972,0.6067,0.6116,0.6331,0.6418,0.6437,0.6437,0.6437,0.6437,0.6437,0.6836,0.7238,0.7543,0.7444,0.7437,0.7839,0.7727,0.7645,0.8304,0.8557,0.871,0.8862,0.8916,0.894,0.894,0.894,0.894,0.894,0.894,0.894,0.894,0.894,0.894,0.894,0.894,0.894,0.894,0.9066,0.9215,0.9367,0.952,0.9669,0.9812,0.9822,0.9822,0.9822,0.9822,0.9822,0.9822,0.9822,0.9822,0.9822,0.9822,0.9822,0.9822,0.9822,0.9822,-1.0093,-0.9557,-0.889,-0.8715,-0.7746,-0.6779,-0.6691,0.0,-0.5733,-0.5733,0.0,-0.4387,-0.43,0.0,0.0,-0.2875,-0.2875,-0.2784,-0.2424,-0.1254,0.0179,0.1611,0.3312,0.43,0.43,0.4743,0.5056,0.5208,0.5365,0.5392,0.5355,0.5233,0.5248,0.5491,0.5381,0.5398,0.5559,0.5559,0.5559,0.5562,0.6393,0.6391,0.5543,0.6444,0.6405,0.5491,0.5687,0.5733,0.5733,0.5733,0.5733,0.5733,0.5733,0.5733,0.5749,0.5877,0.5994,0.6105,0.6241,0.6352,0.6437,0.6437,0.6437,0.6437,0.6642,0.6939,0.7238,0.7543,0.7547,0.7643,0.7942,0.7756,0.7708,0.8156,0.8404,0.855,0.8703,0.8842,0.894,0.894,0.894,0.894,0.894,0.894,0.894,0.894,0.894,0.894,0.894,0.894,0.894,0.894,0.9066,0.9215,0.9367,0.952,0.9669,0.9812,0.9822,0.9822,0.9822,1.0061,1.0061,0.9822,1.0061,1.0061,0.9822,0.9822,0.9822,0.9822,0.9822,0.9822,-1.0423,-1.0111,-0.9598,-0.9148,-0.8528,-0.7921,-0.7482,-0.6868,-0.6343,-0.6343,0.0,0.0,0.0,0.0,0.0,0.0,-0.2875,-0.2873,-0.2784,-0.1523,-0.0358,0.0448,0.2238,0.3673,0.4208,0.4743,0.4991,0.5124,0.5328,0.5529,0.5477,0.536,0.5344,0.5517,0.5462,0.5477,0.5637,0.5637,0.5559,0.5401,0.6308,0.6225,0.5356,0.635,0.632,0.547,0.5681,0.5733,0.5733,0.5733,0.5733,0.5733,0.5733,0.5733,0.5746,0.586,0.598,0.6102,0.6227,0.6342,0.6437,0.6437,0.6437,0.6437,0.6742,0.6942,0.7238,0.7341,0.7444,0.7646,0.7746,0.7646,0.7682,0.8235,0.8377,0.8523,0.8676,0.8828,0.894,0.894,0.894,0.894,0.894,0.894,0.894,0.894,0.894,0.894,0.894,0.894,0.894,0.894,0.8991,0.9123,0.9361,0.9442,0.9574,0.9805,0.9822,0.9822,0.9822,0.994,0.994,0.9822,0.994,0.994,0.9822,0.9822,0.9943,1.0061,0.994,0.9822,-1.0645,-1.0513,-1.0262,-0.9713,-0.9328,-0.8941,-0.8355,-0.7638,-0.7091,-0.6874,-0.5628,0.0,0.0,0.0,-0.2875,-0.2875,0.0,-0.2873,-0.2784,-0.1792,-0.0985,-0.0538,0.1522,0.3135,0.3851,0.4565,0.501,0.501,0.5383,0.5515,0.5515,0.5485,0.5463,0.5621,0.5552,0.5551,0.5692,0.5655,0.5559,0.5401,0.6479,0.6379,0.53,0.639,0.6373,0.5507,0.5629,0.5703,0.5733,0.5733,0.5733,0.5733,0.5733,0.5733,0.5744,0.5825,0.5953,0.61,0.6187,0.6314,0.6437,0.6437,0.6437,0.6437,0.6742,0.6942,0.7238,0.7238,0.7441,0.7646,0.7646,0.7646,0.7772,0.818,0.8319,0.8465,0.8615,0.8767,0.8889,0.893,0.894,0.894,0.894,0.894,0.894,0.894,0.894,0.894,0.894,0.894,0.894,0.894,0.894,0.9042,0.9296,0.9357,0.9507,0.9802,0.9822,0.9822,0.9822,0.994,0.994,0.9822,0.994,1.0061,0.994,1.0061,1.0183,1.0425,0.994,0.9943,-1.083,-1.0726,-1.056,-1.0565,-0.9996,-0.9385,-0.9207,-0.8627,-0.7854,-0.6986,-0.6068,-0.5184,-0.4476,-0.3497,-0.2875,-0.2875,-0.2875,0.0,0.0,-0.2334,-0.1793,-0.0805,0.1431,0.2956,0.2957,0.4206,0.501,0.501,0.5458,0.5727,0.5727,0.561,0.5628,0.5878,0.5641,0.5592,0.582,0.5698,0.5559,0.5637,0.7242,0.7088,0.5329,0.7104,0.695,0.5382,0.5504,0.5624,0.5733,0.5733,0.5733,0.5733,0.5733,0.5733,0.5733,0.5738,0.5885,0.6086,0.6089,0.6244,0.6437,0.6437,0.6437,0.6437,0.6742,0.6942,0.7238,0.7238,0.7537,0.7942,0.7646,0.7842,0.8041,0.8045,0.8167,0.8316,0.8459,0.8611,0.876,0.891,0.894,0.894,0.894,0.894,0.894,0.894,0.894,0.894,0.894,0.894,0.894,0.894,0.894,0.8998,0.9147,0.9296,0.9507,0.9802,0.9822,0.9822,0.9822,1.0061,1.0183,0.9822,1.0425,1.0668,1.0304,1.0668,1.0789,1.0789,1.0061,1.0183,0.0,-1.0943,-1.0787,-1.0787,-1.0487,-1.0181,-1.0113,-0.9449,-0.88,-0.8466,-0.6751,-0.5359,-0.5095,-0.3853,-0.2875,-0.2875,-0.2875,-0.2873,0.0,-0.2424,-0.1973,-0.1524,-0.0,0.1523,0.2777,0.3491,0.4115,0.4748,0.5196,0.5463,0.5463,0.5604,0.5635,0.5637,0.5557,0.5518,0.5594,0.5388,0.5325,0.5401,0.6395,0.6244,0.5174,0.6317,0.6384,0.5377,0.5496,0.5619,0.5733,0.5733,0.5733,0.5733,0.5733,0.5733,0.5733,0.5733,0.5882,0.6108,0.6263,0.6372,0.6437,0.6437,0.6539,0.6742,0.6942,0.7241,0.7444,0.7238,0.7537,0.7939,0.7441,0.764,0.8038,0.8038,0.816,0.8309,0.8452,0.8601,0.8757,0.891,0.894,0.894,0.894,0.894,0.894,0.894,0.894,0.894,0.894,0.894,0.894,0.894,0.894,0.8998,0.914,0.9388,0.9615,0.9808,0.9822,0.9822,0.9822,0.9943,1.0065,1.0183,1.0304,1.0547,1.0668,1.0789,1.091,1.1152,1.0668,1.0547,-1.1194,-1.1099,0.0,-1.1005,-1.0896,-1.0773,-1.0707,-1.0154,-0.944,-0.8733,-0.7231,-0.5711,-0.4917,-0.3853,-0.3053,-0.2964,-0.2875,-0.2873,0.0,-0.2424,-0.2064,-0.1794,-0.0718,0.0627,0.2239,0.2862,0.3578,0.4659,0.5104,0.5371,0.5371,0.5552,0.5697,0.5531,0.5486,0.5477,0.5487,0.5355,0.527,0.5308,0.5934,0.5833,0.5018,0.5956,0.599,0.5311,0.5434,0.5556,0.567,0.5716,0.5733,0.5733,0.5733,0.5733,0.5733,0.5733,0.5882,0.6119,0.6355,0.6437,0.6437,0.6437,0.6539,0.6742,0.7138,0.7341,0.7441,0.7238,0.7537,0.7839,0.7338,0.7637,0.8038,0.8038,0.8116,0.8241,0.8438,0.856,0.8693,0.8899,0.894,0.894,0.894,0.894,0.894,0.894,0.894,0.894,0.894,0.894,0.894,0.894,0.894,0.9018,0.9218,0.9415,0.9612,0.9808,0.9822,0.9822,0.9822,0.9822,0.9916,1.0226,1.0346,1.0554,1.0733,1.0913,1.1183,1.1427,1.1249,1.1156]},{"header":{"parameterUnit":"m.s-1","parameterCategory":1,"la1":30.6,"la2":29.2853,"lo1":-89.7004,"lo2":-87.6739,"dy":0.0162,"dx":0.0183,"nx":112,"ny":82,"refTime":"2023-06-25T12:00:00:Z","depth":0,"parameterNumber":3,"parameterNumberName":"V-component_of_WINDS"},"data":[0.0,0.0,0.0,0.0,0.0,0.0,0.0,0.0,0.0,0.0,0.0,0.0,0.0,0.0,0.0,0.0,0.0,0.0,0.0,0.0,0.0,0.0,0.0,0.0,0.0,0.0,0.0,0.0,0.0,0.0,0.0,0.0,0.0,0.0,0.0,0.0,0.0,0.0,0.0,0.0,0.0,0.0,0.0,0.0,0.0,0.0,0.0,0.0,0.0,0.0,0.0,0.0,0.0,0.0,0.0,0.0,0.0,0.0,0.0,0.0,0.0,0.0,0.0,0.0,0.0,0.0,0.0,0.0,0.0,0.0,0.0,0.0,0.0,0.0,0.0,0.0,0.0,0.0,0.0,0.0,0.0,0.0,0.0,0.0,0.0,0.0,0.0,0.0,0.0,0.0,-3.4231,-3.4309,-3.5023,-3.5501,-3.5502,-3.556,-3.5528,-3.5405,0.0,0.0,0.0,0.0,0.0,0.0,0.0,0.0,0.0,0.0,0.0,0.0,0.0,0.0,0.0,0.0,0.0,0.0,0.0,0.0,0.0,0.0,0.0,0.0,0.0,0.0,0.0,0.0,0.0,0.0,0.0,0.0,0.0,0.0,0.0,0.0,0.0,0.0,0.0,0.0,0.0,0.0,0.0,0.0,0.0,0.0,0.0,0.0,0.0,0.0,0.0,0.0,0.0,0.0,0.0,0.0,0.0,0.0,0.0,0.0,0.0,0.0,0.0,0.0,0.0,0.0,0.0,0.0,0.0,0.0,0.0,0.0,0.0,0.0,0.0,0.0,0.0,0.0,0.0,0.0,0.0,0.0,0.0,0.0,0.0,0.0,0.0,0.0,0.0,0.0,0.0,0.0,0.0,0.0,0.0,0.0,0.0,0.0,0.0,0.0,0.0,0.0,0.0,0.0,-3.4475,-3.5205,-3.5416,-3.5501,-3.5502,-3.556,-3.5528,-3.5405,0.0,0.0,0.0,0.0,0.0,0.0,0.0,0.0,0.0,0.0,0.0,0.0,0.0,0.0,0.0,0.0,0.0,0.0,0.0,0.0,0.0,0.0,0.0,0.0,0.0,0.0,0.0,0.0,0.0,0.0,0.0,0.0,0.0,0.0,0.0,0.0,0.0,0.0,0.0,0.0,0.0,0.0,0.0,0.0,0.0,0.0,0.0,0.0,0.0,0.0,0.0,0.0,0.0,0.0,0.0,0.0,0.0,0.0,0.0,0.0,0.0,0.0,0.0,0.0,0.0,0.0,0.0,0.0,0.0,0.0,0.0,0.0,0.0,0.0,0.0,0.0,0.0,0.0,0.0,0.0,0.0,0.0,0.0,0.0,0.0,0.0,0.0,0.0,0.0,0.0,0.0,0.0,0.0,0.0,0.0,0.0,0.0,0.0,0.0,0.0,0.0,0.0,0.0,-3.4674,-3.5059,-3.5468,-3.5493,-3.5507,-3.5495,-3.5534,-3.5547,-3.5515,-3.554,0.0,0.0,0.0,0.0,0.0,0.0,0.0,0.0,0.0,0.0,0.0,0.0,0.0,0.0,0.0,0.0,0.0,0.0,0.0,0.0,0.0,0.0,0.0,0.0,0.0,0.0,0.0,0.0,0.0,0.0,0.0,0.0,0.0,0.0,0.0,0.0,0.0,0.0,0.0,0.0,0.0,0.0,0.0,0.0,0.0,0.0,0.0,0.0,0.0,0.0,0.0,0.0,0.0,0.0,0.0,0.0,0.0,0.0,0.0,0.0,0.0,0.0,0.0,0.0,0.0,0.0,0.0,0.0,0.0,0.0,0.0,0.0,0.0,0.0,0.0,0.0,0.0,0.0,0.0,0.0,0.0,0.0,0.0,0.0,0.0,0.0,0.0,0.0,0.0,0.0,0.0,0.0,0.0,0.0,0.0,0.0,0.0,0.0,0.0,0.0,0.0,0.0,-3.5493,-3.5493,-3.5493,-3.5493,-3.5493,-3.5493,-3.5509,-3.5528,-3.5591,-3.5608,0.0,0.0,0.0,0.0,0.0,0.0,0.0,0.0,0.0,0.0,0.0,0.0,0.0,0.0,0.0,0.0,0.0,0.0,0.0,0.0,0.0,0.0,0.0,0.0,0.0,0.0,0.0,0.0,0.0,0.0,0.0,0.0,0.0,0.0,0.0,0.0,0.0,0.0,0.0,0.0,0.0,0.0,0.0,0.0,0.0,0.0,0.0,0.0,0.0,0.0,0.0,0.0,0.0,0.0,0.0,0.0,0.0,0.0,0.0,0.0,0.0,0.0,0.0,0.0,0.0,0.0,0.0,0.0,0.0,0.0,0.0,0.0,0.0,0.0,0.0,0.0,0.0,0.0,0.0,0.0,0.0,0.0,0.0,0.0,0.0,0.0,0.0,0.0,0.0,0.0,0.0,0.0,0.0,0.0,0.0,0.0,0.0,0.0,0.0,0.0,0.0,0.0,-3.5493,-3.5493,-3.5493,-3.5493,-3.5493,-3.5493,-3.5509,-3.5528,-3.5591,-3.5608,0.0,0.0,0.0,0.0,0.0,0.0,0.0,0.0,0.0,0.0,0.0,0.0,0.0,0.0,0.0,0.0,0.0,0.0,0.0,0.0,0.0,0.0,0.0,0.0,0.0,0.0,0.0,0.0,0.0,0.0,0.0,0.0,0.0,0.0,0.0,0.0,0.0,0.0,0.0,0.0,0.0,0.0,0.0,0.0,0.0,0.0,0.0,0.0,0.0,0.0,0.0,0.0,0.0,0.0,0.0,0.0,0.0,0.0,0.0,0.0,0.0,0.0,0.0,0.0,0.0,0.0,0.0,0.0,0.0,0.0,0.0,0.0,0.0,0.0,0.0,0.0,0.0,0.0,0.0,0.0,0.0,0.0,0.0,0.0,0.0,0.0,0.0,0.0,0.0,0.0,0.0,0.0,0.0,0.0,0.0,0.0,0.0,0.0,0.0,0.0,0.0,0.0,-3.5493,-3.5493,-3.5493,-3.5493,-3.5493,-3.5493,-3.5509,-3.5528,-3.5591,0.0,0.0,0.0,0.0,0.0,0.0,0.0,0.0,0.0,0.0,0.0,0.0,0.0,0.0,0.0,0.0,0.0,0.0,0.0,0.0,0.0,0.0,0.0,0.0,0.0,0.0,0.0,0.0,0.0,0.0,0.0,0.0,0.0,0.0,0.0,0.0,0.0,0.0,0.0,0.0,0.0,0.0,0.0,0.0,0.0,0.0,0.0,0.0,0.0,0.0,0.0,0.0,0.0,0.0,0.0,0.0,0.0,0.0,0.0,0.0,0.0,0.0,0.0,0.0,0.0,0.0,0.0,0.0,0.0,0.0,0.0,0.0,0.0,0.0,0.0,0.0,0.0,0.0,0.0,0.0,0.0,0.0,0.0,0.0,0.0,0.0,0.0,0.0,0.0,0.0,0.0,0.0,0.0,0.0,0.0,0.0,0.0,0.0,0.0,0.0,0.0,0.0,-3.5507,-3.5493,-3.5493,-3.5493,-3.5493,-3.5507,-3.5501,-3.5489,-3.5528,-3.5604,0.0,0.0,0.0,0.0,0.0,0.0,0.0,0.0,0.0,0.0,0.0,0.0,0.0,0.0,0.0,0.0,0.0,0.0,0.0,0.0,0.0,0.0,0.0,0.0,0.0,0.0,0.0,0.0,0.0,0.0,0.0,0.0,0.0,0.0,0.0,0.0,0.0,0.0,0.0,0.0,0.0,0.0,0.0,0.0,0.0,0.0,0.0,0.0,0.0,0.0,0.0,0.0,0.0,0.0,0.0,0.0,0.0,0.0,0.0,0.0,0.0,0.0,0.0,0.0,0.0,0.0,0.0,0.0,0.0,0.0,0.0,0.0,0.0,0.0,0.0,0.0,0.0,0.0,0.0,0.0,0.0,0.0,0.0,0.0,0.0,0.0,0.0,0.0,0.0,0.0,0.0,0.0,0.0,0.0,0.0,0.0,0.0,0.0,0.0,0.0,0.0,0.0,-3.5493,-3.5493,-3.5493,-3.5493,-3.5507,-3.5501,-3.5502,-3.5496,-3.554,0.0,0.0,0.0,0.0,0.0,0.0,0.0,0.0,0.0,0.0,0.0,0.0,0.0,0.0,0.0,0.0,0.0,0.0,0.0,0.0,0.0,0.0,0.0,0.0,0.0,0.0,0.0,0.0,0.0,0.0,0.0,0.0,0.0,0.0,0.0,0.0,0.0,0.0,0.0,0.0,0.0,0.0,0.0,0.0,0.0,0.0,0.0,0.0,0.0,0.0,0.0,0.0,0.0,0.0,0.0,0.0,0.0,0.0,0.0,0.0,0.0,0.0,0.0,0.0,0.0,0.0,0.0,0.0,0.0,0.0,0.0,0.0,0.0,0.0,0.0,0.0,0.0,0.0,0.0,0.0,0.0,0.0,0.0,0.0,0.0,0.0,0.0,0.0,0.0,0.0,0.0,0.0,0.0,0.0,0.0,0.0,0.0,0.0,0.0,0.0,0.0,0.0,0.0,-3.5493,-3.5493,-3.5493,-3.5493,-3.5515,-3.5489,-3.5502,-3.5534,-3.5589,-3.5601,0.0,0.0,0.0,0.0,0.0,0.0,0.0,0.0,0.0,0.0,0.0,0.0,0.0,0.0,0.0,0.0,0.0,0.0,0.0,0.0,0.0,0.0,0.0,0.0,0.0,0.0,0.0,0.0,0.0,0.0,0.0,0.0,0.0,0.0,0.0,0.0,0.0,0.0,0.0,0.0,0.0,0.0,0.0,0.0,0.0,0.0,0.0,0.0,0.0,0.0,0.0,0.0,0.0,0.0,0.0,0.0,0.0,0.0,0.0,0.0,0.0,0.0,0.0,0.0,0.0,0.0,0.0,0.0,0.0,0.0,0.0,0.0,0.0,0.0,0.0,0.0,0.0,0.0,0.0,0.0,0.0,0.0,0.0,0.0,0.0,0.0,0.0,0.0,0.0,0.0,0.0,0.0,0.0,0.0,0.0,0.0,0.0,0.0,0.0,0.0,0.0,0.0,-3.5493,-3.5493,-3.5507,-3.5501,-3.5489,-3.5496,-3.554,-3.5577,-3.5612,-3.5643,0.0,0.0,0.0,0.0,0.0,0.0,0.0,0.0,0.0,0.0,0.0,0.0,0.0,0.0,0.0,0.0,0.0,0.0,0.0,0.0,0.0,0.0,0.0,0.0,0.0,0.0,0.0,0.0,0.0,0.0,0.0,0.0,0.0,0.0,0.0,0.0,0.0,0.0,0.0,0.0,0.0,0.0,0.0,0.0,0.0,0.0,0.0,0.0,0.0,0.0,0.0,0.0,0.0,0.0,0.0,0.0,0.0,0.0,0.0,0.0,0.0,0.0,0.0,0.0,0.0,0.0,0.0,0.0,0.0,0.0,0.0,0.0,0.0,0.0,0.0,0.0,0.0,0.0,0.0,0.0,0.0,0.0,0.0,0.0,0.0,0.0,0.0,0.0,0.0,0.0,0.0,0.0,0.0,0.0,0.0,0.0,0.0,0.0,0.0,0.0,0.0,0.0,-3.5507,-3.5507,-3.5501,-3.5515,-3.5515,-3.5521,-3.5601,-3.5601,-3.5643,-3.5704,0.0,0.0,0.0,0.0,0.0,0.0,0.0,0.0,0.0,0.0,0.0,0.0,0.0,0.0,0.0,0.0,0.0,0.0,0.0,0.0,0.0,0.0,0.0,0.0,0.0,0.0,0.0,0.0,0.0,0.0,0.0,0.0,0.0,0.0,0.0,0.0,0.0,0.0,0.0,0.0,0.0,0.0,0.0,0.0,0.0,0.0,0.0,0.0,0.0,0.0,0.0,0.0,0.0,0.0,0.0,0.0,0.0,0.0,0.0,0.0,-3.7224,-3.6863,0.0,0.0,0.0,0.0,0.0,0.0,0.0,0.0,0.0,0.0,0.0,0.0,0.0,0.0,0.0,0.0,0.0,0.0,0.0,0.0,0.0,0.0,0.0,0.0,0.0,0.0,0.0,0.0,0.0,0.0,0.0,0.0,0.0,0.0,0.0,0.0,0.0,0.0,0.0,0.0,-3.5489,-3.5489,-3.5534,-3.556,-3.5584,-3.5589,-3.5601,-3.5643,-3.5684,-3.5704,-3.5707,0.0,0.0,0.0,0.0,0.0,0.0,0.0,0.0,0.0,0.0,0.0,0.0,0.0,0.0,0.0,0.0,0.0,0.0,0.0,0.0,0.0,0.0,0.0,0.0,0.0,0.0,0.0,0.0,0.0,0.0,0.0,0.0,0.0,0.0,0.0,0.0,0.0,0.0,0.0,0.0,0.0,0.0,0.0,0.0,0.0,0.0,0.0,0.0,0.0,0.0,0.0,0.0,0.0,0.0,0.0,0.0,0.0,0.0,0.0,-3.7129,-3.6749,0.0,0.0,0.0,0.0,0.0,0.0,0.0,0.0,0.0,0.0,0.0,0.0,0.0,0.0,0.0,0.0,0.0,0.0,0.0,0.0,0.0,0.0,0.0,0.0,0.0,0.0,0.0,0.0,0.0,0.0,0.0,0.0,0.0,0.0,0.0,0.0,0.0,0.0,0.0,0.0,-3.5502,-3.5528,-3.556,-3.5596,-3.5589,-3.5612,-3.5643,-3.5673,-3.5704,-3.5704,-3.5698,0.0,0.0,0.0,0.0,0.0,0.0,0.0,0.0,0.0,0.0,0.0,0.0,0.0,0.0,0.0,0.0,0.0,0.0,0.0,0.0,0.0,0.0,0.0,0.0,0.0,0.0,0.0,0.0,0.0,0.0,0.0,0.0,0.0,0.0,0.0,0.0,0.0,0.0,0.0,0.0,0.0,0.0,0.0,0.0,0.0,0.0,0.0,0.0,0.0,0.0,0.0,0.0,0.0,-3.8065,-3.8007,-3.8007,-3.8007,-3.7603,-3.6954,-3.7278,-3.6595,-3.5299,-3.5778,0.0,0.0,0.0,0.0,0.0,0.0,0.0,0.0,0.0,0.0,0.0,0.0,0.0,0.0,0.0,0.0,0.0,0.0,0.0,0.0,0.0,0.0,-3.6129,-3.6129,-3.6129,-3.6129,-3.6129,0.0,0.0,0.0,0.0,0.0,0.0,0.0,0.0,0.0,0.0,0.0,-3.5528,-3.5572,-3.5596,-3.5631,-3.5612,-3.5643,-3.5704,-3.5704,-3.5695,-3.5695,-3.5708,-3.5718,0.0,0.0,0.0,0.0,0.0,0.0,0.0,0.0,0.0,0.0,0.0,0.0,0.0,0.0,0.0,0.0,0.0,0.0,0.0,0.0,0.0,0.0,0.0,0.0,0.0,0.0,0.0,0.0,0.0,0.0,0.0,0.0,-4.0746,-4.0572,0.0,0.0,0.0,0.0,0.0,0.0,0.0,0.0,0.0,0.0,0.0,0.0,0.0,-4.0162,-4.0162,-3.9469,-3.9123,-3.9123,-3.8354,-3.8007,-3.8007,-3.8007,-3.793,-3.7834,-3.7886,0.0,-3.5465,-3.5547,0.0,0.0,0.0,0.0,0.0,0.0,0.0,0.0,0.0,0.0,0.0,0.0,0.0,0.0,0.0,0.0,0.0,0.0,0.0,0.0,0.0,0.0,-3.787,-3.787,-3.787,-3.787,-3.787,-3.6729,-3.5704,-3.5704,-3.5643,-3.5601,0.0,0.0,0.0,0.0,0.0,0.0,-3.5589,-3.5601,-3.5631,-3.5673,-3.5684,-3.5684,-3.5704,-3.5704,-3.5706,-3.5699,-3.5745,-3.5791,-3.5791,-3.5866,0.0,0.0,0.0,0.0,0.0,0.0,0.0,0.0,0.0,0.0,0.0,0.0,0.0,0.0,0.0,0.0,0.0,0.0,0.0,0.0,0.0,0.0,0.0,0.0,0.0,0.0,0.0,0.0,0.0,-4.0812,-4.0776,-4.07,-4.0372,-3.992,0.0,0.0,0.0,0.0,0.0,0.0,0.0,0.0,0.0,-3.8565,-3.8911,-3.9084,-3.9084,-3.8738,-3.8565,-3.8565,-3.818,-3.8007,-3.8007,-3.8007,-3.8007,-3.8007,-3.8007,-3.7584,-3.6911,-3.6911,-3.6911,-3.6911,0.0,0.0,0.0,0.0,-3.6953,-3.7,-3.7,-3.7049,-3.7116,-3.7116,0.0,0.0,0.0,0.0,0.0,0.0,0.0,-3.7638,-3.7638,-3.7909,-3.8199,-3.8199,-3.8199,-3.8199,-3.8199,-3.7618,-3.7116,-3.7116,-3.7085,-3.7054,-3.7054,-3.7049,0.0,0.0,0.0,-3.6323,-3.6335,-3.5952,-3.5673,-3.5704,-3.5704,-3.5704,-3.5704,-3.5697,-3.5698,-3.5708,-3.5799,-3.5857,-3.5857,-3.5885,-3.5903,0.0,0.0,0.0,0.0,0.0,0.0,0.0,0.0,0.0,0.0,0.0,0.0,0.0,0.0,0.0,0.0,0.0,0.0,0.0,0.0,0.0,0.0,0.0,0.0,0.0,0.0,0.0,0.0,-4.079,-4.0778,-4.0668,-4.0668,-4.0389,0.0,0.0,0.0,0.0,0.0,0.0,-3.8315,-3.8334,-3.843,-3.8623,-3.8642,-3.8642,-3.8642,-3.8642,-3.8642,-3.8642,-3.8642,-3.8642,-3.8642,-3.8642,-3.8642,-3.8642,-3.8642,-3.8642,-3.8604,-3.818,-3.8007,-3.8007,-3.8007,-3.8007,-3.8007,-3.8022,-3.8064,-3.8099,-3.8112,-3.815,-3.816,-3.7947,-3.787,-3.787,-3.787,0.0,0.0,0.0,0.0,-3.8199,-3.8199,-3.8199,-3.8199,-3.8199,-3.8199,-3.8199,-3.8199,-3.8199,-3.8199,-3.8199,-3.8199,-3.8199,-3.8199,-3.8194,0.0,-3.8201,-3.7641,-3.7158,-3.6926,-3.6389,-3.5936,-3.5723,-3.5704,-3.5695,-3.5706,-3.5708,-3.5795,-3.6036,-3.6141,-3.6313,-3.6554,-3.6579,-3.6571,-3.6571,0.0,0.0,0.0,0.0,0.0,0.0,0.0,0.0,0.0,0.0,0.0,0.0,0.0,0.0,0.0,0.0,0.0,0.0,0.0,0.0,0.0,0.0,0.0,0.0,0.0,0.0,0.0,0.0,0.0,-4.0621,-4.0621,0.0,0.0,0.0,0.0,-3.9238,-3.8469,-3.8354,-3.9181,-3.9219,-3.9565,-4.0335,-4.0354,-4.0354,-4.0354,-4.0354,-4.0354,-4.0354,-4.0354,-4.0354,-4.0354,-4.0354,-4.0354,-4.0354,-4.0354,-4.0354,-4.0239,-3.8661,-3.8007,-3.8007,-3.8007,-3.8007,-3.8007,-3.807,-3.8092,-3.8112,-3.8177,-3.8214,-3.8063,-3.7232,-3.698,-3.698,-3.698,-3.7541,0.0,0.0,-3.8199,-3.8199,-3.8199,-3.8199,-3.8199,-3.8199,-3.8199,-3.8199,-3.8199,-3.8199,-3.8199,-3.8199,-3.8199,-3.8199,-3.8199,0.0,-3.8187,-3.8187,-3.8148,-3.7851,-3.7019,-3.6864,-3.6555,-3.5781,-3.5704,-3.5706,-3.5699,-3.5708,-3.6075,-3.6961,-3.7046,-3.7436,-3.8318,-3.8363,-3.8363,-3.8363,-3.8363,0.0,0.0,0.0,0.0,0.0,0.0,0.0,0.0,0.0,0.0,0.0,0.0,0.0,0.0,0.0,0.0,0.0,0.0,0.0,0.0,0.0,0.0,0.0,0.0,0.0,0.0,0.0,0.0,-4.0621,-4.0588,0.0,-4.0504,-4.0239,-4.0065,-4.0065,-3.9777,-3.9738,-4.0046,-4.0065,-4.02,-4.0489,-4.0489,-4.0489,-4.0489,-4.0489,-4.0489,-4.0489,-4.0489,-4.0489,-4.0489,-4.0489,-4.0489,-4.0489,-4.0489,-4.0489,-4.0466,-3.9903,-3.9653,-3.9604,-3.9653,-3.9668,-3.9687,-3.9692,-3.9753,-3.9779,-3.9812,-3.9837,-3.9823,-3.9514,-3.9417,-3.9417,-3.9417,-3.963,-3.9862,-3.9862,-3.9862,-3.9862,-3.9862,-3.9862,-3.9862,-3.9862,-3.9862,-3.9862,-3.9862,-3.9862,-3.9862,-3.9862,-3.9417,-3.9204,-3.9785,-3.9862,-3.9862,-3.9862,-3.9398,-3.8914,-3.8605,-3.8083,-3.7406,-3.6555,-3.7013,-3.7142,-3.6581,-3.7092,-3.7588,-3.7921,-3.7988,-3.8156,-3.85,-3.85,-3.85,-3.85,-3.85,-3.85,0.0,0.0,0.0,0.0,0.0,0.0,0.0,0.0,0.0,0.0,0.0,0.0,0.0,0.0,0.0,0.0,0.0,0.0,0.0,0.0,0.0,0.0,0.0,0.0,0.0,-4.079,-4.0746,-4.0621,-4.0588,-4.0559,-4.0504,-4.0489,-4.0489,-4.0489,-4.0489,-4.0489,-4.0489,-4.0489,-4.0489,-4.0489,-4.0489,-4.0642,-4.0931,-4.0931,-4.1085,-4.1373,-4.1373,-4.1373,-4.1373,-4.1373,-4.1373,-4.1373,-4.1373,-4.1389,-4.1386,-4.142,-4.1435,-4.1362,-4.0815,-4.0603,-4.0598,-4.064,-4.0654,-4.07,-4.0733,-4.0565,-4.0346,-4.0346,-4.0346,-4.0346,-4.0346,-4.0558,-4.079,-4.079,-4.0578,-4.0346,-4.0346,-4.0133,-3.992,-3.992,-3.992,-3.992,-3.992,-3.992,-4.0017,-4.0288,-4.0133,-4.0113,-4.0694,-4.079,-4.079,-4.079,-4.0307,-3.9835,-3.9545,-3.9015,-3.8233,-3.7061,-3.7763,-3.7977,-3.7102,-3.7879,-3.8532,-3.8857,-3.8916,-3.9065,-3.9376,-3.9376,-3.9376,-3.9376,-3.9376,-3.9376,-3.9376,0.0,0.0,0.0,0.0,0.0,0.0,0.0,0.0,0.0,0.0,0.0,0.0,0.0,0.0,0.0,0.0,0.0,0.0,0.0,0.0,0.0,0.0,0.0,-4.0803,-4.079,-4.0746,-4.0621,-4.0626,-4.0617,-4.0543,-4.0581,-4.0581,-4.0566,-4.0546,-4.0546,-4.0566,-4.0546,-4.0546,-4.0566,-4.0566,-4.0989,-4.1835,-4.1854,-4.2258,-4.3104,-4.3104,-4.3104,-4.3104,-4.3104,-4.3104,-4.3104,-4.3104,-4.3099,-4.3092,-4.3092,-4.3142,-4.3033,-4.1354,-4.0665,-4.0698,-4.0764,-4.0777,-4.0777,-4.0855,-4.0326,-3.9623,-3.9623,-3.9623,-3.9623,-3.9623,-4.0191,-4.0829,-4.0829,-4.021,-3.9545,-3.9545,-3.8914,-3.8276,-3.8276,-3.8276,-3.8276,-3.8276,-3.8276,-3.8528,-3.9379,-4.0222,-4.0803,-4.079,-4.079,-4.079,-4.0803,-4.0803,0.0,-3.9642,-3.9603,-3.8975,-3.7259,-3.7918,-3.8124,-3.7228,-3.7968,-3.8857,-3.9747,-3.9825,-4.0214,-4.1071,-4.111,-4.111,-4.111,-4.111,-4.111,-4.111,0.0,0.0,0.0,0.0,0.0,0.0,0.0,0.0,0.0,0.0,0.0,0.0,0.0,0.0,0.0,0.0,0.0,0.0,0.0,0.0,0.0,-4.0888,-4.0804,-4.0803,-4.079,-4.0778,-4.0668,-4.1228,-4.1586,-4.1532,-4.2036,-4.2387,-4.2393,-4.1797,-4.172,-4.2354,-4.1797,-4.1739,-4.2374,-4.2393,-4.2508,-4.2739,-4.2739,-4.2854,-4.3104,-4.3104,-4.3104,-4.3104,-4.3104,-4.3104,-4.3104,-4.3099,-4.3096,-4.3092,-4.3149,-4.3178,-4.3139,-4.2657,-4.2483,-4.2497,-4.2563,-4.2595,-4.2595,-4.2609,-4.2454,-4.226,-4.226,-4.226,-4.226,-4.226,-4.197,-4.1661,-4.1661,-4.1081,-4.0442,-4.0442,-4.0249,-4.0094,-4.0094,-4.0094,-4.0094,-4.0094,-4.0094,-4.0152,-4.0404,-4.0633,-4.0812,-4.0803,-4.079,-4.0796,-4.0792,-4.0804,-4.0718,-4.0528,-4.0529,-4.013,-3.9062,-3.974,-3.9688,-3.816,-3.9463,-4.0203,-3.9825,-4.039,-4.0857,-4.1091,-4.111,-4.111,-4.111,-4.111,-4.111,0.0,0.0,0.0,0.0,0.0,0.0,0.0,0.0,0.0,0.0,0.0,0.0,0.0,0.0,0.0,0.0,0.0,0.0,0.0,0.0,0.0,0.0,-4.1461,-4.1496,-4.1826,-4.155,-4.1416,-4.1705,-4.2188,-4.2488,-4.2414,-4.2822,-4.3096,-4.3104,-4.2297,-4.2181,-4.3047,-4.2277,-4.22,-4.3066,-4.3104,-4.3258,-4.3605,-4.3605,-4.3797,-4.4143,-4.4143,-4.4143,-4.4143,-4.4179,-4.4196,-4.4196,-4.4187,-4.4218,-4.4234,-4.4259,-4.4288,-4.4225,0.0,0.0,0.0,0.0,-4.3305,-4.3305,-4.3305,-4.3305,-4.3305,-4.3305,-4.3305,-4.3305,-4.3344,-4.2963,-4.2563,-4.2606,-4.2276,-4.1904,-4.192,-4.1648,-4.1396,-4.1396,-4.1106,-4.0834,-4.0834,-4.0834,-4.0834,-4.0834,-4.0837,0.0,-4.133,-4.1086,-4.0846,-4.0839,-4.0839,-4.0869,-4.0885,-4.0929,-4.0616,-3.9794,-4.052,-4.0473,-3.9091,-4.0297,0.0,0.0,0.0,-4.111,-4.111,-4.111,0.0,0.0,0.0,-4.1103,-4.1103,-4.1473,0.0,0.0,-4.1033,-4.0838,0.0,0.0,0.0,0.0,0.0,0.0,0.0,0.0,0.0,0.0,0.0,0.0,0.0,0.0,0.0,0.0,-4.2382,-4.2626,-4.3438,-4.2826,-4.2531,-4.3129,-4.3303,-4.3332,-4.3262,-4.3339,-4.3384,-4.339,-4.2489,-4.2316,-4.3181,-4.2431,0.0,0.0,0.0,-4.372,-4.4432,-4.4451,-4.4836,-4.5586,-4.5622,-4.5603,-4.5603,-4.5673,-4.5709,-4.569,-4.5719,-4.575,-4.58,-4.5795,-4.5791,-4.5645,-4.4156,-4.3576,-4.3576,-4.3576,-4.3576,-4.3576,-4.3576,0.0,0.0,-4.3589,-4.3589,-4.3615,-4.3676,-4.3574,-4.3492,-4.3606,-4.3538,-4.3408,-4.3481,-4.2937,-4.2345,-4.2345,-4.1762,-4.1199,-4.1199,-4.1199,-4.1199,-4.1199,-4.1189,-4.1441,-4.2199,-4.1616,-4.1082,-4.1189,-4.1198,-4.1166,-4.1071,-4.1128,-4.0812,-3.9942,0.0,0.0,-3.986,-4.0609,-4.1062,-4.0961,-4.1047,-4.1097,-4.1097,-4.1097,-4.1091,-4.1091,-4.1206,-4.1256,-4.1256,-4.2114,-4.2538,-4.2518,-4.174,-4.1383,0.0,0.0,0.0,0.0,0.0,0.0,0.0,0.0,0.0,0.0,0.0,0.0,0.0,0.0,0.0,-4.3318,-4.3288,-4.3547,-4.4413,-4.4333,-4.395,-4.3343,-4.3891,-4.4302,-4.4225,-4.4828,-4.5186,-4.5211,-4.3737,-4.3201,-4.4028,-4.3297,-4.322,-4.4047,-4.4739,-4.5182,-4.5336,-4.5336,-4.5432,-4.5586,-4.5657,0.0,-4.5693,-4.5687,-4.57,-4.57,-4.575,-4.58,-4.5815,-4.5805,-4.58,-4.5761,-4.5432,-4.5316,-4.5316,-4.5316,-4.5316,-4.5316,-4.5316,-4.5357,-4.5408,-4.5408,-4.5425,-4.5479,-4.55,-4.5004,0.0,-4.4462,-4.3996,-4.3481,-4.3491,-4.3365,-4.3248,-4.3248,-4.3132,-4.2996,-4.2996,-4.2996,-4.2996,-4.2996,-4.3004,-4.305,-4.3225,-4.2528,-4.2189,-4.2886,-4.3031,-4.2844,-4.2188,-4.2123,-4.181,-4.0918,-4.0996,-4.0742,-3.9863,-4.0605,-4.08,-4.0109,-4.0711,-4.1105,-4.1105,-4.1106,-4.1089,-4.1089,-4.1788,-4.2144,-4.2144,-4.3027,-4.3412,-4.3356,-4.3202,-4.3117,0.0,0.0,0.0,0.0,0.0,0.0,0.0,0.0,0.0,0.0,0.0,-4.3031,-4.2961,0.0,-4.3741,-4.4189,-4.4199,-4.444,-4.5335,-4.5385,-4.5153,-4.4666,-4.4957,-4.5186,-4.5143,-4.5514,-4.5735,-4.5703,-4.4514,-4.3959,-4.4331,-4.3577,-4.3323,-4.3695,-4.4155,-4.4402,-4.4402,-4.4402,-4.4402,-4.4402,-4.4418,-4.4453,-4.4453,-4.4905,-4.5094,-4.5132,-4.5602,-4.5791,-4.5805,-4.58,-4.58,-4.58,-4.58,-4.58,-4.58,-4.58,-4.58,-4.58,-4.58,-4.5835,-4.5905,-4.5905,-4.5953,-4.6007,-4.6037,-4.5706,-4.5366,-4.5423,-4.5151,-4.4802,-4.4848,-4.4526,-4.4195,-4.4195,-4.3875,-4.3545,-4.3545,-4.3545,-4.3553,-4.3552,-4.3552,-4.3688,-4.4139,-4.3841,-4.3557,-4.3545,-4.3602,-4.3492,-4.3097,-4.3045,-4.2871,-4.2453,-4.2002,-4.1572,-4.114,-4.1108,-4.0898,-4.0429,-4.0814,-4.1043,-4.1055,-4.1049,-4.1074,-4.1106,-4.1959,-4.2392,-4.2392,-4.37,-4.4324,-4.4314,-4.4702,-4.4429,0.0,0.0,0.0,0.0,0.0,0.0,0.0,-4.265,-4.2842,-4.3556,-4.3836,-4.3924,-4.3855,-4.3994,-4.4351,-4.5033,-4.5102,-4.5312,-4.6013,-4.6066,-4.5997,-4.5953,-4.588,-4.5814,-4.581,-4.5795,-4.5781,-4.5715,-4.4963,-4.4484,-4.4418,-4.364,-4.3177,-4.3127,-4.3177,-4.3196,-4.3196,-4.3196,-4.3196,-4.3196,-4.3192,-4.3192,-4.3211,-4.3931,-4.4274,-4.4312,-4.5186,-4.5568,-4.5568,-4.5742,-4.5814,-4.5827,-4.5827,-4.5841,-4.5841,-4.5814,-4.5814,-4.5827,-4.5827,-4.5861,-4.5941,-4.5941,-4.5986,-4.6056,-4.6102,-4.6084,-4.6066,-4.6162,-4.6154,-4.6138,-4.6189,-4.567,-4.5144,-4.5144,-4.4624,-4.4104,-4.4104,-4.4111,-4.4114,-4.4106,-4.411,-4.4332,-4.5032,-4.5152,-4.4934,-4.4214,-4.415,-4.414,-4.3964,-4.3941,-4.3898,-4.3726,-4.3079,-4.2646,-4.2623,-4.1841,-4.1322,-4.1265,-4.1091,-4.0996,-4.0996,-4.1013,-4.1043,-4.1094,-4.1956,-4.2483,-4.2659,-4.4239,-4.5094,-4.5269,-4.5913,-4.5462,-4.1113,-4.1679,-4.2246,-4.2246,-4.2848,-4.3425,0.0,-4.3554,-4.3583,-4.3673,-4.4313,-4.4836,-4.4768,-4.5396,-4.5949,-4.6047,-4.6047,-4.6072,-4.6169,-4.6138,-4.6084,-4.6084,-4.5975,-4.5867,-4.58,-4.581,-4.58,-4.5781,-4.4997,-4.4504,-4.4484,-4.3674,-4.3192,-4.3192,-4.3211,-4.3196,-4.3196,-4.3196,-4.3196,-4.3196,-4.3202,-4.3197,-4.3217,-4.3355,-4.3427,-4.3485,-4.4369,-4.4736,-4.4794,-4.551,-4.5841,-4.5893,-4.5893,-4.5929,-4.5964,-4.5835,-4.5841,-4.5893,-4.5893,-4.5975,-4.6084,-4.6084,-4.6111,-4.6189,-4.6189,-4.6189,-4.6189,-4.6196,-4.6196,-4.6196,-4.6196,-4.6137,-4.604,-4.604,-4.5981,-4.5909,-4.5909,-4.5909,-4.5907,-4.5909,-4.5909,-4.5948,-4.6048,-4.6093,-4.6094,-4.593,-4.5976,-4.5722,-4.4959,-4.4853,-4.4566,-4.3782,-4.3606,-4.3521,-4.3461,-4.2724,-4.2227,-4.2161,-4.1437,-4.1003,-4.1007,-4.1054,-4.1091,-4.1108,-4.1956,-4.2786,-4.3567,-4.452,-4.5395,-4.6167,-4.6245,-4.6153,-4.1658,-4.2051,-4.2461,-4.3027,-4.3437,-4.3824,-4.434,-4.4468,-4.4602,-4.5106,-4.5508,-4.5757,-4.5714,-4.5972,-4.6195,-4.6209,-4.6196,-4.619,-4.6203,-4.6181,-4.6146,-4.6102,-4.6037,-4.5975,-4.588,-4.5814,-4.5805,-4.5805,-4.5462,-4.5027,-4.453,-4.3714,-4.3038,-4.2507,-4.2052,-4.1801,-4.1801,-4.1801,-4.1801,-4.1815,-4.1809,-4.1789,-4.1809,-4.2305,-4.2821,-4.3324,-4.3692,-4.386,-4.3937,-4.4266,-4.4439,-4.4497,-4.4497,-4.481,-4.5297,-4.5747,-4.5922,-4.5964,-4.5964,-4.6017,-4.6093,-4.6093,-4.6146,-4.6196,-4.6196,-4.6196,-4.6196,-4.6196,-4.6203,-4.6201,-4.6201,-4.6201,-4.6195,-4.6195,-4.6206,-4.6192,-4.6192,-4.62,-4.6205,-4.6249,-4.6269,-4.6269,-4.6267,-4.628,-4.6297,-4.6265,-4.628,-4.6178,-4.5807,-4.576,-4.5418,-4.4504,-4.4392,-4.4181,-4.3643,-4.3292,-4.3065,-4.3004,-4.2656,-4.2442,-4.244,-4.2475,-4.2516,-4.255,-4.3418,-4.4038,-4.441,-4.5314,-4.5945,-4.6292,-4.6308,-4.6279,-4.2031,-4.2607,-4.313,-4.3813,-4.4164,-4.4501,-4.5156,-4.5328,-4.5516,-4.6167,-4.6296,-4.6308,-4.6308,-4.626,-4.6231,-4.624,-4.6209,-4.6203,-4.6209,-4.6203,-4.6189,-4.6138,-4.6102,-4.6066,-4.5956,-4.5886,-4.5854,-4.5841,-4.5841,-4.5543,-4.4901,-4.3871,-4.3001,-4.2375,-4.1339,-4.079,-4.079,-4.079,-4.079,-4.079,-4.079,-4.079,-4.081,-4.139,-4.2022,-4.2615,-4.2866,-4.302,-4.3086,-4.3319,-4.3449,-4.352,-4.3753,-4.4239,-4.486,-4.5735,-4.6037,-4.6027,-4.6027,-4.6075,-4.6138,-4.6138,-4.6154,-4.6196,-4.6196,-4.6196,-4.6203,-4.6196,-4.6206,-4.621,-4.6199,-4.6195,-4.6204,-4.6204,-4.6207,-4.6228,-4.6228,-4.6229,-4.623,-4.6262,-4.628,-4.6273,-4.6269,-4.6264,-4.6264,-4.6264,-4.6264,-4.6264,-4.6273,-4.6269,-4.6002,-4.5337,-4.5254,-4.5,-4.435,-4.407,-4.3919,-4.3849,-4.3635,-4.3497,-4.351,-4.3493,-4.3526,-4.3563,-4.4212,-4.4668,-4.4902,-4.5592,-4.6066,-4.63,-4.6292,-4.6308,-4.2071,-4.3337,-4.4634,-4.4654,-4.5306,-4.5938,-4.6059,-4.6128,-4.6189,-4.6273,-4.63,-4.63,-4.63,-4.6292,-4.6303,-4.6303,-4.6245,-4.6203,-4.6203,-4.6209,-4.6196,-4.6196,-4.6138,-4.6093,-4.6093,-4.6027,-4.5975,-4.5898,-4.5905,-4.5861,-4.5775,-4.4194,-4.3285,-4.3266,-4.1661,-4.079,-4.079,-4.079,-4.079,-4.079,-4.079,-4.079,-4.079,-4.0829,-4.0846,-4.0923,-4.1776,-4.2167,-4.2296,-4.3151,-4.351,-4.3575,-4.444,-4.4814,-4.5007,-4.5864,-4.6154,-4.6093,-4.6093,-4.6146,-4.6196,-4.6196,-4.6196,-4.6196,-4.6196,-4.6196,-4.6209,-4.6197,-4.6206,-4.6195,-4.62,-4.6204,-4.6204,-4.6204,-4.6249,-4.6307,-4.6307,-4.6297,-4.6277,-4.6216,-4.6192,-4.6201,-4.6209,-4.6203,-4.6203,-4.6203,-4.6203,-4.6196,-4.6206,-4.6203,-4.6183,-4.6164,-4.6157,-4.6123,-4.6024,-4.5237,-4.4753,-4.4764,-4.3976,-4.3491,-4.3491,-4.3502,-4.3507,-4.3507,-4.3598,-4.4062,-4.4902,-4.4987,-4.548,-4.63,-4.63,-4.63,-4.2626,-4.3644,-4.467,-4.5346,-4.5718,-4.5955,-4.6014,-4.6056,-4.6092,-4.6143,-4.62,-4.623,-4.623,-4.6276,-4.6292,-4.6303,-4.6279,-4.6245,-4.6209,-4.6196,-4.619,-4.6203,-4.6189,-4.6181,-4.6181,-4.6075,-4.5997,-4.5975,-4.5929,-4.5886,-4.588,-4.4782,-4.3918,-4.3388,-4.2265,-4.1416,-4.0877,-4.0877,-4.0877,-4.0877,-4.0877,-4.0877,-4.0877,-4.0877,-4.0868,-4.0878,-4.117,-4.1335,-4.1438,-4.173,-4.2183,-4.2727,-4.3038,-4.3863,-4.4929,-4.5222,-4.5682,-4.6181,-4.6181,-4.6189,-4.6196,-4.6196,-4.6196,-4.6196,-4.6196,-4.6196,-4.6203,-4.6203,-4.6206,-4.6198,-4.6209,-4.6208,-4.6209,-4.6195,-4.6225,-4.6236,-4.6236,-4.6226,-4.6228,-4.6196,-4.6196,-4.619,-4.6203,-4.6196,-4.6189,-4.6146,-4.6162,-4.6203,-4.6196,-4.6162,-4.6138,-4.6138,-4.6093,-4.6066,-4.6047,-4.5755,-4.559,-4.5589,-4.5317,-4.5161,-4.5161,-4.5153,-4.5152,-4.5152,-4.5222,-4.5397,-4.5694,-4.577,-4.5954,-4.6228,-4.623,-4.6228,-4.3288,-4.413,-4.4916,-4.5587,-4.5778,-4.583,-4.5908,-4.5932,-4.5944,-4.6055,-4.6103,-4.6143,-4.616,-4.6207,-4.6247,-4.6258,-4.6251,-4.6261,-4.624,-4.622,-4.6203,-4.6209,-4.6209,-4.6196,-4.6196,-4.6111,-4.6066,-4.6027,-4.5997,-4.5964,-4.5941,-4.511,-4.44,-4.3873,-4.274,-4.1877,-4.1374,-4.1063,-4.0907,-4.0907,-4.0907,-4.0907,-4.0907,-4.1218,-4.1383,-4.1401,-4.1401,-4.1427,-4.1447,-4.1155,-4.1539,-4.2338,-4.265,-4.3643,-4.4929,-4.5241,-4.5709,-4.6196,-4.6196,-4.6196,-4.6196,-4.6196,-4.6196,-4.6196,-4.6196,-4.6196,-4.6203,-4.6203,-4.6195,-4.6207,-4.623,-4.6212,-4.6201,-4.6203,-4.6209,-4.6196,-4.6196,-4.6196,-4.6196,-4.6162,-4.6154,-4.6154,-4.6138,-4.6138,-4.6102,-4.6075,-4.6093,-4.6138,-4.6138,-4.6093,-4.6047,-4.6047,-4.6017,-4.5997,-4.5997,-4.5997,-4.5997,-4.5997,-4.5997,-4.5997,-4.5997,-4.5997,-4.5997,-4.5997,-4.608,-4.6098,-4.6098,-4.6162,-4.6202,-4.6202,-4.6202,-4.6207,-4.3943,-4.4787,-4.5419,-4.5476,-4.5531,-4.5624,-4.5757,-4.5803,-4.5823,-4.596,-4.5999,-4.6008,-4.6083,-4.6105,-4.612,-4.6187,-4.6191,-4.6228,-4.6278,-4.6245,-4.6206,-4.621,-4.6195,-4.6209,-4.6209,-4.6209,-4.6169,-4.6111,-4.6102,-4.6075,-4.6007,-4.522,-4.4753,-4.4715,-4.317,-4.2316,-4.2277,-4.1441,-4.1033,-4.1033,-4.1033,-4.1033,-4.1072,-4.1888,-4.2304,-4.2366,-4.2366,-4.2369,-4.2305,-4.1545,-4.1721,-4.2513,-4.3338,-4.4196,-4.5066,-4.5891,-4.6203,-4.6203,-4.6209,-4.6203,-4.6196,-4.6196,-4.6196,-4.6196,-4.6203,-4.6203,-4.6196,-4.6201,-4.6192,-4.6208,-4.6268,-4.6245,-4.6181,-4.6181,-4.6196,-4.6189,-4.6189,-4.6189,-4.6162,-4.6102,-4.6093,-4.6075,-4.6007,-4.5997,-4.5997,-4.5997,-4.5997,-4.5997,-4.5997,-4.5997,-4.5997,-4.5997,-4.5997,-4.5997,-4.5997,-4.5997,-4.5997,-4.5997,-4.5997,-4.5997,-4.5997,-4.5997,-4.5997,-4.5997,-4.6052,-4.6091,-4.6091,-4.6158,-4.6199,-4.6199,-4.6199,-4.6179,-4.3886,-4.4748,-4.54,-4.5419,-4.5438,-4.5476,-4.5624,-4.5659,-4.5654,-4.5754,-4.5872,-4.5925,-4.5949,-4.6029,-4.6117,-4.612,-4.6173,-4.618,-4.6168,-4.6172,-4.6209,-4.6208,-4.62,-4.6209,-4.6209,-4.6209,-4.6186,-4.6183,-4.6125,-4.6093,-4.6075,-4.5823,-4.5395,-4.4792,-4.4364,-4.3856,-4.3245,-4.3031,-4.2914,-4.2914,-4.2914,-4.2914,-4.2914,-4.3148,-4.3254,-4.328,-4.328,-4.3298,-4.3322,-4.3127,-4.3505,-4.4265,-4.4484,-4.5109,-4.5898,-4.6117,-4.6195,-4.6201,-4.6195,-4.6195,-4.6196,-4.6196,-4.6196,-4.619,-4.6206,-4.6199,-4.6189,-4.6132,-4.6127,-4.6131,-4.6147,-4.6138,-4.6099,-4.6065,-4.6047,-4.6037,-4.6037,-4.6037,-4.6056,-4.6027,-4.6017,-4.6017,-4.6007,-4.5997,-4.5997,-4.5997,-4.5997,-4.5997,-4.5997,-4.5997,-4.5997,-4.5997,-4.5997,-4.5997,-4.5997,-4.5997,-4.5997,-4.5997,-4.5997,-4.5997,-4.5997,-4.5997,-4.5997,-4.5997,-4.6027,-4.6018,-4.6018,-4.6046,-4.6054,-4.6044,-4.6105,-4.6125,-4.4401,-4.4975,-4.5359,-4.54,-4.54,-4.5419,-4.5531,-4.5586,-4.562,-4.5687,-4.577,-4.5824,-4.5841,-4.5936,-4.6026,-4.6053,-4.6117,-4.6153,-4.6156,-4.6156,-4.6166,-4.6208,-4.6191,-4.6208,-4.6204,-4.6204,-4.6204,-4.6204,-4.6171,-4.6137,-4.6137,-4.6099,-4.5884,-4.5435,-4.5045,-4.4451,-4.3645,-4.3645,-4.3636,-4.3596,-4.3636,-4.3636,-4.3621,-4.4007,-4.4165,-4.4179,-4.4179,-4.4186,-4.4194,-4.3844,-4.4171,-4.4901,-4.4894,-4.5431,-4.6206,-4.6198,-4.6198,-4.6192,-4.621,-4.6204,-4.6199,-4.6167,-4.617,-4.6153,-4.6169,-4.6151,-4.6152,-4.6109,-4.6092,-4.6104,-4.6089,-4.6098,-4.6093,-4.6047,-4.6017,-4.5997,-4.5997,-4.5997,-4.5997,-4.5997,-4.5997,-4.5997,-4.5997,-4.5997,-4.5997,-4.5997,-4.5997,-4.5997,-4.5997,-4.5997,-4.5997,-4.5997,-4.5997,-4.5997,-4.5997,-4.5997,-4.5997,-4.5997,-4.5997,-4.5997,-4.5997,-4.5997,-4.5997,-4.5997,-4.5997,-4.5997,-4.5997,-4.5997,-4.5997,-4.5997,-4.6036,-4.6063,-4.5048,-4.5297,-4.5317,-4.5359,-4.54,-4.5419,-4.5476,-4.555,-4.5622,-4.5657,-4.5687,-4.5715,-4.5765,-4.5852,-4.5925,-4.5979,-4.6035,-4.6115,-4.6164,-4.6128,-4.6128,-4.6186,-4.6204,-4.6191,-4.6209,-4.6208,-4.6208,-4.6208,-4.6208,-4.6207,-4.6204,-4.6204,-4.6204,-4.6204,-4.5463,-4.4741,-4.4038,-4.4038,-4.3993,-4.3954,-4.3993,-4.3993,-4.3974,-4.4735,-4.5073,-4.5094,-4.5094,-4.5095,-4.5037,-4.4335,-4.4451,-4.5094,-4.5096,-4.5544,-4.6205,-4.6208,-4.619,-4.619,-4.619,-4.6189,-4.6187,-4.6127,-4.6106,-4.6106,-4.6102,-4.61,-4.61,-4.6095,-4.6097,-4.6089,-4.6089,-4.6098,-4.6084,-4.6084,-4.6037,-4.5997,-4.5997,-4.5997,-4.5997,-4.5997,-4.5997,-4.5997,-4.5997,-4.5997,-4.5997,-4.5997,-4.5997,-4.5997,-4.5997,-4.5997,-4.5997,-4.5997,-4.5997,-4.5997,-4.5997,-4.5997,-4.5997,-4.5997,-4.5997,-4.5997,-4.5997,-4.5997,-4.5997,-4.5997,-4.5997,-4.5997,-4.5997,-4.5997,-4.5997,-4.5997,-4.5997,-4.5997,-4.5048,-4.5297,-4.5297,-4.5317,-4.5359,-4.54,-4.54,-4.5476,-4.555,-4.5603,-4.5651,-4.5715,-4.5715,-4.5824,-4.5899,-4.591,-4.5964,-4.6016,-4.6037,-4.6063,-4.613,-4.6196,-4.6192,-4.6214,-4.6273,-4.6273,-4.6273,-4.6273,-4.6273,-4.6265,-4.6205,-4.6204,-4.6204,-4.6204,-4.6048,-4.5911,-4.5774,-4.5774,-4.5755,-4.5751,-4.5755,-4.5755,-4.5751,-4.5911,-4.5994,-4.6054,-4.6054,-4.6051,-4.6058,-4.5902,-4.593,-4.6054,-4.6065,-4.6129,-4.6191,-4.6192,-4.616,-4.612,-4.6118,-4.6111,-4.6112,-4.6095,-4.6106,-4.6102,-4.6104,-4.6108,-4.6092,-4.6033,-4.6017,-4.6027,-4.6027,-4.6008,-4.6017,-4.6017,-4.6007,-4.5997,-4.5997,-4.5997,-4.5997,-4.5997,-4.5997,-4.5997,-4.5997,-4.5997,-4.5997,-4.5997,-4.5997,-4.5997,-4.5997,-4.5997,-4.5997,-4.5997,-4.5997,-4.5997,-4.5997,-4.5997,-4.5997,-4.5997,-4.5997,-4.5997,-4.5997,-4.5997,-4.6005,-4.6003,-4.6003,-4.6003,-4.6003,-4.6003,-4.5994,-4.5997,-4.5997,-4.5997,-4.5223,-4.5317,-4.5317,-4.5338,-4.5379,-4.54,-4.5438,-4.5495,-4.5568,-4.564,-4.5324,-4.516,-4.5654,-4.5471,-4.5364,-4.5828,-4.596,-4.6003,-4.5997,-4.6066,-4.6111,-4.6196,-4.6209,-4.6236,-4.63,-4.63,-4.63,-4.63,-4.63,-4.629,-4.6247,-4.6248,-4.6248,-4.6248,-4.6248,-4.6248,-4.6248,-4.6248,-4.6249,-4.6249,-4.6249,-4.6249,-4.6249,-4.6249,-4.6264,-4.6297,-4.6297,-4.6293,-4.63,-4.6269,-4.6253,-4.6245,-4.6255,-4.6221,-4.6199,-4.6201,-4.6189,-4.615,-4.6099,-4.6093,-4.6091,-4.6066,-4.604,-4.6053,-4.6049,-4.6052,-4.6044,-4.6017,-4.5997,-4.5997,-4.5997,-4.5997,-4.5997,-4.5997,-4.5997,-4.5997,-4.5997,-4.5997,-4.5997,-4.5997,-4.5997,-4.5997,-4.5997,-4.5997,-4.5997,-4.5997,-4.5997,-4.5997,-4.5997,-4.5997,-4.5997,-4.5997,-4.5997,-4.5997,-4.5997,-4.5997,-4.5997,-4.5994,-4.5994,-4.5975,-4.5953,-4.5953,-4.5953,-4.5949,-4.5949,-4.5949,-4.5949,-4.5949,-4.5941,-4.5953,-4.5953,-4.5953,-4.5341,-4.536,-4.5319,-4.5399,-4.54,-4.5438,-4.5495,-4.5396,-4.5334,-4.5423,-4.4742,-4.4384,-4.5124,-4.4891,-4.4841,-4.5537,-4.5844,-4.6014,-4.6017,-4.6075,-4.6119,-4.6183,-4.6195,-4.6236,-4.63,-4.63,-4.63,-4.63,-4.63,-4.63,-4.63,-4.63,-4.63,-4.63,-4.63,-4.63,-4.63,-4.63,-4.629,-4.6303,-4.629,-4.629,-4.6303,-4.6309,-4.63,-4.63,-4.63,-4.63,-4.63,-4.6245,-4.6211,-4.6206,-4.6203,-4.6183,-4.6189,-4.6189,-4.6162,-4.6146,-4.6093,-4.6084,-4.6075,-4.6017,-4.5997,-4.5997,-4.5997,-4.5997,-4.5997,-4.5997,-4.5997,-4.5997,-4.5997,-4.5997,-4.5997,-4.5997,-4.5997,-4.5997,-4.5997,-4.5997,-4.5997,-4.5997,-4.5997,-4.5997,-4.5997,-4.5997,-4.5997,-4.5997,-4.5997,-4.5997,-4.5997,-4.5997,-4.5986,-4.5986,-4.5997,-4.5997,-4.5997,-4.5986,-4.5994,-4.5991,-4.5991,-4.596,-4.5886,-4.5905,-4.5905,-4.5905,-4.5905,-4.5905,-4.5905,-4.5905,-4.5905,-4.5905,-4.5905,-4.5905,-4.5208,-4.54,-4.54,-4.54,-4.5457,-4.5495,-4.5495,-4.4935,-4.4449,-4.4501,-4.3875,-4.3342,-4.341,-4.4078,-4.4647,-4.4788,-4.5483,-4.6025,-4.6084,-4.6093,-4.6127,-4.6195,-4.6206,-4.6236,-4.63,-4.63,-4.63,-4.63,-4.63,-4.63,-4.63,-4.63,-4.63,-4.63,-4.63,-4.63,-4.63,-4.63,-4.6303,-4.6303,-4.6303,-4.6303,-4.6303,-4.6303,-4.63,-4.63,-4.63,-4.63,-4.63,-4.63,-4.6249,-4.6206,-4.6206,-4.617,-4.6102,-4.6102,-4.6075,-4.6017,-4.6007,-4.6007,-4.6007,-4.6007,-4.5997,-4.5997,-4.5997,-4.5997,-4.5997,-4.5997,-4.5997,-4.5997,-4.5997,-4.5997,-4.5997,-4.5997,-4.5997,-4.5997,-4.5997,-4.5997,-4.5997,-4.5997,-4.5997,-4.5997,-4.5997,-4.5997,-4.5997,-4.5997,-4.5997,-4.5997,-4.5997,-4.5994,-4.6003,-4.6003,-4.6005,-4.6005,-4.6003,-4.6003,-4.5972,-4.5917,-4.5917,-4.5917,-4.5886,-4.5905,-4.5893,-4.5906,-4.5906,-4.5906,-4.5906,-4.5906,-4.5899,-4.5905,-4.5905,-4.5905,-4.4498,-4.471,-4.4787,-4.5323,-4.5111,-4.4783,-4.4781,-4.4145,-4.3602,-4.3647,-4.3003,-4.2604,-4.3169,-4.3163,-4.3451,-4.4533,-4.5032,-4.5463,-4.6007,-4.6138,-4.6176,-4.6201,-4.624,-4.6273,-4.63,-4.63,-4.63,-4.63,-4.63,-4.63,-4.63,-4.63,-4.63,-4.63,-4.63,-4.63,-4.63,-4.63,-4.63,-4.63,-4.63,-4.63,-4.63,-4.63,-4.63,-4.63,-4.6269,-4.624,-4.624,-4.6203,-4.6164,-4.6142,-4.6099,-4.6065,-4.6037,-4.6037,-4.6017,-4.5997,-4.5997,-4.5997,-4.5997,-4.5997,-4.5997,-4.5997,-4.5997,-4.5997,-4.5997,-4.5997,-4.5997,-4.5997,-4.5997,-4.5997,-4.5997,-4.5997,-4.5997,-4.5997,-4.5997,-4.5997,-4.5997,-4.5997,-4.5997,-4.5997,-4.5997,-4.6005,-4.5994,-4.5994,-4.5983,-4.5953,-4.5953,-4.5941,-4.5949,-4.5949,-4.5941,-4.5941,-4.5949,-4.5949,-4.5937,-4.5899,-4.5899,-4.5867,-4.5854,-4.5854,-4.5841,-4.5847,-4.5847,-4.5847,-4.5847,-4.5847,-4.5841,-4.5854,-4.5854,-4.5854,-4.3724,-4.3901,-4.4016,-4.4648,-4.4359,-4.3953,-4.3948,-4.333,-4.2749,-4.2825,-4.216,-4.1757,-4.2443,-4.2324,-4.2539,0.0,0.0,-4.5032,-4.5663,-4.6014,-4.6209,-4.6236,-4.6273,-4.6303,-4.6306,-4.6303,-4.63,-4.63,-4.6066,-4.5929,-4.5929,-4.5675,-4.5773,-4.628,-4.63,-4.63,-4.63,-4.63,-4.63,-4.63,-4.63,-4.63,-4.63,-4.63,-4.63,-4.63,-4.624,-4.6206,-4.6206,-4.6142,-4.613,-4.6093,-4.6056,-4.6017,-4.5997,-4.5997,-4.5997,-4.5997,-4.5997,-4.5997,-4.5997,-4.5997,-4.5997,-4.5997,-4.5997,-4.5997,-4.5997,-4.5997,-4.5997,-4.5997,-4.5997,-4.5997,-4.5997,-4.5997,-4.5997,-4.5997,-4.6005,-4.6005,-4.5986,-4.5975,-4.5975,-4.5975,-4.5975,-4.5972,-4.596,-4.596,-4.5929,-4.5905,-4.5905,-4.5905,-4.5893,-4.5893,-4.588,-4.588,-4.5893,-4.5893,-4.588,-4.586,-4.586,-4.5847,-4.58,-4.58,-4.58,-4.58,-4.58,-4.58,-4.58,-4.58,-4.58,-4.58,-4.58,-4.58,-4.2903,-4.3118,-4.3096,-4.3121,-4.3118,-4.3111,-4.3111,-4.2487,-4.1938,-4.2,-4.1326,-4.0742,-4.0809,-4.1579,-4.2195,-4.2225,-4.3739,-4.4904,-4.4917,-4.566,-4.6216,-4.6296,-4.63,-4.6306,-4.63,-4.629,-4.63,-4.63,-4.55,-4.5012,-4.5012,-4.4192,-4.4524,-4.6241,-4.63,-4.63,-4.63,-4.63,-4.63,-4.63,-4.63,-4.63,-4.63,-4.63,-4.63,-4.63,-4.624,-4.6206,-4.6206,-4.619,-4.6154,-4.6093,-4.6093,-4.6066,-4.5997,-4.5997,-4.5997,-4.5997,-4.5997,-4.5997,-4.5997,-4.5997,-4.5997,-4.5997,-4.5997,-4.5997,-4.5997,-4.5997,-4.5997,-4.5997,-4.5997,-4.5997,-4.5997,-4.5997,-4.5997,-4.5997,-4.6003,-4.5991,-4.5991,-4.5917,-4.5886,-4.5886,-4.5886,-4.5886,-4.5886,-4.5886,-4.5886,-4.5905,-4.5905,-4.5899,-4.5893,-4.5893,-4.5847,-4.5827,-4.5893,-4.5893,-4.586,-4.5814,-4.58,-4.58,-4.58,-4.58,-4.58,-4.58,-4.58,-4.58,-4.58,-4.58,-4.58,-4.58,-4.58,-4.58,-4.2126,-4.2324,-4.241,-4.3011,-4.2718,-4.229,-4.2338,-4.1696,-4.1106,-4.1158,-4.097,-4.0784,-4.0867,-4.1116,-4.1517,-4.2161,-4.3253,-4.4226,-4.4823,-4.566,-4.6221,-4.6284,-4.6301,-4.6301,-4.6307,-4.5756,-4.5414,-4.5402,-4.4602,-4.4114,-4.4114,-4.384,-4.3957,-4.4504,-4.4524,-4.4524,-4.4524,-4.5109,-4.5402,-4.5421,-4.6027,-4.63,-4.63,-4.63,-4.6273,-4.6236,-4.6209,-4.6164,-4.6135,-4.6074,-4.6037,-4.6027,-4.6027,-4.6017,-4.5997,-4.5997,-4.5997,-4.5997,-4.5997,-4.5997,-4.5997,-4.5997,-4.5997,-4.5997,-4.5997,-4.5997,-4.5997,-4.5997,-4.5997,-4.5997,-4.5997,-4.5997,-4.5997,-4.5994,-4.5994,-4.5983,-4.5929,-4.5929,-4.5917,-4.5898,-4.5905,-4.5905,-4.5905,-4.5893,-4.5899,-4.5899,-4.5854,-4.5841,-4.5841,-4.5827,-4.5827,-4.5827,-4.5814,-4.5814,-4.5827,-4.5827,-4.5814,-4.58,-4.58,-4.58,-4.58,-4.58,-4.58,-4.58,-4.58,-4.58,-4.58,-4.58,-4.58,-4.58,-4.58,-4.58,-4.141,-4.1535,-4.166,-4.216,-4.1885,-4.1497,-4.1574,-4.1156,-4.0787,-4.083,-4.0858,-4.0896,-4.0922,-4.0955,-4.1162,-4.1757,-4.285,-4.3833,-4.4366,-4.5475,-4.6254,-4.6303,-4.6306,-4.617,-4.584,-4.5311,-4.4858,-4.4521,-4.3696,-4.3202,-4.3216,-4.2903,-4.2728,-4.2728,-4.3352,-4.3704,-4.3704,-4.4231,-4.4504,-4.4524,-4.5382,-4.5812,-4.5812,-4.6144,-4.6249,-4.6206,-4.6196,-4.6154,0.0,-4.6027,-4.5997,-4.5997,-4.5997,-4.5997,-4.5997,-4.5997,-4.5997,-4.5997,-4.5997,-4.5997,-4.5997,-4.5997,-4.5997,-4.5997,-4.5997,-4.5997,-4.5997,-4.5997,-4.5997,-4.6005,-4.6005,-4.5975,-4.5964,-4.596,-4.596,-4.5949,-4.5912,-4.5893,-4.5893,-4.588,-4.5848,-4.5848,-4.5848,-4.5854,-4.586,-4.586,-4.5833,-4.58,-4.58,-4.58,-4.58,-4.58,-4.58,-4.58,-4.58,-4.58,-4.58,-4.58,-4.58,-4.58,-4.58,-4.58,-4.58,-4.58,-4.58,-4.58,-4.58,-4.58,-4.58,-4.58,-4.58,-4.58,0.0,-4.0861,-4.09,-4.0824,-4.0804,-4.0821,-4.0889,-4.0909,0.0,-4.0916,-4.0955,-4.0998,-4.0999,-4.1058,-4.1084,-4.1093,-4.2558,-4.369,-4.3672,-4.517,-4.6267,-4.6278,-4.6229,-4.5878,-4.5058,-4.4883,-4.4473,-4.3652,-4.279,-4.2314,-4.2301,-4.154,-4.1108,-4.1108,-4.2669,-4.3528,-4.3528,-4.3587,-4.3606,-4.3626,-4.4484,-4.4914,-4.4933,-4.5812,-4.6171,-4.6103,-4.617,-4.6154,-4.6084,-4.6017,-4.5997,-4.5997,-4.5997,-4.5997,-4.5997,-4.5997,-4.5997,-4.5997,-4.5997,-4.5997,-4.5997,-4.5997,-4.5997,-4.5997,-4.5997,-4.5997,-4.5997,-4.5997,-4.5994,-4.5991,-4.5991,-4.5949,-4.5905,-4.5905,-4.5905,-4.5893,-4.5887,-4.5893,-4.586,-4.5814,-4.58,-4.58,-4.58,-4.58,-4.58,-4.58,-4.58,-4.58,-4.58,-4.58,-4.58,-4.58,-4.58,-4.58,-4.58,-4.58,-4.58,-4.58,-4.58,-4.58,-4.58,-4.58,-4.58,-4.58,-4.58,-4.58,-4.58,-4.58,-4.58,-4.58,-4.58,-4.58,-4.1041,0.0,-4.0896,-4.0877,-4.0886,-4.0886,0.0,0.0,0.0,-4.0991,-4.0994,-4.0999,-4.0994,-4.1016,-4.1013,-4.1021,-4.2492,-4.3598,-4.3487,-4.4936,-4.5995,-4.5994,-4.5448,-4.5,-4.4787,-4.3663,-4.2851,-4.2637,-4.1875,-4.1405,-4.1405,-4.1219,-4.1108,-4.1108,-4.1498,-4.1713,-4.1713,-4.2376,-4.2708,-4.2728,-4.3587,-4.4016,-4.4036,-4.486,-4.5226,-4.5248,-4.5854,-4.6084,-4.6017,-4.6007,-4.5997,-4.5997,-4.5997,-4.5997,-4.5997,-4.5997,-4.5997,-4.5997,-4.5997,-4.5997,-4.5997,-4.5997,-4.5997,-4.5997,-4.5994,-4.6005,-4.5997,-4.5997,-4.5994,-4.5991,-4.5991,-4.5949,-4.5905,-4.5899,-4.5887,-4.5887,-4.5827,-4.5814,-4.5814,-4.58,-4.58,-4.58,-4.58,-4.58,-4.58,-4.58,-4.58,-4.58,-4.58,-4.58,-4.58,-4.58,-4.58,-4.58,-4.58,-4.58,-4.58,-4.58,-4.58,-4.58,-4.58,-4.58,-4.58,-4.58,-4.58,-4.58,-4.58,-4.58,-4.58,-4.58,-4.58,-4.58,-4.1091,-4.1041,-4.0996,-4.0996,-4.0974,-4.0952,-4.1035,0.0,0.0,-4.1034,-4.1014,-4.0994,-4.1006,-4.098,-4.0952,-4.0941,-4.2089,-4.3226,-4.3985,-4.4899,-4.5473,-4.544,-4.4703,-4.4029,-4.3588,-4.2778,-4.2104,-4.1777,-4.1348,-4.1094,-4.1094,-4.1103,-4.1091,-4.1094,-4.1091,-4.1108,-4.1108,-4.1576,-4.1791,-4.181,-4.2689,-4.3099,-4.3138,-4.3977,-4.4337,-4.4345,-4.5137,-4.5483,-4.5472,-4.5841,-4.5997,-4.5997,-4.5997,-4.5997,-4.5997,-4.5997,-4.5997,-4.5997,-4.5997,-4.5997,-4.5997,-4.6005,-4.6005,-4.5994,-4.596,-4.5953,-4.5944,-4.5944,-4.596,-4.5956,-4.5956,-4.5912,-4.5854,-4.586,-4.586,-4.5847,-4.5814,-4.58,-4.58,-4.58,-4.58,-4.58,-4.58,-4.58,-4.58,-4.58,-4.58,-4.58,-4.58,-4.58,-4.58,-4.58,-4.58,-4.58,-4.58,-4.58,-4.58,-4.58,-4.58,-4.58,-4.58,-4.58,-4.58,-4.58,-4.58,-4.58,-4.58,-4.58,-4.58,-4.58,-4.58,-4.6013,-4.1075,-4.1075,-4.1075,-4.1091,-4.1042,-4.1016,-4.1081,0.0,0.0,0.0,-4.1028,-4.0983,-4.0983,-4.0939,-4.0881,-4.0881,-4.159,-4.2732,-4.442,-4.4691,-4.4686,-4.463,-4.3869,-4.3018,-4.2223,-4.2041,-4.1723,-4.1099,-4.1073,-4.1094,-4.1094,-4.1103,-4.1094,-4.1101,-4.1094,-4.1108,-4.1108,-4.1108,-4.1108,-4.1108,-4.1849,-4.2197,-4.2233,-4.3095,-4.346,-4.3442,-4.4253,0.0,-4.4851,-4.553,-4.588,-4.5997,-4.5997,-4.5997,-4.5997,-4.5997,-4.5997,-4.5997,-4.5997,-4.5997,-4.6005,-4.6003,-4.5991,-4.596,-4.5917,-4.5905,-4.5905,-4.5893,-4.5899,-4.5893,-4.5893,-4.5847,-4.58,-4.58,-4.58,-4.58,-4.58,-4.58,-4.58,-4.58,-4.58,-4.58,-4.58,-4.58,-4.58,-4.58,-4.58,-4.58,-4.58,-4.58,-4.58,-4.58,-4.58,-4.58,-4.58,-4.58,-4.58,-4.58,-4.58,-4.58,-4.58,-4.58,-4.58,-4.58,-4.58,-4.58,-4.58,-4.5916,-4.5993,-4.5993,-4.6129,-4.6593,-4.0924,-4.0924,-4.0968,-4.1075,-4.1042,-4.1017,-4.1072,-4.1006,-4.0935,0.0,-4.096,-4.0929,-4.0924,-4.0869,-4.082,-4.082,-4.1459,-4.2323,-4.339,-4.3447,-4.34,-4.339,-4.2604,-4.2043,-4.1952,-4.1335,-4.0906,-4.0837,-4.0996,-4.1094,-4.1094,-4.1103,-4.1097,-4.1107,-4.1097,-4.1108,-4.1108,-4.1108,-4.1108,-4.1108,-4.1244,-4.1296,-4.1335,-4.2142,-4.25,-4.2541,0.0,-4.4122,-4.4812,-4.4928,-4.5394,-4.5997,-4.5997,-4.5997,-4.5997,-4.5997,-4.5997,-4.5997,-4.5997,-4.6005,-4.6003,-4.6003,-4.596,-4.5905,-4.5899,-4.5906,-4.5887,-4.5827,-4.586,-4.5893,-4.5893,-4.5847,-4.58,-4.58,-4.58,-4.58,-4.58,-4.58,-4.58,-4.58,-4.58,-4.58,-4.58,-4.58,-4.58,-4.58,-4.58,-4.58,-4.58,-4.58,-4.58,-4.58,-4.58,-4.58,-4.58,-4.58,-4.58,-4.58,-4.58,-4.58,-4.58,-4.58,-4.58,-4.58,-4.58,-4.58,-4.58,-4.6535,-4.6902,-4.6922,-4.7657,-4.8063,-4.0907,-4.0907,-4.0906,-4.0984,-4.0964,-4.0957,-4.0972,-4.0949,-4.0904,-4.0932,-4.0878,-4.084,-4.0849,-4.0815,-4.0788,-4.0757,-4.1429,-4.2112,-4.2524,-4.257,-4.255,-4.2507,-4.174,-4.1205,-4.121,-4.0858,-4.0687,-4.0829,-4.0974,-4.1057,-4.1094,-4.1103,-4.1091,-4.1099,-4.1094,-4.1108,-4.1108,-4.1108,-4.1108,-4.1108,-4.1097,-4.1105,-4.1111,-4.1455,-4.1595,-4.1638,0.0,-4.3025,-4.3433,-4.3899,-4.4598,-4.5356,-4.5356,-4.5608,-4.5997,-4.5997,-4.5997,-4.5997,-4.6005,-4.6003,-4.5991,-4.5956,-4.5932,-4.5899,-4.586,-4.5847,-4.5847,-4.5814,-4.5814,-4.5847,-4.5847,-4.5814,-4.58,-4.58,-4.58,-4.58,-4.58,-4.58,-4.58,-4.58,-4.58,-4.58,-4.58,-4.58,-4.58,-4.58,-4.58,-4.5974,-4.6438,-4.6496,-4.6496,-4.6496,-4.6496,-4.6303,-4.5838,-4.58,-4.58,-4.58,-4.58,-4.58,-4.58,-4.58,-4.58,-4.58,-4.6264,-4.6496,-4.6496,-4.7386,-4.7792,-4.7811,-4.8217,-4.8643,-4.0868,-4.0839,-4.0839,-4.0858,-4.0859,-4.0869,-4.0878,-4.0859,-4.0839,-4.0849,-4.0807,-4.0742,-4.0742,-4.0745,-4.0746,-4.0668,-4.1242,-4.1673,-4.1673,-4.1695,-4.1707,-4.1654,-4.1061,-4.0629,-4.0607,-4.0607,-4.0673,-4.0836,-4.0945,-4.1014,-4.1064,-4.109,-4.1094,-4.1108,-4.1108,-4.1108,-4.1108,-4.1108,-4.1108,-4.1108,-4.1105,-4.1091,-4.1061,-4.1025,-4.0988,-4.1019,-4.1625,-4.2015,-4.2248,-4.2928,-4.3821,-4.4792,-4.4792,-4.5297,-4.5997,-4.5997,-4.5997,-4.6005,-4.6003,-4.5991,-4.5968,-4.5919,-4.5893,-4.586,-4.5814,-4.58,-4.58,-4.58,-4.58,-4.58,-4.58,-4.58,-4.58,-4.58,-4.58,-4.58,-4.58,-4.58,-4.58,-4.58,-4.58,-4.5858,-4.6071,-4.609,-4.6167,-4.638,-4.6399,-4.6651,-4.7308,-4.7405,-4.7405,-4.7405,-4.7405,-4.7134,-4.6457,-4.6399,-4.6399,-4.6399,-4.6206,-4.6187,-4.6399,-4.6399,-4.6399,-4.6399,-4.7057,-4.7371,-4.7371,-4.8226,-4.8651,-4.8651,-4.8864,-4.9308,-4.0803,-4.0726,-4.0648,-4.0694,-4.0769,-4.0798,-4.08,-4.0761,-4.0707,-4.0706,-4.0655,-4.0602,-4.0602,-4.0602,-4.0621,-4.0621,-4.067,-4.0699,-4.0699,-4.0646,-4.0611,-4.0616,-4.0558,-4.0539,-4.0588,-4.0612,-4.0621,-4.072,-4.0894,-4.1003,-4.1019,-4.1071,-4.1101,-4.1111,-4.1108,-4.1108,-4.1108,-4.1108,-4.1108,-4.1108,-4.1105,-4.1061,-4.1013,-4.0991,-4.0971,-4.0917,-4.0966,-4.1451,-4.2189,-4.2267,-4.3277,-4.4792,-4.4792,-4.5297,-4.5997,-4.5997,-4.6005,-4.6003,-4.5991,-4.5956,-4.5906,-4.5906,-4.586,-4.5814,-4.58,-4.58,-4.58,-4.58,-4.58,-4.58,-4.58,-4.58,-4.58,-4.58,-4.58,-4.58,-4.58,-4.58,-4.58,-4.58,-4.58,-4.6051,-4.6864,-4.6999,-4.727,-4.8082,-4.8217,-4.8237,-4.8295,-4.8314,-4.8314,-4.8314,-4.8314,-4.8275,-4.8217,-4.8217,-4.8217,-4.8217,-4.7444,-4.7366,-4.8179,-4.8217,-4.8217,-4.8217,-4.8207,-4.8195,-4.8214,-4.9015,-4.9423,-4.9442,-5.025,-5.0656,-4.0733,-4.0668,-4.0621,-4.0621,-4.0662,0.0,0.0,-4.0662,-4.0635,-4.0648,-4.0615,-4.0588,-4.0588,-4.0593,-4.0598,-4.0598,-4.0554,-4.0539,-4.0539,-4.0523,-4.0523,-4.0558,-4.0573,-4.0588,-4.0646,-4.0654,-4.07,-4.0746,-4.0906,-4.0975,-4.094,-4.1034,-4.1103,-4.1111,-4.1108,-4.1108,-4.1108,-4.1108,-4.1104,-4.1109,-4.1061,-4.1025,-4.1007,-4.0968,-4.0926,-4.0907,-4.0907,-4.1082,-4.1393,-4.1393,-4.2092,-4.3297,-4.4384,-4.5297,-4.5997,-4.5997,-4.6005,-4.5991,-4.5949,-4.5912,-4.5893,-4.5847,-4.5814,-4.58,-4.58,-4.58,-4.58,-4.58,-4.58,-4.58,-4.58,-4.58,-4.58,-4.58,-4.58,-4.58,-4.58,-4.58,-4.58,-4.58,-4.6245,-4.6709,-4.7038,-4.754,-4.8024,-4.8353,-4.8392,-4.8604,-4.9146,-4.9204,-4.9204,-4.9204,-4.872,-4.8377,-4.8342,-4.8342,-4.8559,-4.9048,-4.8327,-4.7994,-4.8323,-4.835,-4.8353,-4.8353,-4.88,-4.9054,-4.9054,-4.9886,-5.031,-5.031,-5.0638,-5.0793,-4.0673,-4.0607,-4.0579,-4.0593,0.0,0.0,-4.0579,-4.0579,-4.0593,-4.0579,-4.0579,-4.0501,-4.0251,-4.0395,-4.0573,-4.0573,-4.0523,-4.0489,-4.0489,-4.0523,-4.0539,-4.0588,-4.0603,-4.0631,-4.0687,-4.07,-4.0733,-4.079,-4.0901,-4.0943,-4.0909,-4.1035,-4.1099,-4.1111,-4.1108,-4.1108,-4.1108,-4.1108,-4.1097,-4.1091,-4.1025,-4.1007,-4.0993,-4.0924,-4.0907,-4.0907,-4.0907,-4.0907,-4.0907,-4.0907,-4.1412,-4.2364,-4.4112,-4.5142,-4.5647,-4.5908,-4.5983,-4.596,-4.5925,-4.5887,-4.586,-4.5814,-4.58,-4.58,-4.58,-4.58,-4.58,-4.58,-4.58,-4.58,-4.58,-4.58,-4.58,-4.58,-4.58,-4.58,-4.58,-4.58,-4.5877,-4.6148,-4.6689,-4.727,-4.7831,-4.8411,-4.8894,-4.9146,-4.9184,-4.9397,-4.9997,-5.0074,-5.0074,-5.0074,-4.9556,-4.9173,-4.9122,-4.9087,-4.9321,-4.9886,-4.9382,-4.907,-4.9087,-4.9092,-4.9095,-4.9095,-4.9618,-4.987,-4.987,-5.0487,-5.0776,-5.0776,-5.0776,-5.0776,-4.0607,-4.0549,-4.0523,-4.0573,0.0,0.0,-4.0489,-4.0539,-4.0573,-4.0504,-4.0489,-4.0239,-3.945,-3.995,-4.0489,-4.0489,-4.0489,-4.0489,-4.0489,-4.0558,-4.0607,-4.0607,-4.0612,-4.0621,-4.07,-4.07,-4.0733,-4.079,-4.0858,-4.0902,-4.0893,-4.1033,-4.1108,-4.1108,-4.1108,-4.1108,-4.1108,-4.1108,-4.1097,-4.1091,-4.1025,-4.0993,-4.0996,-4.0926,-4.0907,-4.0907,-4.0907,-4.0907,-4.0907,-4.0907,-4.1412,-4.2364,-4.4112,-4.4792,-4.4909,-4.5692,-4.596,-4.5905,-4.5887,-4.586,-4.58,-4.58,-4.58,-4.58,-4.58,-4.58,-4.58,-4.58,-4.58,-4.58,-4.58,-4.58,-4.58,-4.58,-4.58,-4.58,-4.58,-4.58,-4.6071,-4.6941,-4.7115,-4.7676,-4.9397,-4.9707,-4.9977,-5.079,-5.0906,-5.0906,-5.0906,-5.0906,-5.0906,-5.0906,-5.0897,-5.0899,-5.0899,-5.0846,-5.0793,-5.0793,-5.0757,-5.072,-5.0793,-5.0793,-5.0793,-5.0793,-5.072,-5.0701,-5.0701,-5.0683,-5.0702,-5.0702,-5.0702,-5.0702,-4.0598,-4.0554,-4.0504,-4.0523,-4.0504,-4.0489,-4.0489,-4.0523,0.0,-3.9792,-3.9662,-3.9565,-3.9335,-3.995,-4.0489,-4.0489,-4.0489,-4.0489,-4.0489,-4.0558,-4.0603,-4.0612,-4.064,-4.07,-4.0759,-4.0778,-4.0769,-4.0811,-4.0863,-4.092,-4.0969,-4.105,-4.1108,-4.1108,-4.1108,-4.1101,-4.1105,-4.1105,-4.1086,-4.1025,-4.1018,-4.1003,-4.0996,-4.0926,-4.0907,-4.0907,-4.0907,-4.0907,-4.0907,-4.0907,-4.1412,-4.2306,-4.3433,-4.4238,-4.4838,-4.5692,-4.5968,-4.5887,-4.5906,-4.586,-4.58,-4.58,-4.58,-4.58,-4.58,-4.58,-4.58,-4.58,-4.58,-4.58,-4.58,-4.58,-4.58,-4.58,-4.58,-4.5974,-4.6573,-4.6709,-4.696,-4.785,-4.8508,-4.9088,-4.961,-5.0171,-5.0635,-5.0867,-5.0906,-5.0906,-5.0906,-5.0893,-5.0897,-5.0897,-5.0863,-5.081,-5.0757,-5.0738,-5.0739,-5.074,-5.0721,-5.0721,-5.072,-5.074,-5.074,-5.074,-5.0721,-5.0683,-5.0683,-5.0702,-5.0702,-5.0702,-5.0702,-5.0702,-4.0554,-4.0539,-4.0489,-4.0489,-4.0258,-3.9931,-3.9585,-3.9758,-3.9777,-3.895,-3.9065,-3.9181,-3.8854,-3.9719,-4.0489,-4.0489,-4.0489,-4.0504,-4.0539,-4.0592,-4.0636,-4.064,-4.072,-4.0804,-4.0829,-4.0812,-4.081,-4.0843,-4.0908,-4.0964,-4.0994,-4.1068,-4.1104,-4.1097,-4.1097,-4.1085,-4.1056,-4.1056,-4.1033,-4.0996,-4.0996,-4.0988,-4.0971,-4.0917,-4.0907,-4.0907,-4.0907,-4.0907,-4.0907,-4.0907,-4.1209,-4.1762,-4.2636,-4.3479,-4.4281,-4.5122,-4.5641,-4.5893,-4.586,-4.5827,-4.58,-4.58,-4.58,-4.58,-4.58,-4.58,-4.58,-4.58,-4.58,-4.58,-4.58,-4.58,-4.58,-4.58,-4.6051,-4.6457,-4.698,-4.7366,-4.7869,-4.8759,-4.9339,-4.9803,-5.0132,-5.0577,-5.0906,-5.0906,-5.0909,-5.0893,-5.0893,-5.088,-5.0863,-5.0863,-5.0793,-5.0738,-5.0701,-5.0702,-5.0702,-5.0683,-5.0702,-5.0702,-5.0683,-5.0702,-5.0702,-5.0702,-5.0702,-5.0702,-5.0702,-5.0702,-5.0702,-5.0702,-5.0702,-5.0702,-4.0489,-4.0489,-4.0469,-4.0412,-3.9777,-3.8969,-3.818,-3.8546,-3.8834,-3.8046,-3.8507,-3.8854,-3.8123,-3.9315,-4.0427,-4.05,-4.0523,-4.0539,-4.0603,-4.0694,-4.0723,-4.0726,-4.0829,-4.09,-4.0905,-4.084,-4.0832,-4.0903,-4.0971,-4.0994,-4.1015,-4.1066,-4.1101,-4.1096,-4.1091,-4.1081,-4.1007,-4.1007,-4.1006,-4.0988,-4.0988,-4.0971,-4.0907,-4.0907,-4.0907,-4.0907,-4.0907,-4.0907,-4.0907,-4.0907,-4.0908,-4.0974,-4.1858,-4.2671,-4.3501,-4.4298,-4.5157,-4.5893,-4.5814,-4.58,-4.58,-4.58,-4.58,-4.58,-4.58,-4.58,-4.58,-4.58,-4.58,-4.5819,-4.5896,-4.5916,-4.5935,-4.6013,-4.6573,-4.7134,-4.7289,-4.7966,-4.8778,-4.9649,-4.9803,-5.0035,-5.077,-5.0906,-5.0906,-5.089,-5.0897,-5.0899,-5.0899,-5.0846,-5.0793,-5.0793,-5.0739,-5.0701,-5.0701,-5.0702,-5.0702,-5.0702,-5.0702,-5.0702,-5.0702,-5.0702,-5.0702,-5.0702,-5.0702,-5.0702,-5.0702,-5.0702,-5.0702,-5.0702,-5.0702,-5.0702,-4.0489,-4.0489,-4.0335,-3.9719,-3.8911,-3.8238,-3.8046,-3.7623,-3.7219,-3.7026,-3.7142,-3.7411,-3.7911,-3.8854,-3.9803,-4.0532,-4.0656,-4.068,-4.0752,-4.0797,-4.0862,-4.0869,-4.0884,-4.0901,-4.0904,-4.0835,-4.0857,-4.098,-4.0991,-4.1016,-4.1082,-4.1094,-4.1101,-4.1096,-4.1091,-4.107,-4.1011,-4.1011,-4.0968,-4.0926,-4.0926,-4.0917,-4.0907,-4.0907,-4.0907,-4.0907,-4.0907,-4.0898,-4.0898,-4.0898,-4.0877,-4.0915,-4.1768,-4.261,-4.3427,-4.4286,-4.5125,-4.5814,-4.5814,-4.58,-4.58,-4.58,-4.58,-4.58,-4.58,-4.58,-4.58,-4.58,-4.58,-4.5955,-4.6631,-4.6825,-4.698,-4.7676,-4.7463,-4.7463,-4.8856,-4.9301,-4.9668,-5.048,-5.0654,-5.0712,-5.0867,-5.0906,-5.0909,-5.0897,-5.0899,-5.0883,-5.0829,-5.0775,-5.072,-5.072,-5.0721,-5.0702,-5.0702,-5.0702,-5.0702,-5.0702,-5.0702,-5.0702,-5.0702,-5.0702,-5.0702,-5.0702,-5.0702,-5.0702,-5.0702,-5.0702,-5.0702,-5.0702,-5.0702,-5.0702,-4.0444,-4.0492,-4.02,-3.8969,-3.8334,-3.7796,-3.6988,-3.6449,-3.6142,-3.6142,-3.643,-3.6853,-3.7296,-3.845,-3.9507,-4.0003,-4.0442,-4.0759,-4.084,-4.0906,-4.0952,-4.0937,-4.0955,-4.0947,-4.0947,-4.0925,-4.0929,-4.1033,-4.1052,-4.1066,-4.1097,-4.1094,-4.1096,-4.1052,-4.1052,-4.1025,-4.0943,-4.0943,-4.0935,-4.0907,-4.0907,-4.0907,-4.0907,-4.0907,-4.0907,-4.0907,-4.0888,-4.0898,-4.0897,-4.0867,-4.0826,-4.0843,-4.1288,-4.2226,-4.335,-4.3815,-4.475,-4.58,-4.58,-4.58,-4.58,-4.58,-4.58,-4.58,-4.58,-4.58,-4.58,-4.58,-4.58,-4.5896,-4.6361,-4.6786,-4.7308,-4.8198,-4.8372,-4.8585,-4.9494,-4.9997,-5.0403,-5.0828,-5.0906,-5.0906,-5.0906,-5.0909,-5.0897,-5.0899,-5.0846,-5.0793,-5.0757,-5.072,-5.0702,-5.0702,-5.0702,-5.0702,-5.0702,-5.0702,-5.0702,-5.0702,-5.0702,-5.0702,-5.0702,-5.0702,-5.0702,-5.0702,-5.0702,-5.0702,-5.0702,-5.0702,-5.0702,-5.0702,-5.0702,-5.0702,-4.0325,-4.0329,-3.9912,-3.8373,-3.7892,-3.7373,-3.5853,-3.5493,-3.5493,-3.5493,-3.6045,-3.6546,-3.668,-3.7939,-3.9064,-3.9378,-4.0094,-4.0684,-4.0894,-4.0994,-4.1031,-4.1022,-4.1013,-4.0996,-4.1013,-4.1009,-4.1034,-4.1088,-4.1081,-4.107,-4.1086,-4.1086,-4.1064,-4.0996,-4.0996,-4.0971,-4.0907,-4.0907,-4.0907,-4.0907,-4.0898,-4.0898,-4.0898,-4.0898,-4.0898,-4.0898,-4.0888,-4.0877,-4.0886,-4.0826,-4.0804,-4.0808,-4.0808,-4.1821,-4.3305,-4.3305,-4.4369,-4.58,-4.58,-4.58,-4.58,-4.58,-4.58,-4.58,-4.58,-4.58,-4.58,-4.58,-4.58,-4.5819,-4.5993,-4.667,-4.754,-4.8411,-4.9281,-4.9919,-4.9919,-5.0442,-5.0906,-5.0906,-5.089,-5.0909,-5.0874,-5.0877,-5.0883,-5.0883,-5.0775,-5.0701,-5.0702,-5.0702,-5.0702,-5.0702,-5.0702,-5.0702,-5.0702,-5.0702,-5.0702,-5.0702,-5.0702,-5.0702,-5.0702,-5.0702,-5.0702,-5.0702,-5.0702,-5.0702,-5.0702,-5.0702,-5.0702,-5.0702,-5.0702,-5.0702,-4.0139,-3.9857,-3.9219,-3.8238,-3.743,-3.6642,-3.5718,-3.5493,-3.5493,-3.5493,-3.5603,-3.5872,-3.6584,-3.6993,-3.7746,-3.9309,-3.9733,-4.0135,-4.0953,-4.1133,-4.1149,-4.1087,-4.1048,-4.1027,-4.1084,-4.1032,-4.1027,-4.1085,-4.1056,-4.1006,-4.1019,-4.1019,-4.102,-4.0996,-4.0996,-4.0971,-4.0907,-4.0907,-4.0907,-4.0907,-4.0898,-4.0907,-4.0907,-4.0848,-4.0848,-4.0907,-4.0848,-4.0815,-4.0812,-4.08,-4.0808,-4.0803,-4.0803,-4.1816,-4.3305,-4.3305,-4.4369,-4.58,-4.58,-4.58,-4.58,-4.58,-4.58,-4.58,-4.58,-4.58,-4.58,-4.58,-4.58,-4.5974,-4.6728,-4.756,-4.845,-4.932,-5.0152,-5.0751,-5.0751,-5.0828,-5.0906,-5.0906,-5.0893,-5.088,-5.0827,-5.081,-5.0793,-5.0739,-5.0701,-5.0702,-5.0702,-5.0702,-5.0702,-5.0702,-5.0702,-5.0702,-5.0702,-5.0702,-5.0702,-5.0702,-5.0702,-5.0702,-5.0702,-5.0702,-5.0702,-5.0702,-5.0702,-5.0702,-5.0702,-5.0702,-5.0702,-5.0702,-5.0702,-5.0702,-4.0195,-4.0156,-3.9706,-3.8392,-3.7728,-3.7084,-3.5784,-3.5495,-3.5495,-3.5495,-3.5528,-3.5676,-3.6007,-3.6586,-3.7276,-3.8105,-3.9127,-3.9954,-4.0363,-4.0839,-4.1123,-4.1091,-4.1074,-4.1072,-4.1109,-4.1062,-4.1058,-4.1037,-4.1019,-4.1,-4.0999,-4.0999,-4.0984,-4.0963,-4.0935,-4.0926,-4.0907,-4.0907,-4.0898,-4.0898,-4.0907,-4.0877,-4.0848,-4.0815,-4.0815,-4.0837,-4.0815,-4.0792,-4.08,-4.0796,-4.0803,-4.079,-4.079,-4.1816,-4.3305,-4.3305,-4.4369,-4.58,-4.58,-4.58,-4.58,-4.58,-4.58,-4.58,-4.58,-4.58,-4.58,-4.58,-4.58,-4.5877,-4.6264,-4.7386,-4.8508,-4.8875,-4.9958,-5.0906,-5.0906,-5.0909,-5.0877,-5.0861,-5.0844,-5.0827,-5.081,-5.0775,-5.072,-5.0701,-5.0702,-5.0702,-5.0683,-5.0702,-5.0702,-5.0702,-5.0702,-5.0702,-5.0702,-5.0702,-5.0702,-5.0702,-5.0702,-5.0702,-5.0702,-5.0702,-5.0914,-5.1356,-5.0933,-5.0702,-5.0702,-5.0702,-5.0702,-5.0702,-5.0702,-5.0702,-4.0266,-4.0489,-4.0251,-3.8794,-3.8232,-3.7646,-3.617,-3.5682,-3.5528,-3.5528,-3.5572,-3.5611,-3.5643,-3.6265,-3.6851,-3.7147,-3.8354,-3.9383,-3.9843,-4.0418,-4.0873,-4.1088,-4.1104,-4.1094,-4.1106,-4.1075,-4.1045,-4.1,-4.0986,-4.0972,-4.096,-4.098,-4.0943,-4.0907,-4.0907,-4.0907,-4.0898,-4.0869,-4.0878,-4.0877,-4.0867,-4.0856,-4.0796,-4.08,-4.08,-4.0804,-4.08,-4.0808,-4.0808,-4.0803,-4.079,-4.079,-4.079,-4.168,-4.2995,-4.3227,-4.4233,-4.551,-4.5722,-4.58,-4.58,-4.58,-4.58,-4.58,-4.58,-4.58,-4.58,-4.58,-4.58,-4.58,-4.58,-4.7096,-4.8392,-4.8392,-4.9687,-5.089,-5.0909,-5.0897,-5.0883,-5.0793,-5.0775,-5.0775,-5.0757,-5.072,-5.0702,-5.0702,-5.0683,-5.0702,-5.0702,-5.0702,-5.0702,-5.0702,-5.0702,-5.0702,-5.0702,-5.0702,-5.0779,-5.0991,-5.0991,-5.1106,-5.1318,-5.1337,-5.1625,-5.2222,-5.1645,-5.1221,-5.0991,-5.0798,-5.0702,-5.0702,-5.0702,-5.0702,-4.0264,-4.045,-4.0395,-3.9527,-3.8717,-3.7868,-3.6942,-3.6132,-3.5591,-3.5591,-3.5596,-3.5628,-3.5777,-3.5822,-3.6163,-3.7051,-3.7335,-3.8002,-3.9674,-3.9937,-4.0249,-4.101,-4.1105,-4.1106,-4.1091,-4.1039,-4.1003,-4.0996,-4.0943,-4.0917,-4.0907,-4.0907,-4.0888,-4.0907,-4.0907,-4.0898,-4.0907,-4.0848,-4.0807,-4.0807,-4.0812,-4.08,-4.08,-4.0796,-4.0803,-4.0803,-4.0803,-4.0803,-4.0803,-4.079,-4.079,-4.079,-4.079,-4.1313,-4.2164,-4.2995,-4.3885,-4.4775,-4.5529,-4.58,-4.58,-4.58,-4.58,-4.58,-4.58,-4.58,-4.58,-4.58,-4.58,-4.58,-4.58,-4.7096,-4.8392,-4.8392,-4.9687,-5.0909,-5.0897,-5.0899,-5.0846,-5.072,-5.0701,-5.0702,-5.0702,-5.0702,-5.0702,-5.0702,-5.0683,-5.0702,-5.0702,-5.0702,-5.0702,-5.0702,-5.0702,-5.0702,-5.0702,-5.0702,-5.1029,-5.1798,-5.1856,-5.2222,-5.3049,-5.3068,-5.3087,-5.3126,-5.3087,-5.2664,-5.1856,-5.1068,-5.0702,-5.0702,-5.0702,-5.0702,-4.0383,-4.0545,-4.0474,-3.967,-3.92,-3.8575,-3.7179,-3.6651,-3.6284,-3.5724,-3.5631,-3.5693,-3.5778,-3.6259,-3.658,-3.645,-3.7393,-3.816,-3.8222,-3.9195,-3.9989,-4.0246,-4.0764,-4.1075,-4.1039,-4.1011,-4.098,-4.0935,-4.0917,-4.0907,-4.0907,-4.0907,-4.0907,-4.0907,-4.0907,-4.0898,-4.0907,-4.0818,-4.0796,-4.0792,-4.08,-4.0808,-4.0815,-4.0803,-4.079,-4.079,-4.079,-4.079,-4.079,-4.079,-4.079,-4.079,-4.079,-4.1293,-4.2106,-4.2976,-4.3846,-4.4717,-4.551,-4.58,-4.58,-4.58,-4.58,-4.58,-4.58,-4.58,-4.58,-4.58,-4.58,-4.58,-4.58,-4.7096,-4.8682,-4.9753,-5.0452,-5.088,-5.0793,-5.0775,-5.0757,-5.0702,-5.0702,-5.0702,-5.0683,-5.0702,-5.0702,-5.0702,-5.0702,-5.0702,-5.0702,-5.0702,-5.0702,-5.0702,-5.1164,-5.1471,-5.1471,-5.1972,-5.2433,-5.2722,-5.2741,-5.2876,-5.3203,-5.3203,-5.3453,-5.403,-5.3491,-5.3049,-5.2741,-5.1875,-5.1471,-5.1471,-5.0933,-5.0702,-4.0446,-4.0607,-4.061,-4.0075,-3.9683,-3.9136,-3.8028,-3.7324,-3.6733,-3.6153,-3.5867,-3.58,-3.6149,-3.6931,-3.7297,-3.6562,-3.7643,-3.8394,-3.7828,-3.8974,-3.986,-3.9804,-4.0549,-4.1052,-4.1003,-4.098,-4.0943,-4.0888,-4.0898,-4.0898,-4.0898,-4.0888,-4.0859,-4.0859,-4.0868,-4.0877,-4.0876,-4.0815,-4.0812,-4.0808,-4.0808,-4.0796,-4.079,-4.079,-4.079,-4.079,-4.079,-4.079,-4.079,-4.079,-4.079,-4.079,-4.079,-4.1119,-4.1738,-4.2879,-4.3672,-4.433,-4.5413,-4.58,-4.58,-4.58,-4.58,-4.58,-4.58,-4.58,-4.58,-4.58,-4.58,-4.5805,-4.5805,-4.7086,-4.8713,-5.0127,-5.0651,-5.0812,-5.072,-5.0701,-5.0702,-5.0702,-5.0702,-5.0702,-5.0702,-5.0702,-5.0702,-5.0702,-5.0702,-5.0702,-5.0702,-5.0702,-5.0702,-5.0702,-5.1414,-5.1914,-5.1914,-5.2702,-5.3318,-5.3626,-5.3645,-5.376,-5.403,-5.4049,-5.4318,-5.4895,-5.4337,-5.4049,-5.4049,-5.2895,-5.2337,-5.2318,-5.1798,-5.1529,0.0,0.0,0.0,-4.079,-4.0152,-3.9526,-3.9507,-3.816,-3.6942,-3.6942,-3.6303,-3.5994,-3.6872,-3.7816,-3.8206,-3.7489,-3.8082,-3.8626,-3.8606,-3.9286,-3.9794,-3.9804,-4.0513,-4.0996,-4.0996,-4.0935,-4.0907,-4.0907,-4.0898,-4.0907,-4.0907,-4.0798,-4.0749,-4.0729,-4.0734,-4.0742,-4.0742,-4.0706,-4.0732,-4.0752,-4.0752,-4.0771,-4.079,-4.079,-4.079,-4.079,-4.079,-4.079,-4.079,-4.079,-4.079,-4.079,-4.079,-4.079,-4.1003,-4.2686,-4.3305,-4.3537,-4.522,-4.58,-4.58,-4.58,-4.58,-4.58,-4.58,-4.58,-4.58,-4.58,-4.5791,-4.58,-4.5819,-4.7063,-4.8514,-4.9377,-5.0156,-5.0701,-5.0701,-5.0701,-5.0702,-5.0702,-5.0702,-5.0702,-5.0702,-5.0702,-5.0702,-5.0702,-5.0702,-5.0702,-5.0702,-5.0702,-5.0702,-5.0721,-5.1471,-5.1952,-5.1972,-5.2779,-5.3626,-5.4472,-5.453,-5.4895,-5.5665,-5.5703,-5.5703,-5.5703,-5.5703,-5.5703,-5.5703,-5.4049,-5.3241,-5.3241,-5.3222,-5.3203,-4.0462,0.0,0.0,0.0,0.0,0.0,-3.9642,-3.8644,-3.7851,-3.7851,-3.7154,-3.6867,-3.7821,-3.8733,-3.9286,-3.9127,-3.9352,-3.9312,-3.8684,-3.9291,-3.978,-3.9719,-4.048,-4.098,-4.0935,-4.0917,-4.0907,-4.0907,-4.0898,-4.0907,-4.0907,-4.0285,-3.9644,-3.9004,-3.9002,-3.898,-3.898,-3.8946,-3.9243,-3.9874,-3.9874,-4.0191,-4.079,-4.079,-4.079,-4.079,-4.079,-4.079,-4.079,-4.079,-4.079,-4.079,-4.079,-4.079,-4.1003,-4.2686,-4.3305,-4.3537,-4.522,-4.58,-4.58,-4.58,-4.58,-4.58,-4.58,-4.58,-4.58,-4.5791,-4.5795,-4.5935,-4.6522,-4.7468,-4.8511,-4.9329,-5.0122,-5.0702,-5.0702,-5.0702,-5.0702,-5.0683,-5.0702,-5.0702,-5.0702,-5.0702,-5.0702,-5.0702,-5.0702,-5.0702,-5.0702,-5.0702,-5.0914,-5.151,-5.2337,-5.3106,-5.3722,-5.453,-5.5107,-5.5338,-5.5376,-5.5472,-5.5684,-5.5703,-5.5703,-5.5703,-5.5703,-5.5703,-5.5703,-5.4645,-5.4145,-5.4126,-5.3491,-5.3203,-4.0383,-4.0545,-4.0681,-4.0778,0.0,0.0,-4.0152,-3.9359,-3.874,-3.874,-3.8044,-3.7738,-3.8714,-3.9335,-3.9832,-4.0238,-4.0365,-4.0095,-3.9229,-3.9782,-4.0154,-3.9747,-4.0439,-4.0935,-4.0888,-4.0898,-4.0898,-4.0907,-4.0528,-4.0167,-3.9788,-3.9293,-3.8778,-3.8274,-3.8252,-3.826,-3.826,-3.823,-3.845,-3.8953,-3.9321,-3.9777,-4.0268,-4.0616,-4.079,-4.079,-4.079,-4.079,-4.079,-4.079,-4.079,-4.079,-4.079,-4.079,-4.1003,-4.2686,-4.3305,-4.3537,-4.522,-4.58,-4.58,-4.58,-4.58,-4.58,-4.58,-4.58,-4.5791,-4.5795,-4.5781,-4.5866,-4.634,-4.7359,-4.8381,-4.885,-4.9854,-5.0702,-5.0702,-5.0702,-5.0702,-5.0702,-5.0702,-5.0702,-5.0702,-5.0702,-5.0702,-5.0702,-5.0702,-5.0702,-5.0702,-5.0702,-5.0875,-5.1356,-5.2491,-5.3414,-5.3914,-5.503,-5.5703,-5.5703,-5.5703,-5.5703,-5.5703,-5.5703,-5.5703,-5.5703,-5.5703,-5.5703,-5.5703,-5.5222,-5.4991,-5.4991,-5.4472,-5.4241,-4.0248,-4.0383,-4.054,-4.0713,-4.079,0.0,-4.079,-4.0133,-3.9526,-3.9623,-3.8965,-3.864,-3.9566,-3.9809,-4.0096,-4.0869,-4.107,-4.0826,-4.0058,-4.0547,-4.0707,-3.9941,-4.0474,-4.0907,-4.0907,-4.0898,-4.0898,-4.0898,-4.0031,-3.9085,-3.8121,-3.8063,-3.8005,-3.7928,-3.7928,-3.7928,-3.7928,-3.7928,-3.7967,-3.8083,-3.8934,-3.941,-3.9526,-4.0404,-4.079,-4.079,-4.079,-4.079,-4.079,-4.079,-4.079,-4.079,-4.079,-4.079,-4.1003,-4.2686,-4.3305,-4.3537,-4.522,-4.58,-4.58,-4.58,-4.58,-4.58,-4.58,-4.5805,-4.58,-4.58,-4.575,-4.57,-4.569,-4.6868,-4.8081,-4.816,-4.9412,-5.0567,-5.0664,-5.0702,-5.0702,-5.0702,-5.0702,-5.0702,-5.0702,-5.0702,-5.0702,-5.0702,-5.0702,-5.0702,-5.0702,-5.0702,-5.0721,-5.0818,-5.2241,-5.3241,-5.3337,-5.478,-5.5703,-5.5703,-5.5703,-5.5703,-5.5703,-5.5703,-5.5703,-5.5703,-5.5703,-5.5703,-5.5703,-5.5703,-5.5703,-5.5703,-5.5703,-5.5703,-4.0139,-4.0317,-4.0511,-4.0559,-4.0668,0.0,-4.079,-4.0133,-3.97,-4.0404,-3.9909,-3.9596,-4.0481,-4.071,-4.0816,-4.1052,-4.1091,-4.1035,-4.0878,-4.0935,-4.0935,-4.076,-4.0843,-4.0907,-4.0907,-4.0898,-4.0907,-4.0888,-4.002,-3.8814,-3.7232,-3.7154,-3.6864,-3.6207,-3.6187,-3.6187,-3.6187,-3.6187,-3.6516,-3.7154,-3.8044,-3.8818,-3.9526,-4.0404,-4.079,-4.079,-4.079,-4.079,-4.079,-4.079,-4.079,-4.079,-4.079,-4.079,-4.1003,-4.2686,-4.3305,-4.3537,-4.522,-4.58,-4.58,-4.58,-4.58,-4.58,-4.58,-4.5805,-4.58,-4.5722,-4.5703,-4.5684,-4.562,-4.6425,-4.7383,-4.7988,-4.8894,-4.9856,-5.0548,-5.0702,-5.0702,-5.0702,-5.0702,-5.0702,-5.0702,-5.0702,-5.0702,-5.0702,-5.0702,-5.0702,-5.0702,-5.0702,-5.0952,-5.1606,-5.2587,-5.3491,-5.4184,-5.5145,-5.5703,-5.5703,-5.5703,-5.5703,-5.5703,-5.5703,-5.5703,-5.5703,-5.5703,-5.5703,-5.5703,-5.5703,-5.5703,-5.5703,-5.5703,-5.5703,-4.0081,-4.0213,-4.0334,-4.0481,-4.0574,0.0,0.0,-4.0462,-4.0268,-4.0713,-4.0483,-4.0343,-4.0801,-4.0943,-4.103,-4.1085,-4.1089,-4.1105,-4.1103,-4.1048,-4.1007,-4.1008,-4.0945,-4.0907,-4.0907,-4.0898,-4.0722,-4.0245,-3.9389,-3.831,-3.6961,-3.6516,-3.6099,-3.5662,-3.5643,-3.5643,-3.5643,-3.5651,-3.5875,-3.6303,-3.7162,-3.8013,-3.8876,-3.9746,-4.0384,-4.079,-4.079,-4.079,-4.079,-4.079,-4.079,-4.079,-4.079,-4.079,-4.1003,-4.2686,-4.3305,-4.3537,-4.522,-4.58,-4.58,-4.58,-4.58,-4.58,-4.58,-4.5791,-4.575,-4.5726,-4.5687,-4.5684,-4.562,-4.6309,-4.7191,-4.7912,-4.8779,-4.9644,-5.051,-5.0702,-5.0702,-5.0702,-5.0702,-5.0702,-5.0702,-5.0702,-5.0702,-5.0702,-5.0702,-5.0702,-5.0702,-5.0702,-5.0837,-5.126,-5.2049,-5.2914,-5.378,-5.4626,-5.5261,-5.5665,-5.5703,-5.5703,-5.5703,-5.5703,-5.5703,-5.5703,-5.5703,-5.5703,-5.5703,-5.5703,-5.5703,-5.5703,-5.5703,-5.5703,-4.025,-4.0214,-4.0158,-4.0367,-4.0446,-4.054,0.0,0.0,0.0,-4.079,-4.0812,-4.0839,-4.0878,-4.0971,-4.1038,-4.1085,-4.111,-4.1103,-4.11,-4.1035,-4.0991,-4.0996,-4.094,-4.0907,-4.0907,-4.0898,-4.0507,-3.9561,-3.8903,-3.8136,-3.7193,-3.6381,-3.5905,-3.5852,-3.5678,-3.5601,-3.5601,-3.5596,-3.5628,-3.5693,-3.6446,-3.723,-3.7974,-3.8967,-3.9837,-4.0558,-4.0732,-4.079,-4.079,-4.079,-4.079,-4.079,-4.079,-4.079,-4.0984,-4.2492,-4.3169,-4.3518,-4.5045,-4.5664,-4.58,-4.58,-4.58,-4.58,-4.58,-4.5742,-4.57,-4.569,-4.5706,-4.5668,-4.562,-4.6174,-4.694,-4.7701,-4.8529,-4.9394,-5.026,-5.0567,-5.0702,-5.0702,-5.0702,-5.0702,-5.0702,-5.0702,-5.0702,-5.0702,-5.0702,-5.0702,-5.0702,-5.0702,-5.0702,-5.0702,-5.1414,-5.226,-5.3126,-5.3991,-5.4838,-5.5645,-5.5703,-5.5703,-5.5703,-5.5703,-5.5703,-5.5703,-5.5703,-5.5703,-5.5703,-5.5703,-5.5703,-5.5703,-5.5703,-5.5703,-4.0862,-4.0589,-4.0101,-4.0139,-4.0317,-4.0511,-4.0526,0.0,-4.079,-4.079,0.0,-4.0878,-4.0907,0.0,0.0,-4.111,-4.111,-4.1097,-4.11,-4.1035,-4.0996,-4.1003,-4.094,-4.0907,-4.0907,-4.0839,-4.0447,-3.9561,-3.9422,-3.8984,-3.8102,-3.7232,-3.6756,-3.674,-3.6006,-3.5589,-3.5604,-3.5604,-3.5604,-3.5623,-3.6257,-3.6713,-3.7088,-3.8507,-3.9326,-3.97,-4.0462,-4.079,-4.079,-4.079,-4.079,-4.079,-4.079,-4.079,-4.0906,-4.1816,-4.2647,-4.344,-4.4407,-4.52,-4.58,-4.58,-4.58,-4.58,-4.581,-4.5746,-4.57,-4.569,-4.5709,-4.5673,-4.5622,-4.5734,-4.6059,-4.6854,-4.7663,-4.849,-4.9356,-5.0144,-5.0702,-5.0702,-5.0702,-5.0702,-5.0702,-5.0702,-5.0702,-5.0702,-5.0702,-5.0702,-5.0702,-5.0702,-5.0702,-5.0702,-5.1414,-5.226,-5.3126,-5.3991,-5.4838,-5.5645,-5.5703,-5.5703,-5.5703,-5.564,-5.564,-5.5703,-5.564,-5.564,-5.5703,-5.5703,-5.5703,-5.5703,-5.5703,-5.5703,-4.1806,-4.132,-4.076,-4.0843,-4.0558,-4.0283,-4.0367,-4.0496,-4.0621,-4.0621,0.0,0.0,0.0,0.0,0.0,0.0,-4.111,-4.1091,-4.1097,-4.1046,-4.1014,-4.1052,-4.0994,-4.0949,-4.0897,-4.0839,-4.0652,-4.0281,-3.9801,-3.934,-3.8972,-3.8141,-3.7433,-3.6914,-3.6547,-3.611,-3.5591,-3.5591,-3.5604,-3.5608,-3.5776,-3.6227,-3.6938,-3.7949,-3.8805,-3.9545,-4.0423,-4.079,-4.079,-4.079,-4.079,-4.079,-4.079,-4.079,-4.0887,-4.1699,-4.255,-4.3421,-4.4311,-4.5123,-4.58,-4.58,-4.58,-4.58,-4.5795,-4.5765,-4.57,-4.5703,-4.5706,-4.5693,-4.5676,-4.5693,-4.5905,-4.6701,-4.7509,-4.8336,-4.9202,-5.0067,-5.0702,-5.0702,-5.0702,-5.0702,-5.0702,-5.0702,-5.0702,-5.0702,-5.0702,-5.0702,-5.0702,-5.0702,-5.0702,-5.0702,-5.0991,-5.1741,-5.3087,-5.3549,-5.4299,-5.5607,-5.5703,-5.5703,-5.5703,-5.5662,-5.5662,-5.5703,-5.5662,-5.5662,-5.5703,-5.5703,-5.5682,-5.564,-5.5662,-5.5703,-4.2697,-4.2166,-4.1544,-4.1656,-4.1223,-4.0749,-4.0614,-4.0715,-4.0735,-4.0534,-4.0687,0.0,0.0,0.0,-4.111,-4.111,0.0,-4.1091,-4.1097,-4.1055,-4.1043,-4.1071,-4.1026,-4.0974,-4.0932,-4.0859,-4.0807,-4.0807,-4.0208,-3.9874,-3.9874,-3.903,-3.8264,-3.761,-3.7146,-3.6593,-3.5939,-3.5707,-3.5604,-3.5608,-3.5388,-3.5724,-3.6551,-3.7189,-3.8084,-3.9185,-4.0055,-4.0578,-4.079,-4.079,-4.079,-4.079,-4.079,-4.079,-4.0868,-4.1448,-4.2357,-4.3401,-4.402,-4.4929,-4.58,-4.58,-4.58,-4.58,-4.5795,-4.5765,-4.57,-4.57,-4.5687,-4.5693,-4.5693,-4.5693,-4.583,-4.6394,-4.7182,-4.8009,-4.8856,-4.9721,-5.0414,-5.0644,-5.0702,-5.0702,-5.0702,-5.0702,-5.0702,-5.0702,-5.0702,-5.0702,-5.0702,-5.0702,-5.0702,-5.0702,-5.0702,-5.1279,-5.2722,-5.3068,-5.3914,-5.5588,-5.5703,-5.5703,-5.5703,-5.5662,-5.5662,-5.5703,-5.5662,-5.564,-5.5662,-5.564,-5.5618,-5.5573,-5.5662,-5.5682,-4.3436,-4.3019,-4.2356,-4.2375,-4.2452,-4.2331,-4.1531,-4.1475,-4.137,-4.0654,-4.0604,-4.0746,-4.0869,-4.1003,-4.111,-4.111,-4.111,0.0,0.0,-4.1106,-4.1074,-4.1008,-4.0991,-4.0987,-4.1007,-4.0878,-4.0807,-4.0807,-4.0769,-4.0752,-4.0752,-3.992,-3.9424,-3.9329,-3.7745,-3.6863,-3.6749,-3.5977,-3.5604,-3.5591,-3.52,-3.5232,-3.5659,-3.6124,-3.7049,-3.8295,-3.9166,-4.0017,-4.079,-4.079,-4.079,-4.079,-4.079,-4.079,-4.079,-4.0829,-4.1874,-4.3305,-4.3324,-4.4427,-4.58,-4.58,-4.58,-4.58,-4.5795,-4.5765,-4.57,-4.57,-4.5651,-4.5622,-4.5693,-4.564,-4.5605,-4.5624,-4.6317,-4.7163,-4.7971,-4.8836,-4.9683,-5.0529,-5.0702,-5.0702,-5.0702,-5.0702,-5.0702,-5.0702,-5.0702,-5.0702,-5.0702,-5.0702,-5.0702,-5.0702,-5.0702,-5.1029,-5.1875,-5.2722,-5.3914,-5.5588,-5.5703,-5.5703,-5.5703,-5.564,-5.5618,-5.5703,-5.5573,-5.5527,-5.5596,-5.5527,-5.5504,-5.5504,-5.564,-5.5618,0.0,-4.3891,-4.3265,-4.3265,-4.2857,-4.2408,-4.2123,-4.1757,-4.1399,-4.115,-4.0892,-4.0703,-4.0757,-4.0952,-4.111,-4.111,-4.111,-4.1091,0.0,-4.11,-4.1085,-4.1065,-4.1074,-4.1046,-4.1,-4.0926,-4.0867,-4.0877,-4.0843,-4.0808,-4.0808,-4.0513,-4.0094,-3.9482,-3.8922,-3.8059,-3.6883,-3.6598,-3.6173,-3.5608,-3.5364,-3.5411,-3.5681,-3.629,-3.7151,-3.8257,-3.9108,-3.9978,-4.079,-4.079,-4.079,-4.079,-4.079,-4.079,-4.079,-4.079,-4.1854,-4.346,-4.4562,-4.5336,-4.58,-4.58,-4.5805,-4.5795,-4.5765,-4.5719,-4.5706,-4.57,-4.5651,-4.5603,-4.5687,-4.5654,-4.5586,-4.5586,-4.6278,-4.7124,-4.7932,-4.8779,-4.9663,-5.0529,-5.0702,-5.0702,-5.0702,-5.0702,-5.0702,-5.0702,-5.0702,-5.0702,-5.0702,-5.0702,-5.0702,-5.0702,-5.0702,-5.1029,-5.1837,-5.3241,-5.453,-5.5626,-5.5703,-5.5703,-5.5703,-5.5682,-5.566,-5.5618,-5.5596,-5.5551,-5.5527,-5.5504,-5.548,-5.5432,-5.5527,-5.5551,-4.4895,-4.4516,0.0,-4.4137,-4.3701,-4.3208,-4.2943,-4.2294,-4.1719,-4.1533,-4.1008,-4.0636,-4.0779,-4.0952,-4.1078,-4.1104,-4.111,-4.1091,0.0,-4.11,-4.11,-4.1094,-4.1107,-4.1069,-4.1013,-4.0935,-4.0898,-4.0888,-4.0834,-4.08,-4.08,-4.0796,-4.0539,-3.999,-3.9661,-3.8972,-3.7846,-3.751,-3.6911,-3.6057,-3.5939,-3.5817,-3.5704,-3.6074,-3.6781,-3.7793,-3.8663,-3.9533,-4.0346,-4.0674,-4.079,-4.079,-4.079,-4.079,-4.079,-4.079,-4.1854,-4.3537,-4.522,-4.58,-4.58,-4.58,-4.5805,-4.5795,-4.5715,-4.5703,-4.5687,-4.57,-4.5651,-4.562,-4.5684,-4.5635,-4.5586,-4.5586,-4.6028,-4.674,-4.7855,-4.8548,-4.9298,-5.0471,-5.0702,-5.0702,-5.0702,-5.0702,-5.0702,-5.0702,-5.0702,-5.0702,-5.0702,-5.0702,-5.0702,-5.0702,-5.0702,-5.1144,-5.2279,-5.3395,-5.4511,-5.5626,-5.5703,-5.5703,-5.5703,-5.5703,-5.5528,-5.5174,-5.5151,-5.4933,-5.458,-5.4863,-5.4968,-5.4937,-5.5293,-5.5451]}]]